[[{"header":{"parameterUnit":"m.s-1","parameterCategory":1,"la1":31.0,"la2":29.5877,"lo1":-88.7671,"lo2":-86.6584,"dy":0.0162,"dx":0.0185,"nx":115,"ny":88,"refTime":"2023-08-23T06:00:00:Z","depth":0,"parameterNumber":2,"parameterNumberName":"U-component_of_WINDS"},"data":[0.0,0.0,0.0,0.0,0.0,0.0,0.0,0.0,0.0,0.0,0.0,0.0,0.0,0.0,0.0,0.0,0.0,0.0,0.0,0.0,0.0,0.0,0.0,0.0,0.0,0.0,0.0,0.0,0.0,0.0,0.0,0.0,0.0,0.0,0.0,0.0,0.0,0.0,0.0,0.0,0.0,0.0,0.0,0.0,0.0,0.0,0.0,0.0,0.0,0.0,0.0,0.0,0.0,0.0,0.0,0.0,0.0,0.0,0.0,0.0,0.0,0.0,0.0,0.0,0.0,0.0,0.0,0.0,0.0,0.0,0.0,0.0,0.0,0.0,0.0,0.0,0.0,0.0,0.0,0.0,0.0,0.0,0.0,0.0,0.0,0.0,0.0,0.0,0.0,0.0,0.0,0.0,0.0,0.0,0.0,0.0,0.0,0.0,0.0,0.0,0.0,0.0,0.0,0.0,0.0,0.0,0.0,0.0,0.0,0.0,0.0,0.0,0.0,0.0,0.0,0.0,0.0,0.0,0.0,0.0,0.0,0.0,0.0,0.0,0.0,0.0,0.0,0.0,0.0,0.0,0.0,0.0,0.0,0.0,0.0,0.0,0.0,0.0,0.0,0.0,0.0,0.0,0.0,0.0,0.0,0.0,0.0,0.0,0.0,0.0,0.0,0.0,0.0,0.0,0.0,0.0,0.0,0.0,0.0,0.0,0.0,0.0,0.0,0.0,0.0,0.0,0.0,0.0,0.0,0.0,0.0,0.0,0.0,0.0,0.0,0.0,0.0,0.0,0.0,0.0,0.0,0.0,0.0,0.0,0.0,0.0,0.0,0.0,0.0,0.0,0.0,0.0,0.0,0.0,0.0,0.0,0.0,0.0,0.0,0.0,0.0,0.0,0.0,0.0,0.0,0.0,0.0,0.0,0.0,0.0,0.0,0.0,0.0,0.0,0.0,0.0,0.0,0.0,0.0,0.0,0.0,0.0,0.0,0.0,0.0,0.0,0.0,0.0,0.0,0.0,0.0,0.0,0.0,0.0,0.0,0.0,0.0,0.0,0.0,0.0,0.0,0.0,0.0,0.0,0.0,0.0,0.0,0.0,0.0,0.0,0.0,0.0,0.0,0.0,0.0,0.0,0.0,0.0,0.0,0.0,0.0,0.0,0.0,0.0,0.0,0.0,0.0,0.0,0.0,0.0,0.0,0.0,0.0,0.0,0.0,0.0,0.0,0.0,0.0,0.0,0.0,0.0,0.0,0.0,0.0,0.0,0.0,0.0,0.0,0.0,0.0,0.0,0.0,0.0,0.0,0.0,0.0,0.0,0.0,0.0,0.0,0.0,0.0,0.0,0.0,0.0,0.0,0.0,0.0,0.0,0.0,0.0,0.0,0.0,0.0,0.0,0.0,0.0,0.0,0.0,0.0,0.0,0.0,0.0,0.0,0.0,0.0,0.0,0.0,0.0,0.0,0.0,0.0,0.0,0.0,0.0,0.0,0.0,0.0,0.0,0.0,0.0,0.0,0.0,0.0,0.0,0.0,0.0,0.0,0.0,0.0,0.0,0.0,0.0,0.0,0.0,0.0,0.0,0.0,0.0,0.0,0.0,0.0,0.0,0.0,0.0,0.0,0.0,0.0,0.0,0.0,0.0,0.0,0.0,0.0,0.0,0.0,0.0,0.0,0.0,0.0,0.0,0.0,0.0,0.0,0.0,0.0,0.0,0.0,0.0,0.0,0.0,0.0,0.0,0.0,0.0,0.0,0.0,0.0,0.0,0.0,0.0,0.0,0.0,0.0,0.0,0.0,0.0,0.0,0.0,0.0,0.0,0.0,0.0,0.0,0.0,0.0,0.0,0.0,0.0,0.0,0.0,0.0,0.0,0.0,0.0,0.0,0.0,0.0,0.0,0.0,0.0,0.0,0.0,0.0,0.0,0.0,0.0,0.0,0.0,0.0,0.0,0.0,0.0,0.0,0.0,0.0,0.0,0.0,0.0,0.0,0.0,0.0,0.0,0.0,0.0,0.0,0.0,0.0,0.0,0.0,0.0,0.0,0.0,0.0,0.0,0.0,0.0,0.0,0.0,0.0,0.0,0.0,0.0,0.0,0.0,0.0,0.0,0.0,0.0,0.0,0.0,0.0,0.0,0.0,0.0,0.0,0.0,0.0,0.0,0.0,0.0,0.0,0.0,0.0,0.0,0.0,0.0,0.0,0.0,0.0,0.0,0.0,0.0,0.0,0.0,0.0,0.0,0.0,0.0,0.0,0.0,0.0,0.0,0.0,0.0,0.0,0.0,0.0,0.0,0.0,0.0,0.0,0.0,0.0,0.0,0.0,0.0,0.0,0.0,0.0,0.0,0.0,0.0,0.0,0.0,0.0,0.0,0.0,0.0,0.0,0.0,0.0,0.0,0.0,0.0,0.0,0.0,0.0,0.0,0.0,0.0,0.0,0.0,0.0,0.0,0.0,0.0,0.0,0.0,0.0,0.0,0.0,0.0,0.0,0.0,0.0,0.0,0.0,0.0,0.0,0.0,0.0,0.0,0.0,0.0,0.0,0.0,0.0,0.0,0.0,0.0,0.0,0.0,0.0,0.0,0.0,0.0,0.0,0.0,0.0,0.0,0.0,0.0,0.0,0.0,0.0,0.0,0.0,0.0,0.0,0.0,0.0,0.0,0.0,0.0,0.0,0.0,0.0,0.0,0.0,0.0,0.0,0.0,0.0,0.0,0.0,0.0,0.0,0.0,0.0,0.0,0.0,0.0,0.0,0.0,0.0,0.0,0.0,0.0,0.0,0.0,0.0,0.0,0.0,0.0,0.0,0.0,0.0,0.0,0.0,0.0,0.0,0.0,0.0,0.0,0.0,0.0,0.0,0.0,0.0,0.0,0.0,0.0,0.0,0.0,0.0,0.0,0.0,0.0,0.0,0.0,0.0,0.0,0.0,0.0,0.0,0.0,0.0,0.0,0.0,0.0,0.0,0.0,0.0,0.0,0.0,0.0,0.0,0.0,0.0,0.0,0.0,0.0,0.0,0.0,0.0,0.0,0.0,0.0,0.0,0.0,0.0,0.0,0.0,0.0,0.0,0.0,0.0,0.0,0.0,0.0,0.0,0.0,0.0,0.0,0.0,0.0,0.0,0.0,0.0,0.0,0.0,0.0,0.0,0.0,0.0,0.0,0.0,0.0,0.0,0.0,0.0,0.0,0.0,0.0,0.0,0.0,0.0,0.0,0.0,0.0,0.0,0.0,0.0,0.0,0.0,0.0,0.0,0.0,0.0,0.0,0.0,0.0,0.0,0.0,0.0,0.0,0.0,0.0,0.0,0.0,0.0,0.0,0.0,0.0,0.0,0.0,0.0,0.0,0.0,0.0,0.0,0.0,0.0,0.0,0.0,0.0,0.0,0.0,0.0,0.0,0.0,0.0,0.0,0.0,0.0,0.0,0.0,0.0,0.0,0.0,0.0,0.0,0.0,0.0,0.0,0.0,0.0,0.0,0.0,0.0,0.0,0.0,0.0,0.0,0.0,0.0,0.0,0.0,0.0,0.0,0.0,0.0,0.0,0.0,0.0,0.0,0.0,0.0,0.0,0.0,0.0,0.0,0.0,0.0,0.0,0.0,0.0,0.0,0.0,0.0,0.0,0.0,0.0,0.0,0.0,0.0,0.0,0.0,0.0,0.0,0.0,0.0,0.0,0.0,0.0,0.0,0.0,0.0,0.0,0.0,0.0,0.0,0.0,0.0,0.0,0.0,0.0,0.0,0.0,0.0,0.0,0.0,0.0,0.0,0.0,0.0,0.0,0.0,0.0,0.0,0.0,0.0,0.0,0.0,0.0,0.0,0.0,0.0,0.0,0.0,0.0,0.0,0.0,0.0,0.0,0.0,0.0,0.0,0.0,0.0,0.0,0.0,0.0,0.0,0.0,0.0,0.0,0.0,0.0,0.0,0.0,0.0,0.0,0.0,0.0,0.0,0.0,0.0,0.0,0.0,0.0,0.0,0.0,0.0,0.0,0.0,0.0,0.0,0.0,0.0,0.0,0.0,0.0,0.0,0.0,0.0,0.0,0.0,0.0,0.0,0.0,0.0,0.0,0.0,0.0,0.0,0.0,0.0,0.0,0.0,0.0,0.0,0.0,0.0,0.0,0.0,0.0,0.0,0.0,0.0,0.0,0.0,0.0,0.0,0.0,0.0,0.0,0.0,0.0,0.0,0.0,0.0,0.0,0.0,0.0,0.0,0.0,0.0,0.0,0.0,0.0,0.0,0.0,0.0,-0.3436,0.0,0.0,0.0,0.0,0.0,0.0,0.0,0.0,0.0,0.0,0.0,0.0,0.0,0.0,0.0,0.0,0.0,0.0,0.0,0.0,0.0,0.0,0.0,0.0,0.0,0.0,0.0,0.0,0.0,0.0,0.0,0.0,0.0,0.0,0.0,0.0,0.0,0.0,0.0,0.0,0.0,0.0,0.0,0.0,0.0,0.0,0.0,0.0,0.0,0.0,0.0,0.0,0.0,0.0,0.0,0.0,0.0,0.0,0.0,0.0,0.0,0.0,0.0,0.0,0.0,0.0,0.0,0.0,0.0,0.0,0.0,0.0,0.0,0.0,0.0,0.0,0.0,0.0,0.0,0.0,0.0,0.0,0.0,0.0,0.0,0.0,0.0,0.0,0.0,0.0,0.0,0.0,0.0,0.0,0.0,0.0,0.0,0.0,0.0,0.0,0.0,0.0,0.0,0.0,0.0,0.0,0.0,0.0,0.0,0.0,-0.3506,-0.3506,-0.3506,-0.3506,-0.3506,0.0,0.0,0.0,0.0,0.0,0.0,0.0,0.0,0.0,0.0,0.0,0.0,0.0,0.0,0.0,0.0,0.0,0.0,0.0,0.0,0.0,0.0,0.0,0.0,0.0,0.0,0.0,0.0,0.0,0.0,0.0,0.0,0.0,0.0,0.0,0.0,0.0,0.0,0.0,0.0,0.0,0.0,0.0,0.0,0.0,0.0,0.0,0.0,0.0,0.0,0.0,0.0,0.0,0.0,0.0,0.0,0.0,0.0,0.0,0.0,0.0,0.0,0.0,0.0,0.0,0.0,0.0,0.0,0.0,0.0,0.0,0.0,0.0,0.0,0.0,0.0,0.0,0.0,0.0,0.0,0.0,0.0,0.0,0.0,0.0,0.0,0.0,0.0,0.0,0.0,0.0,0.0,0.0,0.0,0.0,0.0,0.0,0.0,0.0,0.0,0.0,0.0,0.0,0.0,0.0,0.0,0.0,0.0,0.0,0.0,0.0,0.0,-0.3606,-0.3606,-0.3616,0.0,0.0,0.0,0.0,0.0,0.0,0.0,0.0,0.0,0.0,0.0,0.0,0.0,0.0,0.0,0.0,0.0,0.0,0.0,0.0,0.0,0.0,0.0,0.0,0.0,0.0,0.0,0.0,0.0,0.0,0.0,0.0,0.0,0.0,0.0,0.0,0.0,0.0,0.0,0.0,0.0,0.0,0.0,0.0,0.0,0.0,0.0,0.0,0.0,0.0,0.0,0.0,0.0,0.0,0.0,0.0,0.0,0.0,0.0,0.0,0.0,0.0,0.0,0.0,0.0,0.0,0.0,0.0,0.0,0.0,0.0,0.0,0.0,0.0,0.0,0.0,0.0,0.0,0.0,0.0,0.0,0.0,0.0,0.0,0.0,0.0,0.0,0.0,0.0,0.0,0.0,0.0,0.0,0.0,0.0,0.0,0.0,0.0,0.0,0.0,0.0,0.0,0.0,0.0,0.0,0.0,0.0,0.0,0.0,0.0,-0.365,-0.3933,-0.3951,0.0,-0.394,0.0,0.0,0.0,0.0,0.0,0.0,0.0,0.0,0.0,0.0,0.0,0.0,0.0,0.0,0.0,0.0,0.0,0.0,0.0,0.0,0.0,0.0,0.0,0.0,0.0,0.0,0.0,0.0,0.0,0.0,0.0,0.0,0.0,0.0,0.0,0.0,0.0,0.0,0.0,0.0,0.0,0.0,0.0,0.0,0.0,0.0,0.0,0.0,0.0,0.0,0.0,0.0,0.0,0.0,0.0,0.0,0.0,0.0,0.0,0.0,0.0,0.0,0.0,0.0,0.0,0.0,0.0,0.0,0.0,0.0,0.0,0.0,0.0,0.0,0.0,0.0,0.0,0.0,0.0,0.0,0.0,0.0,0.0,0.0,0.0,0.0,0.0,0.0,0.0,0.0,0.0,0.0,0.0,0.0,0.0,0.0,0.0,0.0,0.0,0.0,0.0,0.0,0.0,0.0,0.0,0.0,0.0,0.0,0.0,0.0,-0.3656,-0.3985,-0.3992,-0.3992,0.0,0.0,0.0,0.0,0.0,0.0,0.0,0.0,0.0,0.0,0.0,0.0,0.0,0.0,0.0,0.0,0.0,0.0,0.0,0.0,0.0,0.0,0.0,0.0,0.0,0.0,0.0,0.0,0.0,0.0,0.0,0.0,0.0,0.0,0.0,0.0,0.0,0.0,0.0,0.0,0.0,0.0,0.0,0.0,0.0,0.0,0.0,0.0,0.0,0.0,0.0,0.0,0.0,0.0,0.0,0.0,0.0,0.0,0.0,0.0,0.0,0.0,0.0,0.0,0.0,0.0,0.0,0.0,0.0,0.0,0.0,0.0,0.0,0.0,0.0,0.0,0.0,0.0,0.0,0.0,0.0,0.0,0.0,0.0,0.0,0.0,0.0,0.0,0.0,0.0,0.0,0.0,0.0,0.0,0.0,0.0,0.0,0.0,0.0,0.0,0.0,0.0,0.0,0.0,0.0,0.0,0.0,0.0,0.0,0.0,-0.34,-0.3656,-0.3983,-0.3992,-0.3925,-0.3752,0.0,0.0,0.0,0.0,0.0,0.0,0.0,0.0,0.0,0.0,0.0,0.0,0.0,0.0,0.0,0.0,0.0,0.0,0.0,0.0,0.0,0.0,0.0,0.0,0.0,0.0,0.0,0.0,0.0,0.0,0.0,0.0,0.0,0.0,0.0,0.0,0.0,0.0,0.0,0.0,0.0,0.0,0.0,0.0,0.0,0.0,0.0,0.0,0.0,0.0,0.0,0.0,0.0,0.0,0.0,0.0,0.0,0.0,0.0,0.0,0.0,0.0,0.0,0.0,0.0,0.0,0.0,0.0,0.0,0.0,0.0,0.0,0.0,0.0,0.0,0.0,0.0,0.0,0.0,0.0,0.0,0.0,0.0,0.0,0.0,0.0,0.0,0.0,0.0,0.0,0.0,0.0,0.0,0.0,0.0,0.0,0.0,0.0,0.0,0.0,0.0,0.0,0.0,0.0,0.0,0.0,0.0,0.0,-0.3446,-0.3475,-0.3656,-0.3978,-0.3992,-0.373,0.0,0.0,0.0,0.0,0.0,0.0,0.0,0.0,0.0,0.0,0.0,0.0,0.0,0.0,0.0,0.0,0.0,0.0,0.0,0.0,0.0,0.0,0.0,0.0,0.0,0.0,0.0,0.0,0.0,0.0,0.0,0.0,0.0,0.0,0.0,0.0,0.0,0.0,0.0,0.0,0.0,0.0,0.0,0.0,0.0,0.0,0.0,0.0,0.0,0.0,0.0,0.0,0.0,0.0,0.0,0.0,0.0,0.0,0.0,0.0,0.0,0.0,0.0,0.0,0.0,0.0,0.0,0.0,0.0,0.0,0.0,0.0,0.0,0.0,0.0,0.0,0.0,0.0,0.0,0.0,0.0,0.0,0.0,0.0,0.0,0.0,0.0,0.0,0.0,0.0,0.0,0.0,0.0,0.0,0.0,0.0,0.0,0.0,0.0,0.0,0.0,0.0,0.0,0.0,0.0,0.0,0.0,0.0,0.0,-0.2651,-0.3055,-0.3491,-0.397,-0.3636,-0.341,0.0,0.0,0.0,0.0,0.0,0.0,0.0,0.0,0.0,0.0,0.0,0.0,0.0,0.0,0.0,0.0,0.0,0.0,0.0,0.0,0.0,0.0,0.0,0.0,0.0,0.0,0.0,0.0,0.0,0.0,0.0,0.0,0.0,0.0,0.0,0.0,0.0,0.0,0.0,0.0,0.0,0.0,0.0,0.0,0.0,0.0,0.0,0.0,0.0,0.0,0.0,0.0,0.0,0.0,0.0,0.0,0.0,0.0,0.0,0.0,0.0,0.0,0.0,0.0,0.0,0.0,0.0,0.0,0.0,0.0,0.0,0.0,0.0,0.0,0.0,0.0,0.0,0.0,0.0,0.0,0.0,0.0,0.0,0.0,0.0,0.0,0.0,0.0,0.0,0.0,0.0,0.0,0.0,0.0,0.0,0.0,0.0,0.0,0.0,0.0,0.0,0.0,0.0,0.0,0.0,0.0,0.0,0.0,0.0,-0.2479,0.0,-0.3437,-0.3799,-0.3327,-0.3031,0.0,0.0,0.0,0.0,0.0,0.0,0.0,0.0,0.0,0.0,0.0,0.0,0.0,0.0,0.0,0.0,0.0,0.0,0.0,0.0,0.0,0.0,0.0,0.0,0.0,0.0,0.0,0.0,0.0,0.0,0.0,0.0,0.0,0.0,0.0,0.0,0.0,0.0,0.0,0.0,0.0,0.0,0.0,0.0,0.0,0.0,0.0,0.0,0.0,0.0,0.0,0.0,0.0,0.0,0.0,0.0,0.0,0.0,0.0,0.0,0.0,0.0,0.0,0.0,0.0,0.0,0.0,0.0,0.0,0.0,0.0,0.0,0.0,0.0,0.0,0.0,0.0,0.0,0.0,0.0,0.0,0.0,0.0,0.0,0.0,0.0,0.0,0.0,0.0,0.0,0.0,0.0,0.0,0.0,0.0,0.0,0.0,0.0,0.0,0.0,0.0,0.0,0.0,0.0,0.0,0.0,0.0,0.0,-0.2244,-0.3049,-0.3343,-0.3475,-0.3489,-0.3091,-0.2622,0.0,0.0,0.0,0.0,0.0,0.0,0.0,0.0,0.0,0.0,0.0,0.0,0.0,0.0,0.0,0.0,0.0,0.0,0.0,0.0,0.0,0.0,0.0,0.0,0.0,0.0,0.0,0.0,0.0,0.0,0.0,0.0,0.0,0.0,0.0,0.0,0.0,0.0,0.0,0.0,0.0,0.0,0.0,0.0,0.0,0.0,0.0,0.0,0.0,0.0,0.0,0.0,0.0,0.0,0.0,0.0,0.0,0.0,0.0,0.0,0.0,0.0,0.0,0.0,0.0,0.0,0.0,0.0,0.0,0.0,0.0,0.0,0.0,0.0,0.0,0.0,0.0,0.0,0.0,0.0,0.0,0.0,0.0,0.0,0.0,0.0,0.0,0.0,0.0,0.0,0.0,0.0,0.0,0.0,0.0,0.0,0.0,0.0,0.0,0.0,0.0,0.0,0.0,0.0,0.0,0.0,0.0,0.0,0.0,-0.2769,-0.307,-0.331,-0.3479,-0.2792,-0.261,0.0,0.0,0.0,0.0,0.0,0.0,0.0,0.0,0.0,0.0,0.0,0.0,0.0,0.0,0.0,0.0,0.0,0.0,0.0,0.0,0.0,0.0,0.0,0.0,0.0,0.0,0.0,0.0,0.0,0.0,0.0,0.0,0.0,0.0,0.0,0.0,0.0,0.0,0.0,0.0,0.0,0.0,0.0,0.0,0.0,0.0,0.0,0.0,0.0,0.0,0.0,0.0,0.0,0.0,0.0,0.0,0.0,0.0,0.0,0.0,0.0,0.0,0.0,0.0,0.0,0.0,0.0,0.0,0.0,0.0,0.0,0.0,0.0,0.0,0.0,0.0,0.0,0.0,0.0,0.0,0.0,0.0,0.0,0.0,0.0,0.0,0.0,0.0,0.0,0.0,0.0,0.0,0.0,0.0,0.0,0.0,0.0,0.0,0.0,0.0,0.0,0.0,0.0,0.0,0.0,0.0,0.0,0.0,0.0,-0.3445,-0.3529,-0.3656,-0.3836,-0.2957,-0.2755,-0.3372,0.0,0.0,0.0,0.0,0.0,0.0,0.0,0.0,0.0,0.0,0.0,0.0,0.0,0.0,0.0,0.0,0.0,0.0,0.0,0.0,0.0,0.0,0.0,0.0,0.0,0.0,0.0,0.0,0.0,0.0,0.0,0.0,0.0,0.0,0.0,0.0,0.0,0.0,0.0,0.0,0.0,0.0,0.0,0.0,0.0,0.0,0.0,0.0,0.0,0.0,0.0,0.0,0.0,0.0,0.0,0.0,0.0,0.0,0.0,0.0,0.0,0.0,0.0,0.0,0.0,0.0,0.0,0.0,0.0,0.0,0.0,0.0,0.0,0.0,0.0,0.0,0.0,0.0,0.0,0.0,0.0,0.0,0.0,0.0,0.0,0.0,0.0,0.0,0.0,0.0,0.0,0.0,0.0,0.0,0.0,0.0,0.0,0.0,0.0,0.0,0.0,0.0,0.0,0.0,0.0,0.0,0.0,0.0,-0.4842,-0.4643,-0.4523,-0.4429,-0.3489,-0.3086,0.0,0.0,0.0,0.0,0.0,0.0,0.0,0.0,0.0,0.0,0.0,0.0,0.0,0.0,0.0,0.0,0.0,0.0,0.0,0.0,0.0,0.0,0.0,0.0,0.0,0.0,0.0,0.0,0.0,0.0,0.0,0.0,0.0,0.0,0.0,0.0,0.0,0.0,0.0,0.0,0.0,0.0,0.0,0.0,0.0,0.0,0.0,0.0,0.0,0.0,0.0,0.0,0.0,0.0,0.0,0.0,0.0,0.0,0.0,0.0,0.0,0.0,0.0,0.0,0.0,0.0,0.0,0.0,0.0,0.0,0.0,0.0,0.0,0.0,0.0,0.0,0.0,0.0,0.0,0.0,0.0,0.0,0.0,0.0,0.0,0.0,0.0,0.0,0.0,0.0,0.0,0.0,0.0,0.0,0.0,0.0,0.0,0.0,0.0,0.0,0.0,0.0,0.0,0.0,0.0,0.0,0.0,0.0,0.0,-0.5485,-0.6042,-0.5918,-0.5087,-0.4187,-0.3741,0.0,0.0,0.0,0.0,0.0,0.0,0.0,0.0,0.0,0.0,0.0,0.0,0.0,0.0,0.0,0.0,0.0,0.0,0.0,0.0,0.0,0.0,0.0,0.0,0.0,0.0,0.0,0.0,0.0,0.0,0.0,0.0,0.0,0.0,0.0,0.0,0.0,0.0,0.0,0.0,0.0,0.0,0.0,0.0,0.0,0.0,0.0,0.0,0.0,0.0,0.0,0.0,0.0,0.0,0.0,0.0,0.0,0.0,0.0,0.0,0.0,0.0,0.0,0.0,0.0,0.0,0.0,0.0,0.0,0.0,0.0,0.0,0.0,0.0,0.0,0.0,0.0,0.0,0.0,0.0,0.0,0.0,0.0,0.0,0.0,0.0,0.0,0.0,0.0,0.0,0.0,0.0,0.0,0.0,0.0,0.0,0.0,0.0,0.0,0.0,0.0,0.0,0.0,0.0,0.0,0.0,0.0,0.0,-0.5872,-0.6119,-0.6577,-0.6497,-0.5856,-0.4998,-0.4416,0.0,0.0,0.0,0.0,0.0,0.0,0.0,0.0,0.0,0.0,0.0,0.0,0.0,0.0,0.0,0.0,0.0,0.0,0.0,0.0,0.0,0.0,0.0,0.0,0.0,0.0,0.0,0.0,0.0,0.0,0.0,0.0,0.0,0.0,0.0,0.0,0.0,0.0,0.0,0.0,0.0,0.0,0.0,0.0,0.0,0.0,0.0,0.0,0.0,0.0,0.0,0.0,0.0,0.0,0.0,0.0,0.0,0.0,0.0,0.0,0.0,0.0,0.0,0.0,0.0,0.0,0.0,0.0,0.0,0.0,0.0,0.0,0.0,0.0,0.0,0.0,0.0,0.0,0.0,0.0,0.0,0.0,0.0,0.0,0.0,0.0,0.0,0.0,0.0,0.0,0.0,0.0,0.0,0.0,0.0,0.0,0.0,0.0,0.0,0.0,0.0,0.0,0.0,0.0,0.0,0.0,0.0,0.0,-0.6086,-0.6612,-0.6701,-0.6713,-0.6613,-0.5796,-0.5032,0.0,0.0,0.0,0.0,0.0,0.0,0.0,0.0,0.0,0.0,0.0,0.0,0.0,0.0,0.0,0.0,0.0,0.0,0.0,0.0,0.0,0.0,0.0,0.0,0.0,0.0,0.0,0.0,0.0,0.0,0.0,0.0,0.0,0.0,0.0,0.0,0.0,0.0,0.0,0.0,0.0,0.0,0.0,0.0,0.0,0.0,0.0,0.0,0.0,0.0,0.0,0.0,0.0,0.0,0.0,0.0,0.0,0.0,0.0,0.0,0.0,0.0,0.0,0.0,0.0,0.0,0.0,0.0,0.0,0.0,0.0,0.0,0.0,0.0,0.0,0.0,0.0,0.0,0.0,0.0,0.0,0.0,0.0,0.0,0.0,0.0,0.0,0.0,0.0,0.0,0.0,0.0,0.0,0.0,0.0,0.0,0.0,0.0,0.0,0.0,0.0,0.0,0.0,0.0,0.0,0.0,0.0,0.0,-0.6502,-0.6234,-0.7134,-0.7389,-0.6927,-0.6065,-0.5131,0.0,0.0,0.0,0.0,0.0,0.0,0.0,0.0,0.0,0.0,0.0,0.0,0.0,0.0,0.0,0.0,0.0,0.0,0.0,0.0,0.0,0.0,0.0,0.0,0.0,0.0,0.0,0.0,0.0,0.0,0.0,0.0,0.0,0.0,0.0,0.0,0.0,0.0,0.0,0.0,0.0,0.0,0.0,0.0,0.0,0.0,0.0,0.0,0.1275,0.0,0.0,0.0,0.0,0.0,0.0,0.0,0.0,0.0,0.0,0.0,0.0,0.0,0.0,0.0,0.0,0.0,0.0,0.0,0.0,0.0,0.0,0.0,0.0,0.0,0.0,0.0,0.0,0.0,0.0,0.0,0.0,0.0,0.0,0.0,0.0,0.0,0.0,0.0,0.0,0.0,0.0,0.0,0.0,0.0,0.0,0.0,0.0,0.0,0.0,0.0,0.0,0.0,0.0,0.0,0.0,0.0,0.0,0.0,-0.6355,-0.6433,-0.7115,-0.7321,-0.6973,-0.6325,-0.5384,0.0,0.0,0.0,0.0,0.0,0.0,0.0,0.0,0.0,0.0,0.0,0.0,0.0,0.0,0.0,0.0,0.0,0.0,0.0,0.0,0.0,0.0,0.0,0.0,0.0,0.0,0.0,0.0,0.0,0.0,0.0,0.0,0.0,0.0,0.0,0.0,0.0,0.0,0.0,0.0,0.0,0.0,0.0,0.0,0.0,0.0,0.0,0.0,0.0,0.0,0.0,0.0,0.0,0.0,0.0,0.0,0.0,0.0,0.0,0.0,0.0,0.0,0.0,0.0,0.0,0.0,0.0,0.0,0.0,0.0,0.0,0.0,0.0,0.0,0.0,0.0,0.0,0.0,0.0,0.0,0.0,0.0,0.0,0.0,0.0,0.0,0.0,0.0,0.0,0.0,0.0,0.0,0.0,0.0,0.0,0.0,0.0,0.0,0.0,0.0,0.0,0.0,0.0,0.0,0.0,0.0,0.0,-0.5456,-0.6031,-0.6673,-0.6894,-0.6993,-0.6993,-0.6421,-0.5548,-0.4441,0.0,0.0,0.0,0.0,0.0,0.0,0.0,0.0,0.0,0.0,0.0,0.0,0.0,0.0,0.0,0.0,0.0,0.0,0.0,0.0,0.0,0.0,0.0,0.0,0.0,0.0,0.0,0.0,0.0,0.0,0.0,0.0,0.0,0.0,0.0,0.0,0.0,0.0,0.0434,0.0985,0.0,0.0,0.0,0.0,0.0,0.0,0.0,0.0,0.1568,0.0,0.0,0.0,0.0,0.0,0.0,0.0,0.0,0.0,0.0,0.0,0.0,0.0,0.0,0.0,0.0,0.0,0.0,0.0,0.0,0.0,0.0,0.0,0.0,0.0,0.0,0.0,0.0,0.0,0.0,0.0,0.0,0.0,0.0,0.0,0.0,0.0,0.0,0.0,0.0,0.0,0.0,0.0,0.0,0.0,0.0,0.0,0.0,0.0,0.0,0.0,0.0,0.0,0.0,0.0,0.0,-0.5707,-0.571,-0.5906,-0.6304,-0.676,-0.6993,-0.6965,-0.6104,-0.5228,-0.4441,0.0,0.0,0.0,0.0,0.0,0.0,0.0,0.0,0.0,0.0,0.0,0.0,0.0,0.0,0.0,0.0,0.0,0.0,0.0,0.0,0.0,0.0,0.0,0.0,0.0,0.0,0.0,0.0,0.0,0.0,0.0,0.0,0.0,0.0,0.0,0.0,0.0,0.0,0.0,0.1232,0.1641,0.0,0.0,0.0,0.0,0.0,0.0,0.0,0.0,0.2002,0.0,0.0,0.0,0.0,0.0,0.0,0.0,0.0,0.0,0.0,0.0,0.0,0.0,0.0,0.0,0.0,0.0,0.0,0.0,0.0,0.0,0.0,0.0,0.0,0.0,0.0,0.0,0.0,0.0,0.0,0.0,0.0,0.0,0.0,0.0,0.0,0.0,0.0,0.0,0.0,0.0,0.0,0.0,0.0,0.0,0.0,0.0,0.0,0.0,0.0,0.0,0.0,0.0,0.0,0.0,-0.5252,-0.5577,-0.5865,-0.6189,-0.6727,-0.6993,-0.698,-0.6098,-0.523,0.0,0.0,0.0,0.0,0.0,0.0,0.0,0.0,0.0,0.0,0.0,0.0,0.0,0.0,0.0,0.0,0.0,0.0,0.0,0.0,0.0,0.0,0.0,0.0,0.0,0.0,0.0,0.0,0.0,0.0,0.0,0.0,0.0,0.0,0.0,0.0,0.0,0.0,0.0,0.0,0.1503,0.1979,0.2229,0.0,0.0,0.0,0.0,0.0,0.0,0.2414,0.2276,0.0,0.0,0.0,0.0,0.0,0.0,0.0,0.0,0.0,0.0,0.0,0.0,0.0,0.0,0.0,0.0,0.0,0.0,0.0,0.0,0.0,0.0,0.0,0.0,0.0,0.0,0.0,0.0,0.0,0.0,0.0,0.0,0.0,0.0,0.0,0.0,0.0,0.0,0.0,0.0,0.0,0.0,0.0,0.0,0.0,0.0,0.0,0.0,0.0,0.0,0.0,0.0,0.0,0.0,0.0,-0.4774,-0.5337,-0.5816,-0.6189,-0.6667,-0.6913,-0.69,-0.61,-0.5244,0.0,0.0,0.0,0.0,0.0,0.0,0.0,0.0,0.0,0.0,0.0,0.0,0.0,0.0,0.0,0.0,0.0,0.0,0.0,0.0,0.0,0.0,0.0,0.0,0.0,0.0,0.0,0.0,0.0,0.0,0.0,0.0,0.0,0.0,0.0,0.0,0.0,0.0,0.0,0.0,0.0,0.2072,0.244,0.2682,0.0,0.0,0.0,0.0,0.2648,0.2664,0.0,0.0,0.0,0.0,0.0,0.0,0.0,0.0,0.0,0.0,0.0,0.0,0.0,0.0,0.0,0.0,0.0,0.0,0.0,0.0,0.0,0.0,0.0,0.0,0.0,0.0,0.0,0.0,0.0,0.0,0.0,0.0,0.0,0.0,0.0,0.0,0.0,0.0,0.0,0.0,0.0,0.0,0.0,0.0,0.0,0.0,0.0,0.0,0.0,0.0,0.0,0.0,0.0,0.0,0.0,0.0,-0.4766,-0.5153,-0.5638,-0.6176,-0.6492,-0.664,-0.6633,-0.592,-0.505,0.0,0.0,0.0,0.0,0.0,0.0,0.0,0.0,0.0,0.0,0.0,0.0,0.0,0.0,0.0,0.0,0.0,0.0,0.0,0.0,0.0,0.0,0.0,0.0,0.0,0.0,0.0,0.0,0.0,0.0,0.0,0.0,0.0,0.0,0.0,0.0,0.0,0.0,0.0,0.0,0.0,0.1408,0.2369,0.2537,0.2655,0.0,0.0,0.3206,0.3206,0.3206,0.0,0.0,0.0,0.0,0.0,0.0,0.0,0.0,0.0,0.0,0.0,0.0,0.0,0.0,0.0,0.0,0.0,0.0,0.0,0.0,0.0,0.0,0.0,0.0,0.0,0.0,0.0,0.0,0.0,0.0,0.0,0.0,0.0,0.0,0.0,0.0,0.0,0.0,0.0,0.0,0.0,0.0,0.0,0.0,0.0,0.0,0.0,0.0,0.0,0.0,0.0,0.0,0.0,0.0,0.0,-0.3731,-0.4766,-0.5126,-0.5501,-0.5909,-0.5963,-0.5977,-0.5971,-0.5108,-0.4328,0.0,0.0,0.0,0.0,0.0,0.0,0.0,0.0,0.0,0.0,0.0,0.0,0.0,0.0,0.0,0.0,0.0,0.0,0.0,0.0,0.0,0.0,0.0,0.0,0.0,0.0,0.0,0.0,0.0,0.0,0.0,0.0,0.0,0.0,0.0,0.0,0.0,0.0,0.0,0.0,0.0,0.0,0.2101,0.2372,0.0,0.0,0.0,0.348,0.348,0.0,0.0,0.0,0.0,0.0,0.0,0.0,0.0,0.0,0.0,0.0,0.0,0.0,0.0,0.0,0.0,0.0,0.0,0.0,0.0,0.0,0.0,0.0,0.0,0.0,0.0,0.0,0.0,0.0,0.0,0.0,0.0,0.0,0.0,0.0,0.0,0.0,0.0,0.0,0.0,0.0,0.0,0.0,0.0,0.0,0.0,0.0,0.0,0.0,0.0,0.0,0.0,0.0,0.0,0.0,0.0,0.0,-0.4696,-0.5006,-0.5344,-0.5671,-0.5509,-0.5395,-0.5371,-0.4465,0.0,0.0,0.0,0.0,0.0,0.0,0.0,0.0,0.0,0.0,0.0,0.0,0.0,0.0,0.0,0.0,0.0,0.0,0.0,0.0,0.0,0.0,0.0,0.0,0.0,0.0,0.0,0.0174,0.0,0.0,0.0,0.0,0.0,0.0,0.0,0.0,0.0,0.0,0.0,0.0,0.0,0.0,0.0917,0.1624,0.2108,0.2663,0.0,0.0,0.3734,0.3716,0.3721,0.3568,0.0,0.0,0.0,0.0,0.0,0.0,0.0,0.0,0.0,0.0,0.0,0.0,0.0,0.0,0.0,0.0,0.0,0.0,0.0,0.0,0.0,0.0,0.0,0.0,0.0,0.0,0.0,0.0,0.0,0.0,0.0,0.0,0.0,0.0,0.0,0.0,0.0,0.0,0.0,0.0,0.0,0.0,0.0,0.0,0.0,0.0,0.0,0.0,0.0,0.0,0.0,0.0,0.0,0.0,-0.3668,-0.4415,-0.4689,-0.5106,-0.5657,-0.5317,-0.5138,-0.5121,-0.4262,-0.3532,0.0,0.0,0.0,0.0,0.0,0.0,0.0,0.0,0.0,0.0,0.0,0.0,0.0,0.0,0.0,0.0,0.0,0.0,0.0,0.0,0.0,0.0,0.0,0.0,0.0,0.0,0.0,0.0,0.0,0.0,0.0,0.0,0.0,0.0,0.0,0.0,0.0,0.0,0.0,0.0,0.0,0.0269,0.0899,0.1578,0.226,0.0,0.3652,0.4129,0.3987,0.4082,0.3906,0.3205,0.0,0.0,0.0,0.0,0.0,0.0,0.0,0.0,0.0,0.0,0.0,0.0,0.0,0.0,0.0,0.0,0.0,0.0,0.0,0.0,0.0,0.0,0.0,0.0,0.0,0.0,0.0,0.0,0.0,0.0,0.0,0.0,0.0,0.0,0.0,0.0,0.0,0.0,0.0,0.0,0.0,0.0,0.0,0.0,0.0,0.0,0.0,0.0,0.0,0.0,0.0,0.0,0.0,-0.346,-0.4382,-0.4496,-0.4835,-0.5378,-0.4781,-0.4432,-0.4416,-0.3559,-0.2899,0.0,0.0,0.0,0.0,0.0,0.0,0.0,0.0,0.0,0.0,0.0,0.0,0.0,0.0,0.0,0.0,0.0,0.0,0.0,0.0,0.0,0.0,0.0,0.0,0.0,0.0,0.0,0.0,0.0,0.0,0.0,0.0,0.0,0.0,0.0,0.0,0.0,0.0,0.0,0.0,0.0,0.0261,0.0942,0.1191,0.0,0.0,0.3385,0.3699,0.4234,0.4111,0.3741,0.3089,0.2692,0.0,0.0,0.0,0.0,0.0,0.0,0.0,0.0,0.0,0.0,0.0,0.0,0.0,0.0,0.0,0.0,0.0,0.0,0.0,0.0,0.0,0.0,0.0,0.0,0.0,0.0,0.0,0.0,0.0,0.0,0.0,0.0,0.0,0.0,0.0,0.0,0.0,0.0,0.0,0.0,0.0,0.0,0.0,0.0,0.0,0.0,0.0,0.0,0.0,0.0,0.0,0.0,-0.3323,-0.4389,-0.4395,-0.4633,-0.5074,-0.4377,-0.3928,-0.3772,-0.3072,-0.254,0.0,0.0,0.0,0.0,0.0,0.0,0.0,0.0,0.0,0.0,0.0,0.0,0.0,0.0,0.0,0.0,0.0,0.0,0.0,0.0,0.0,0.0,0.0,0.0,0.0,0.0,0.0,0.0,0.0,0.0,0.0,0.0,0.0,0.0,0.0,0.0,0.0,0.0,0.0,0.0,0.0,0.0199,0.0685,0.0885,0.1388,0.253,0.2792,0.3074,0.3718,0.3501,0.3107,0.2655,0.0,0.0,0.0,0.0,0.0,0.0,0.0,0.0,0.0,0.0,0.0,0.0,0.0,0.0,0.0,0.0,0.0,0.0,0.0,0.0,0.0,0.0,0.0,0.0,0.0,0.0,0.0,-0.2581,0.0,0.0,-0.2204,0.0,0.0,0.0,0.0,0.0,0.0,0.0,0.0,0.0,0.0,0.0,0.0,0.0,0.0,0.0,0.0,0.0,0.0,0.0,0.0,0.0,0.0,-0.334,-0.4375,-0.4396,-0.4464,-0.4594,-0.4215,-0.3772,-0.3339,-0.292,-0.2528,-0.219,0.0,0.0,0.0,0.0,0.0,0.0,0.0,0.0,0.0,0.0,0.0,0.0,0.0,0.0,0.0,0.0,0.0,0.0,0.0,0.0,0.0,0.0,0.0,0.0,0.0,0.0,0.0033,0.0,0.0,0.0,0.0,0.0,0.0,0.0,0.0,0.0,0.0,0.0,0.0,0.0,0.0,0.0,0.063,0.1088,0.1201,0.1763,0.2225,0.2285,0.2161,0.1984,0.0,0.0,0.0,0.0,0.0,0.0,0.0,0.0,0.0,0.0,0.0,0.0,0.0,0.0,0.0,0.0,0.0,0.0,0.0,0.0,0.0,0.0,0.0,0.0,0.0,0.0,0.0,-0.3624,-0.3334,0.0,0.0,0.0,0.0,0.0,0.0,0.0,0.0,0.0,0.0,0.0,-0.4549,-0.4726,0.0,0.0,0.0,0.0,0.0,0.0,0.0,0.0,0.0,0.0,0.0,0.0,-0.3368,-0.41,-0.4216,-0.4376,-0.459,-0.3897,-0.3458,-0.3311,-0.2907,-0.2462,-0.1947,0.0,0.0,0.0,0.0,0.0,0.0,0.0,0.0,0.0,0.0,0.0,0.0,0.0,0.0,0.0,0.0,0.0,0.0,0.0,0.0,0.0,0.0,0.0,0.0,0.0,0.0301,0.0,0.0,0.0,0.0,0.0,0.0,0.0,0.0,0.0,0.0,0.0,0.0,0.0,0.0,0.0,0.0,0.0195,0.0532,0.0,0.0,0.0,0.0,0.0,0.0,0.0,0.0,0.0,0.0,0.0,0.0,0.0,0.0,0.0144,0.0142,0.0057,0.0,0.0,0.0,0.0,0.0,0.0,0.0,0.0,0.0,0.0,0.0,0.0,0.0,0.0,0.0,0.0,-0.4611,-0.437,-0.4256,0.0,0.0,0.0,0.0,0.0,0.0,0.0,0.0,-0.427,-0.4491,-0.4822,-0.4716,-0.4865,0.0,-0.5647,-0.5547,0.0,0.0,0.0,0.0,0.0,0.0,0.0,0.0,-0.3482,-0.4237,-0.4365,-0.44,-0.436,-0.3832,-0.3409,-0.3097,-0.2791,-0.2367,-0.1808,-0.1048,-0.0663,0.0,0.0,0.0,0.0,0.0,0.0,0.0,0.0,0.0,0.0,0.0,0.0,0.0,0.0,0.0,0.0,0.0,0.0,0.0,0.0,0.0,0.0,0.0,0.0187,0.0,0.0,0.0,0.0,0.0,0.0,0.0,0.0,0.0,0.0,0.0,0.0,0.0,0.0,0.0,0.0,0.0,0.0,0.0,0.0,0.0,0.0,0.0,0.1068,0.0756,0.0582,0.0351,0.0047,0.0,0.0,0.0,0.0,0.0,0.0,0.0,0.0,0.0,0.0,0.0,0.0,0.0,0.0,0.0,0.0,0.0,0.0,-0.7395,0.0,0.0,0.0,-0.5808,-0.5687,0.0,-0.5406,0.0,0.0,0.0,0.0,-0.5002,-0.5208,0.0,0.0,-0.4991,-0.4888,-0.487,-0.4581,-0.4428,-0.4485,-0.5323,-0.56,-0.5375,-0.569,0.0,0.0,0.0,0.0,0.0,0.0,-0.3682,-0.4736,-0.4767,-0.4527,-0.4041,-0.3965,-0.3557,-0.2742,-0.2553,-0.2261,-0.1792,-0.1316,-0.0856,-0.0419,-0.0147,0.0,0.0,0.0,0.0,0.0,0.0,0.0,0.0,0.0,0.0,0.0,0.0,0.0,0.0,0.0,0.0,0.0,0.0,0.0,0.0,0.0164,0.0,0.0,0.0,0.0,0.0,0.0,0.0,0.0,0.0,0.0,0.0,0.0,0.0,0.0,0.0,0.0,0.0,0.0,0.0,0.0,0.0,0.0,0.0,0.0,0.0,0.0,0.0,0.0,0.0,0.0,0.0,0.0,0.0,0.0,0.0,0.0,0.0,0.0,0.0,0.0,0.0,0.0,0.0,-1.1092,0.0,0.0,0.0,0.0,-0.8621,-0.8255,-0.8106,-0.7644,-0.7192,-0.6755,-0.6971,0.0,0.0,0.0,0.0,0.0,0.0,-0.4621,-0.5006,-0.451,-0.4479,-0.4879,-0.4794,-0.4863,-0.5069,-0.5788,-0.6097,-0.604,-0.6637,-0.6144,-0.461,0.0,0.0,0.0,0.0,-0.4282,-0.4747,-0.4508,-0.4375,-0.4425,-0.3637,-0.3046,-0.2716,-0.2341,-0.1922,-0.1474,-0.1043,-0.0592,-0.0146,-0.0038,0.0,0.0,0.0,0.0,0.0,0.0,0.0,0.0,0.0,0.0,0.0,0.0,0.0,0.0,0.0,0.0,0.0,0.0,0.0,0.0113,0.0051,0.0,0.0,0.0,0.0,0.0,0.0,0.0,0.0,0.0,0.0,0.0,0.0,0.0,0.0,0.0,0.0,0.0,0.0,0.0,0.0,0.0,0.0,0.0,0.0,0.0,0.0,0.0,0.0,0.0,0.0,0.0,0.0,0.0,0.0,0.0,-0.0507,-0.0683,-0.0204,-0.0468,-0.0674,0.0,0.0,0.0,-1.437,-1.3643,-1.1931,-1.0846,-1.0211,-0.9729,-0.9331,-0.8985,-0.8638,-0.829,-0.7925,-0.8164,-0.7697,-0.6712,-0.6712,0.0,0.0,0.0,-0.5373,-0.5778,-0.5039,-0.4947,-0.537,-0.5173,-0.5155,-0.5314,-0.5726,-0.6022,-0.6253,-0.6711,-0.6396,-0.5392,0.0,-0.4894,-0.4227,-0.4347,-0.46,-0.4962,-0.4515,-0.4284,-0.4281,-0.3382,-0.2866,-0.2774,-0.2458,-0.1962,-0.1321,-0.1065,-0.0636,0.0,0.0,0.0,0.0,0.0,0.0,0.0,0.0,0.0,0.0,0.0,0.0,0.0,0.0,0.0,0.0,0.0,0.0,0.0,0.0,0.0,0.0,0.0,0.0,0.0,0.0,0.0,0.0,0.0,0.0,0.0,0.0,0.0,0.0,0.0,0.0,0.0,0.0,0.0,0.0,0.0,0.0,0.0,0.0,0.0,0.0,0.0,0.0,0.0,0.0,0.0,0.0,0.0,0.0,0.0,-0.029,-0.0411,-0.0058,-0.0985,-0.1715,-0.1183,-0.1178,-0.0989,-0.0157,0.0,0.0,-1.7712,-1.7379,-1.3993,-1.1877,-1.0764,-1.0912,-1.0327,-0.9281,-0.9224,-0.9164,-0.9106,-0.913,-0.8895,-0.845,-0.7853,0.0,-0.6848,-0.681,-0.6899,-0.7187,-0.6166,-0.5887,-0.6173,-0.5647,-0.538,-0.5363,-0.5424,-0.5701,-0.6214,-0.6324,-0.6315,-0.6251,-0.6119,-0.5778,-0.5275,-0.4731,-0.4725,-0.5244,-0.4671,-0.4179,-0.3764,-0.322,-0.2934,-0.2889,-0.2771,-0.227,-0.1355,-0.1305,-0.0897,0.0,0.0,0.0,0.0,0.0,0.0,0.0,0.0,0.0,0.0,0.0,0.0,0.0,0.0,0.0,0.0,0.0,0.0,0.0,0.0,0.0,0.0,0.0,0.0,0.0,0.0,-0.0019,-0.01,0.0,-0.0091,-0.0114,0.0,0.0,-0.0026,0.0,0.0,-0.0084,-0.0084,-0.0112,-0.0168,0.0,-0.0084,0.0,0.0,0.0,0.0,0.0,0.0,0.0,0.0,0.0,0.0,0.0,0.0,0.0,-0.0649,-0.1075,-0.04,-0.1605,-0.2596,-0.249,-0.1897,-0.1034,0.0,0.0,0.0,-1.7848,-1.7165,-1.6311,-1.5286,-1.4169,-1.2977,-1.2143,-1.1563,-1.1152,-1.0614,-1.0005,-1.0252,-0.9977,-0.9268,-0.8526,-0.8228,-0.8242,-0.71,-0.6848,-0.7273,-0.6223,-0.5869,-0.6186,-0.605,-0.5974,-0.5997,-0.645,-0.6614,-0.6535,-0.7167,-0.7253,-0.6854,-0.7009,-0.6409,-0.5062,-0.5047,-0.5047,-0.4998,-0.4398,-0.3878,-0.3436,-0.3283,-0.3118,-0.2899,-0.2855,-0.2379,-0.1358,-0.1305,-0.0896,0.0,0.0,0.0,0.0,0.0,0.0,0.0,0.0,0.0,0.0,0.0,0.0,0.0,0.0,0.0,0.0,0.0,0.0,0.0,0.0,0.0,0.0,0.0,0.0,0.0,0.0,-0.0213,-0.078,-0.085,-0.0915,-0.1133,-0.1437,-0.1241,-0.0138,-0.0972,-0.1481,-0.0923,-0.0839,-0.1062,-0.1563,-0.1174,-0.0839,-0.0783,-0.0364,0.0,0.0,0.0,0.0,0.0,0.0,0.0,0.0,0.0,0.0,0.0,-0.0153,-0.088,-0.2325,-0.2229,-0.1756,-0.1907,-0.1624,-0.1022,0.0,0.0,0.0,-1.8845,-1.8229,-1.7932,-1.7357,-1.6513,-1.466,-1.3468,-1.2836,-1.2519,-1.2136,-1.166,-1.1577,-1.1078,-1.0247,-0.9714,-0.9381,-0.9231,-0.8401,-0.8026,-0.8032,-0.7423,-0.7077,-0.6966,-0.6972,-0.6966,-0.6972,-0.729,-0.7358,-0.7226,-0.7684,-0.7739,-0.7406,-0.7477,-0.6763,-0.5318,-0.5269,-0.5106,-0.4682,-0.4101,-0.3701,-0.3449,-0.3343,-0.3199,-0.2993,-0.2922,-0.239,-0.1358,-0.1305,-0.0896,0.0,0.0,0.0,0.0,0.0,0.0,0.0,0.0,0.0,0.0,0.0,0.0,0.0,0.0,0.0,0.0,0.0,0.0,0.0,0.0,0.0,0.0,0.0,-0.0132,-0.0447,-0.0472,-0.0795,-0.1511,-0.1595,-0.1725,-0.2123,-0.2172,-0.1981,-0.1426,-0.1842,-0.2174,-0.2065,-0.212,-0.2148,-0.2148,-0.1842,-0.148,-0.1146,-0.0839,-0.0476,-0.0084,0.0,0.0,0.0,0.0,0.0,0.0,0.0,0.0,0.0,-0.0313,-0.0808,-0.1786,-0.1715,-0.1274,-0.1007,-0.084,-0.0538,0.0,0.0,0.0,-2.0119,-1.9648,-1.9094,-1.8581,-1.8065,-1.6198,-1.4805,-1.3798,-1.381,-1.3697,-1.3494,-1.2939,-1.2225,-1.1367,-1.1135,-1.0731,-1.023,-1.008,-0.9719,-0.919,-0.9128,-0.8807,-0.8276,-0.8276,-0.8228,-0.8156,-0.8139,-0.8088,-0.7965,-0.8005,-0.7985,-0.7875,-0.7689,-0.6984,-0.5764,-0.5461,-0.5007,-0.4303,-0.3836,-0.36,-0.36,-0.3425,-0.3276,-0.3108,-0.298,-0.2407,-0.136,-0.1305,-0.0896,0.0,0.0,0.0,0.0,0.0,0.0,0.0,0.0,0.0,0.0,0.0,0.0,0.0,0.0,0.0,0.0,0.0,0.0,0.0,-0.0181,-0.0246,-0.0138,-0.0219,-0.0557,-0.1168,-0.125,-0.1539,-0.2239,-0.2327,-0.2565,-0.3128,-0.279,-0.2651,-0.2877,-0.2679,-0.276,-0.3151,-0.3372,-0.3262,-0.2676,-0.2425,-0.2091,-0.1341,-0.1258,-0.0812,0.0,0.0,0.0,0.0,0.0,0.0,0.0,0.0,0.0,0.0,-0.0541,-0.0882,-0.0268,-0.0772,-0.0873,-0.0404,-0.0202,0.0,0.0,0.0,0.0,-2.041,-1.9693,-1.9573,-1.9228,-1.8724,-1.8318,-1.7293,-1.591,-1.5915,-1.528,-1.4223,-1.3963,-1.3478,-1.278,-1.2341,-1.2116,-1.1956,-1.1041,-1.0686,-1.0745,-1.032,-1.0165,-1.0258,-1.0249,-0.9981,-0.9456,-0.9431,-0.9062,-0.8328,-0.853,-0.8372,-0.7925,-0.8134,-0.7393,-0.5789,0.0,0.0,0.0,-0.3663,-0.36,-0.36,-0.3576,-0.3405,-0.3114,-0.3074,0.0,-0.138,-0.1305,-0.0897,0.0,0.0,0.0,0.0,0.0,0.0,0.0,0.0,0.0,0.0,0.0,0.0,0.0,0.0,0.0,0.0,0.0,0.0,0.0,-0.1075,-0.1554,-0.0964,-0.1447,-0.1834,-0.1962,-0.2006,-0.2303,-0.3053,-0.3136,-0.3372,-0.4101,-0.4125,-0.3766,-0.3155,-0.3599,-0.3846,-0.3511,-0.3901,-0.4211,-0.4042,-0.3456,-0.2815,-0.2119,-0.1118,-0.0308,-0.0028,0.0,0.0,0.0,0.0,0.0,0.0,0.0,0.0,0.0,-0.0131,-0.0468,-0.0872,-0.0638,-0.0437,-0.094,-0.0471,0.0,0.0,0.0,0.0,-2.0498,-1.9708,-1.9723,-1.9548,0.0,-1.9314,-1.8841,-1.8032,-1.7529,-1.6881,-1.6192,-1.555,-1.5109,-1.4767,-1.3631,-1.3143,-1.3109,-1.2233,-1.1719,-1.1468,-1.1202,-1.0987,-1.0813,-1.0813,-1.0466,-0.9814,-0.9795,-0.9386,-0.8655,-0.8738,-0.8625,-0.8338,-0.8037,-0.7256,-0.6062,-0.5203,-0.4378,-0.3604,-0.36,-0.36,-0.36,-0.36,-0.3473,-0.3226,-0.3118,0.0,0.0,0.0,0.0,0.0,0.0,0.0,0.0,0.0,0.0,0.0,0.0,0.0,0.0,0.0,0.0,0.0,0.0,0.0,0.0,0.0,-0.0163,-0.0535,-0.1568,-0.2053,-0.171,-0.1968,-0.2347,-0.2682,-0.2769,-0.3091,-0.3776,-0.3901,-0.4042,-0.4405,-0.4491,-0.4267,-0.3821,-0.4156,-0.4349,-0.4042,-0.4236,-0.4491,-0.446,-0.4153,-0.3453,-0.212,-0.1313,-0.056,0.0,0.0,0.0,0.0,0.0,0.0,0.0,0.0,0.0,0.0,0.0,0.0,-0.0471,-0.0269,-0.0135,-0.0505,-0.0303,0.0,0.0,0.0,0.0,-2.0485,-1.9708,-1.9723,-1.9723,-1.9723,-1.9723,-1.9723,-1.9639,-1.8746,0.0,0.0,-1.7203,-1.6634,-1.6375,-1.4733,-1.3956,-1.3909,-1.3214,-1.2584,-1.1996,-1.211,-1.1814,-1.1174,-1.1399,-1.1032,-1.0192,-1.0133,-0.9729,-0.8982,-0.8857,-0.8778,-0.8705,-0.7829,-0.6998,-0.6146,-0.4614,-0.3757,-0.3641,-0.3592,-0.36,-0.36,-0.36,-0.3507,-0.3313,-0.3189,-0.2649,-0.164,-0.1448,-0.0946,0.0,0.0,0.0,0.0,0.0,0.0,0.0,0.0,0.0,0.0,0.0,0.0,0.0,-0.0104,-0.017,-0.017,-0.0062,-0.036,-0.1191,-0.2083,-0.2561,-0.241,-0.2548,-0.2843,-0.3456,-0.3566,-0.3846,-0.4405,-0.4491,-0.446,-0.4491,-0.4491,-0.4491,-0.4463,-0.4463,-0.4491,-0.4491,-0.446,-0.4491,-0.446,-0.4322,-0.3652,-0.2315,-0.1481,-0.0869,0.0,0.0,0.0,0.0,0.0,0.0,0.0,0.0,0.0,0.0,0.0,0.0,0.0,0.0,0.0,0.0,0.0,0.0,0.0,0.0,0.0,-2.0479,-1.9723,-1.9723,-1.9723,-1.9723,-1.9723,-1.9723,-1.969,-1.9548,-1.9483,-1.941,-1.8361,-1.7363,-1.6421,-1.5138,-1.4571,-1.4491,-1.3406,-1.2856,-1.2774,-1.329,-1.3184,-1.2691,-1.3663,-1.3219,-1.1607,-1.1456,-1.083,-0.971,-0.9061,-0.8778,-0.8699,-0.8006,-0.6892,-0.5491,-0.4351,-0.3782,-0.3781,-0.3665,-0.36,-0.36,-0.36,-0.3507,-0.3316,-0.3286,-0.274,-0.1649,-0.1577,-0.1071,0.0,0.0,0.0,0.0,0.0,0.0,0.0,0.0,0.0,0.0,0.0,0.0,0.0,-0.0477,-0.0776,-0.0754,-0.0287,-0.0503,-0.1762,-0.321,-0.3923,-0.3379,-0.3751,-0.4125,-0.4267,-0.4322,-0.4377,-0.4491,-0.4491,-0.4491,-0.4491,-0.4491,-0.4491,-0.4491,-0.4491,-0.4491,-0.4491,-0.4491,-0.4491,-0.4405,-0.3959,-0.3511,-0.2954,-0.1425,-0.0595,-0.0609,-0.036,0.0,0.0,0.0,0.0,0.0,0.0,0.0,0.0,0.0,0.0,0.0,0.0,0.0,0.0,0.0,0.0,0.0,0.0,0.0,-2.0277,-1.9726,-1.9723,-1.9723,-1.9723,-1.9723,-1.9723,-1.9723,-1.9723,-1.9713,-1.962,-1.886,-1.7773,-1.6456,-1.555,-1.496,-1.464,-1.3454,-1.2915,-1.2929,-1.32,-1.3152,-1.2954,-1.3443,-1.2851,-1.1341,-1.1493,-1.0787,-0.9335,-0.8956,-0.8593,-0.8156,-0.7069,-0.5963,-0.49,-0.4239,-0.3893,-0.391,-0.3693,-0.36,-0.36,-0.36,-0.357,-0.3455,-0.3356,-0.28,-0.1767,-0.1646,-0.1117,-0.0039,0.0,0.0,0.0,0.0,0.0,0.0,0.0,0.0,0.0,0.0,-0.0149,-0.0457,-0.0814,-0.1295,-0.1939,-0.138,-0.1471,-0.2611,-0.3821,-0.4349,-0.4042,-0.4294,-0.4491,-0.4491,-0.4491,-0.4491,-0.4491,-0.4491,-0.4491,-0.4491,-0.4491,-0.4491,-0.4491,-0.4491,-0.4491,-0.4491,-0.4491,-0.4491,-0.4491,-0.4211,-0.3652,-0.2924,-0.2538,-0.184,-0.082,-0.0249,0.0,0.0,0.0,0.0,0.0,0.0,0.0,0.0,0.0,0.0,0.0,0.0,0.0,0.0,0.0,0.0,0.0,0.0,0.0,-2.007,-1.9723,-1.9723,-1.9723,-1.969,-1.9566,-1.9584,-1.9708,-1.9723,-1.9723,-1.9636,-1.9132,-1.8142,-1.6871,-1.6063,-1.534,-1.4606,-1.3433,-1.2895,-1.2905,-1.2886,-1.2886,-1.2964,-1.323,-1.2706,-1.1409,-1.1427,-1.0684,-0.9368,-0.8956,-0.8321,-0.7396,-0.5968,-0.4913,-0.4233,-0.3779,-0.3548,-0.3531,-0.3315,-0.3318,-0.3581,-0.36,-0.3556,-0.3388,-0.3245,-0.2652,-0.1674,-0.1501,-0.099,0.0,0.0,0.0,0.0,0.0,0.0,0.0,0.0,0.0,0.0,0.0,-0.027,-0.0885,-0.1168,-0.177,-0.2783,-0.2581,-0.2626,-0.3421,-0.4095,-0.4491,-0.446,-0.4491,-0.4491,-0.4491,-0.4491,-0.4491,-0.4491,-0.4491,-0.4491,-0.4491,-0.4491,-0.4491,-0.4491,-0.4491,-0.4491,-0.4491,-0.4491,-0.4491,-0.4491,-0.4491,-0.3907,-0.321,-0.3531,-0.3156,-0.092,-0.0478,0.0,0.0,0.0,0.0,0.0,0.0,0.0,0.0,0.0,0.0,0.0,0.0,0.0,0.0,0.0,0.0,0.0,0.0,0.0,-2.0054,-1.9744,-1.9723,-1.9723,-1.9654,-1.9188,-1.9262,-1.969,-1.9723,-1.9723,-1.9654,-1.9132,-1.8545,-1.7865,-1.6785,-1.5706,-1.4629,-1.3372,-1.2812,-1.2861,-1.2837,-1.2837,-1.3002,-1.432,-1.4238,-1.2681,-1.1803,-1.1073,-1.0389,-0.9283,-0.8043,-0.6691,-0.5226,-0.4161,-0.344,-0.2609,-0.2212,-0.2188,-0.2027,-0.2505,-0.3518,-0.36,-0.335,-0.2807,-0.2774,-0.2194,-0.1086,-0.0975,-0.0664,0.0,0.0,0.0,0.0,0.0,0.0,0.0,0.0,0.0,0.0,0.0,-0.0342,-0.1013,-0.1636,-0.2301,-0.3185,-0.3576,-0.3846,-0.4105,-0.4355,-0.4484,-0.4491,-0.4491,-0.4491,-0.4491,-0.4491,-0.4491,-0.4491,-0.4491,-0.4491,-0.4491,-0.4491,-0.4491,-0.4491,-0.4491,-0.4491,-0.4491,-0.4491,-0.4491,-0.4491,-0.4491,-0.4315,-0.3645,-0.3528,-0.3045,-0.1992,-0.1771,-0.1099,0.0,0.0,0.0,0.0,0.0,0.0,0.0,0.0,0.0,0.0,0.0,0.0,0.0,0.0,0.0,0.0,0.0,0.0,-1.9854,-1.9723,-1.9723,-1.9723,-1.9636,-1.9132,-1.9207,-1.969,-1.9723,-1.9723,-1.969,-1.946,-1.8893,-1.8019,-1.6876,-1.5736,-1.4629,-1.3413,-1.2638,-1.2261,-1.2199,-1.2218,-1.2369,-1.3339,-1.3304,-1.227,-1.1415,-1.0763,-0.9972,-0.8363,-0.6961,-0.5896,-0.4464,-0.3586,-0.3224,-0.2429,-0.2011,-0.1989,-0.1865,-0.2046,-0.2469,-0.2544,-0.2433,-0.2208,-0.2184,-0.1786,-0.1006,-0.0895,-0.0627,0.0,0.0,0.0,0.0,0.0,0.0,0.0,0.0,-0.0135,-0.0515,-0.0538,-0.1003,-0.2084,-0.2472,-0.2991,-0.3745,-0.4105,-0.4341,-0.4368,-0.4457,-0.4491,-0.4491,-0.4491,-0.4491,-0.4491,-0.4491,-0.4491,-0.4491,-0.4491,-0.4491,-0.4491,-0.4491,-0.4491,-0.4491,-0.4491,-0.4491,-0.4491,-0.4491,-0.4491,-0.4491,-0.4491,-0.444,-0.4253,-0.3825,-0.2944,-0.2014,-0.176,-0.1237,0.0,0.0,0.0,0.0,0.0,0.0,0.0,0.0,0.0,0.0,0.0,0.0,0.0,0.0,0.0,0.0,0.0,0.0,-1.98,-1.9657,-1.9406,-1.9262,-1.9225,-1.8688,-1.8855,-1.9457,-1.9479,-1.9566,-1.9708,-1.9723,-1.9066,-1.7964,-1.7126,-1.6059,-1.4687,-1.3589,-1.2643,-1.1864,-1.1616,-1.1516,-1.1584,-1.2199,-1.2249,-1.1699,-1.0721,-0.9872,-0.9072,-0.7267,-0.6009,-0.5351,-0.4058,-0.3206,-0.2947,-0.2175,-0.1641,-0.1456,-0.1354,-0.1302,-0.1302,-0.1304,-0.1386,-0.1518,-0.1563,-0.1273,-0.0695,-0.0672,-0.0449,0.0,0.0,0.0,0.0,0.0,0.0,0.0,-0.0157,-0.0451,-0.0933,-0.1115,-0.172,-0.2844,-0.3092,-0.3436,-0.4118,-0.4429,-0.4484,-0.4484,-0.4491,-0.4491,-0.4491,-0.4491,-0.4491,-0.4491,-0.4491,-0.4491,-0.4491,-0.4491,-0.4491,-0.4491,-0.4491,-0.4491,-0.4491,-0.4491,-0.4491,-0.4491,-0.4491,-0.4491,-0.4491,-0.4498,-0.45,-0.4419,-0.3909,-0.3133,-0.1921,-0.158,-0.1171,0.0,0.0,0.0,0.0,0.0,0.0,0.0,0.0,0.0,0.0,0.0,0.0,0.0,0.0,0.0,0.0,0.0,0.0,-2.0052,-1.9566,-1.8593,-1.8224,-1.8112,-1.7646,-1.7987,-1.8878,-1.893,-1.9207,-1.9603,-1.9672,-1.8919,-1.7683,-1.7772,-1.6777,-1.4801,-1.3961,-1.2932,-1.1765,-1.1166,-1.0864,-1.0872,-1.1336,-1.1629,-1.1557,-0.9913,-0.8619,-0.7791,-0.6325,-0.5542,-0.5374,-0.4085,-0.301,-0.2313,-0.1586,-0.0822,-0.0317,0.0,0.0,0.0,0.0,-0.0429,-0.0879,-0.094,-0.0672,0.0,0.0,0.0,0.0,0.0,0.0,0.0,0.0,0.0,0.0,-0.0538,-0.0935,-0.1177,-0.1657,-0.234,-0.3097,-0.3247,-0.3496,-0.4341,-0.4477,-0.4487,-0.4491,-0.4491,-0.4491,-0.4491,-0.4491,-0.4491,-0.4491,-0.4491,-0.4491,-0.4491,-0.4491,-0.4491,-0.4491,-0.4491,-0.4491,-0.4491,-0.4491,-0.4491,-0.4491,-0.4491,-0.4491,-0.4467,-0.4463,-0.4222,-0.3838,-0.3534,-0.3292,-0.253,-0.181,-0.1038,0.0,0.0,0.0,0.0,0.0,0.0,0.0,0.0,0.0,0.0,0.0,0.0,0.0,0.0,0.0,0.0,0.0,0.0,-1.9864,-1.9132,-1.8419,-1.7894,-1.7511,-1.7347,-1.7497,-1.7839,-1.8216,-1.8477,-1.8727,-1.9024,-1.8531,-1.739,-1.7511,-1.6502,-1.4732,-1.4063,-1.2822,-1.1283,-1.0914,-1.0568,-1.0159,-0.9923,-1.0307,-1.0822,-0.9548,-0.8188,-0.6988,-0.5977,-0.5269,-0.4783,-0.3898,-0.2982,-0.2204,-0.148,-0.0743,0.0,0.0,0.0,0.0,0.0,-0.0121,-0.0289,-0.0322,-0.0225,0.0,0.0,0.0,0.0,0.0,0.0,0.0,0.0,-0.018,-0.0539,-0.0872,-0.1382,-0.2136,-0.2527,-0.3043,-0.376,-0.3832,-0.3974,-0.4385,-0.4491,-0.4491,-0.4491,-0.4491,-0.4491,-0.4491,-0.4491,-0.4491,-0.4491,-0.4491,-0.4491,-0.4491,-0.4491,-0.4491,-0.4491,-0.4491,-0.4491,-0.4491,-0.4491,-0.4491,-0.4491,-0.4491,-0.446,-0.4397,-0.411,-0.3653,-0.3404,-0.2688,-0.1949,-0.184,-0.1528,0.0,0.0,0.0,0.0,0.0,0.0,0.0,0.0,0.0,0.0,0.0,0.0,0.0,0.0,0.0,0.0,0.0,0.0,0.0,-1.951,-1.8617,-1.8039,-1.7369,-1.6693,-1.6519,-1.6549,-1.6688,-1.7096,-1.7471,-1.7826,-1.8202,-1.7953,-1.734,-1.7073,-1.6139,-1.4744,-1.405,-1.2711,-1.0914,-1.0813,-1.0338,-0.9529,-0.9011,-0.9393,-1.011,-0.9073,-0.7667,-0.6303,-0.5519,-0.4948,-0.4487,-0.3987,-0.3234,-0.2287,-0.1701,-0.0993,0.0,0.0,0.0,0.0,0.0,0.0,0.0,0.024,0.0234,0.0,0.0,0.0,0.0,0.0,0.0,0.0,0.0,-0.0294,-0.0891,-0.1241,-0.1852,-0.2874,-0.3279,-0.3791,-0.4525,-0.4587,-0.4619,-0.4785,-0.4566,-0.4453,-0.4467,-0.4491,-0.4491,-0.4491,-0.4491,-0.4491,-0.4491,-0.4491,-0.4491,-0.4491,-0.4491,-0.4491,-0.4491,-0.4491,-0.4491,-0.4491,-0.4491,-0.4491,-0.4491,-0.4319,-0.4125,-0.4002,-0.347,-0.2844,-0.2721,-0.1892,-0.1232,0.0,0.0,0.0,0.0,0.0,0.0,0.0,0.0,0.0,0.0,0.0,0.0,0.0,0.0,0.0,0.0,0.0,0.0,0.0,0.0,0.0,-1.908,-1.8131,-1.7457,-1.6629,-1.5686,-1.5163,-1.5084,-1.546,-1.5526,-1.6102,-1.6918,-1.7124,-1.7034,-1.7037,-1.6485,-1.5706,-1.4664,-1.3956,-1.2662,-1.0914,-1.0737,-1.0038,-0.8903,-0.8844,-0.904,-0.9599,-0.8252,-0.6865,-0.5624,-0.4948,-0.4543,-0.4487,-0.4377,-0.3541,-0.2204,-0.2007,-0.1367,0.0,0.0,0.0,0.0,0.0,0.0,0.0,0.0631,0.0654,0.0,0.0,0.0,0.0,0.0,0.0,0.0,0.0,-0.0321,-0.1088,-0.1669,-0.2395,-0.3234,-0.3859,-0.4487,-0.517,-0.5328,-0.5298,-0.5375,-0.4843,-0.4472,-0.4587,-0.4625,-0.457,-0.4515,-0.4491,-0.4491,-0.4491,-0.4491,-0.4491,-0.4491,-0.4491,-0.4491,-0.4491,-0.4491,-0.4491,-0.446,-0.4349,-0.4294,-0.4098,-0.3707,-0.3299,-0.3238,-0.2661,-0.1963,-0.1443,-0.1081,-0.0723,0.0,0.0,0.0,0.0,0.0,0.0,0.0,0.0,0.0,0.0,0.0,0.0,0.0,0.0,0.0,0.0,0.0,0.0,0.0,0.0,0.0,-1.9062,-1.8072,-1.7437,-1.6353,-1.5028,-1.4766,-1.4595,-1.4343,-1.4276,-1.4733,-1.5373,-1.5379,-1.5403,-1.5452,-1.525,-1.479,-1.405,-1.3443,-1.231,-1.0939,-1.0346,-0.9684,-0.8956,-0.8778,-0.8639,-0.8157,-0.6854,-0.5964,-0.5456,-0.4814,-0.4491,-0.4436,-0.3987,-0.3234,-0.223,-0.1675,-0.0922,0.0,0.0,0.0,0.0,0.0,0.0,0.0676,0.0504,0.0423,0.0754,0.076,0.0509,0.0,0.0,0.0,0.0,0.0,0.0,-0.1578,-0.1975,-0.2705,-0.3755,-0.4227,-0.4756,-0.5331,-0.5456,-0.573,-0.6109,-0.5743,-0.5319,-0.5238,-0.5324,-0.5246,-0.4653,-0.4491,-0.4491,-0.4491,-0.4491,-0.4491,-0.4491,-0.4491,-0.4491,-0.4491,-0.4491,-0.4211,-0.3683,-0.3569,-0.3511,-0.3095,-0.2734,-0.2555,-0.2447,-0.1927,-0.1441,-0.1107,-0.0749,0.0,0.0,0.0,0.0,0.0,0.0,0.0,0.0,0.0,0.0,0.0,0.0,0.0,0.0,0.0,0.0,0.0,0.0,0.0,0.0,0.0,0.0,-1.9062,-1.8072,-1.7437,-1.6246,-1.4744,-1.4468,-1.4037,-1.3505,-1.3426,-1.3758,-1.4261,-1.4288,-1.4437,-1.4607,-1.4436,-1.4123,-1.3721,-1.2929,-1.1891,-1.0897,-1.0423,-0.9692,-0.885,-0.848,-0.7824,-0.6875,-0.5946,-0.5351,-0.5109,-0.4732,-0.4491,-0.4377,-0.3763,-0.301,-0.2204,-0.148,-0.0727,0.0,0.0,0.0,0.0,0.0,0.0224,0.0586,0.0493,0.0494,0.0724,0.0938,0.0775,0.0,0.0,0.0,0.0,0.0,-0.0495,-0.1456,-0.2064,-0.2713,-0.3755,-0.4484,-0.5167,-0.5764,-0.6167,-0.6497,-0.688,-0.6691,-0.6325,-0.5674,-0.562,-0.5406,-0.468,-0.4491,-0.4491,-0.4491,-0.4491,-0.4491,-0.4491,-0.4491,-0.4491,-0.4432,-0.4211,-0.3624,-0.3012,-0.276,-0.273,-0.2259,-0.1947,-0.1797,-0.1649,-0.1159,0.0,0.0,-0.0395,0.0,0.0,0.0,0.0,0.0,0.0,0.0,0.0,0.0,0.0,0.0,0.0,0.0,0.0,0.0,0.0,0.0,0.0,0.0,0.0,0.0,0.0,-1.9076,-1.8072,-1.7457,-1.6234,-1.4721,-1.412,-1.3529,-1.2968,-1.274,-1.3025,-1.3521,-1.3453,-1.3747,-1.4145,-1.3828,-1.365,-1.3474,-1.2609,-1.1625,-1.1015,-1.0661,-1.0064,-0.885,-0.8156,-0.723,-0.614,-0.5651,-0.5191,-0.4814,-0.457,-0.4491,-0.4405,-0.3652,-0.2984,-0.2148,-0.1452,-0.0643,0.0,0.0,0.0,0.0,0.0,0.0084,0.0168,0.0614,0.0669,0.0419,0.0694,0.0656,0.0,0.0,0.0,0.0,0.0,-0.0334,-0.1034,-0.1755,-0.2541,-0.3421,-0.4652,-0.571,-0.6421,-0.7074,-0.7723,-0.7723,-0.767,-0.709,-0.5864,-0.5706,-0.5355,-0.4736,-0.4491,-0.4491,-0.4491,-0.4491,-0.4491,-0.4491,-0.4491,-0.4491,-0.4377,-0.3821,-0.2954,-0.2174,-0.2035,-0.2068,-0.1805,-0.1382,-0.1111,-0.0962,0.0,0.0,0.0,0.0,0.0,0.0,0.0,0.0,0.0,0.0,0.0,0.0,0.0,0.0,0.0,0.0,0.0,0.0,0.0,0.0,0.0,0.0,0.0,0.0,0.0,0.0,-1.9076,-1.8066,-1.7457,-1.6234,-1.471,-1.405,-1.3467,-1.2798,-1.1783,-1.1873,-1.2159,-1.1796,-1.1796,-1.1911,-1.2808,-1.2856,-1.2487,-1.253,-1.1916,-1.0939,-1.0813,-1.0038,-0.887,-0.8049,-0.7477,-0.6929,-0.5977,-0.5433,-0.5187,-0.4736,-0.4491,-0.4432,-0.3206,-0.2454,-0.2065,-0.0978,-0.0252,0.0,0.0,0.0,0.0,0.0,0.0,0.0755,0.0476,0.0504,0.0671,0.0448,0.0248,0.0,0.0,0.0,0.0,0.0,0.0,-0.0465,-0.1513,-0.2507,-0.3385,-0.4718,-0.5814,-0.6561,-0.7348,-0.7916,-0.8454,-0.848,-0.7771,-0.6686,-0.6281,-0.5792,-0.4814,-0.4491,-0.4491,-0.4491,-0.4491,-0.4491,-0.4491,-0.4491,-0.4491,-0.4405,-0.379,-0.2508,-0.1341,-0.1066,-0.1186,-0.0778,0.0,0.0,0.0,0.0,0.0,0.0,0.0,0.0,0.0,0.0,0.0,0.0,0.0,0.0,0.0,0.0,0.0,0.0,0.0,0.0,0.0,0.0,0.0,0.0,0.0,0.0,0.0,0.0,0.0,-1.9224,-1.8052,-1.7437,-1.6234,-1.4721,-1.405,-1.328,-1.2418,-1.1633,-1.1241,-1.1291,-1.099,-1.0813,-1.0939,-1.194,-1.2212,-1.1947,-1.255,-1.2073,-1.0847,-1.0192,-0.9321,-0.8421,-0.783,-0.753,-0.7128,-0.6091,-0.5565,-0.5351,-0.4814,-0.4515,-0.4208,-0.2954,-0.2232,-0.2093,0.0,0.0,0.0,0.0,0.0,0.0,0.0,0.0,0.0532,0.0196,0.0252,0.0531,0.0224,0.0,0.0,0.0,0.0,0.0,0.0,0.0,0.0,-0.1368,-0.2397,-0.3116,-0.4714,-0.6091,-0.6723,-0.7509,-0.8268,-0.8672,-0.8778,-0.8235,-0.7262,-0.6831,-0.6068,-0.5167,-0.468,-0.4519,-0.4491,-0.4491,-0.4491,-0.4491,-0.4181,-0.4211,-0.407,-0.3259,-0.1898,0.0,0.0,0.0,0.0,0.0,0.0,0.0,0.0,0.0,0.0,0.0,0.0,0.0,0.0,0.0,0.0,0.0,0.0,0.0,0.0,0.0,0.0,0.0,0.0,0.0,0.0,0.0,0.0,0.0,0.0,0.0,0.0,0.0,-1.9457,-1.8052,-1.7518,-1.6277,-1.4755,-1.412,-1.3236,-1.2095,-1.1674,-1.1291,-1.0914,-1.0745,-1.0593,-1.0745,-1.1366,-1.1681,-1.1715,-1.2197,-1.1683,-1.0593,-0.9555,-0.8527,-0.791,-0.7963,-0.7563,-0.6912,-0.6005,-0.5624,-0.5382,-0.4811,-0.4429,-0.3984,-0.2843,-0.2174,-0.1758,0.0,0.0,0.0,0.0,0.0,0.0,0.0,0.0,0.0,0.0,0.0,0.0,0.0,0.0,0.0,0.0,0.0,0.0,0.0,0.0,0.0,-0.1535,-0.2258,-0.2783,-0.4988,-0.6534,-0.6804,-0.7937,-0.8778,-0.8778,-0.8778,-0.8448,-0.7643,-0.7074,-0.6389,-0.5515,-0.4869,-0.4543,-0.4491,-0.4491,-0.4491,-0.4349,-0.379,-0.3539,-0.3965,-0.2235,-0.0984,0.0,0.0,0.0,0.0,0.0,0.0,0.0,0.0,0.0,0.0,0.0,0.0,0.0,0.0,0.0,0.0,0.0,0.0,0.0,0.0,0.0,0.0,0.0,0.0,0.0,0.0,0.0,0.0,0.0,0.0,0.0,0.0,0.0,-1.9446,-1.8072,-1.7973,-1.665,-1.4869,-1.4548,-1.3768,-1.255,-1.1475,-1.0965,-1.0695,-1.0269,-1.0012,-1.0072,-1.0686,-1.1015,-1.1015,-1.1208,-1.0745,-1.0012,-0.9237,-0.8421,-0.7937,-0.8129,-0.8049,-0.7343,-0.6691,-0.6064,-0.5492,-0.4811,-0.4153,-0.3511,-0.276,-0.1898,-0.1285,0.0,0.0,0.0,0.0,0.0,0.0,0.0,0.0,0.0,0.0,0.0,0.0,0.0,0.0,0.0,0.0,0.0,0.0,0.0,0.0,-0.1285,-0.1842,-0.2452,-0.3398,-0.5124,-0.6615,-0.6804,-0.7984,-0.8778,-0.8778,-0.8857,-0.8474,-0.7883,-0.753,-0.6907,-0.5651,-0.4893,-0.457,-0.4491,-0.4501,-0.4498,-0.4349,-0.379,-0.3067,-0.2272,-0.1627,-0.0816,0.0,0.0,0.0,0.0,0.0,0.0,0.0,0.0,0.0,0.0,0.0,0.0,0.0,0.0,0.0,0.0,0.0,0.0,0.0,0.0,0.0,0.0,0.0,0.0,0.0,0.0,0.0,0.0,0.0,0.0,0.0,0.0,0.0,-1.9431,-1.8125,-1.7806,-1.6511,-1.4824,-1.4365,-1.3555,-1.2359,-1.1275,-1.0618,-1.0244,-0.964,-0.9335,-0.9387,-1.0012,-1.0338,-1.0338,-1.0338,-1.0167,-0.9607,-0.8837,-0.8076,-0.7723,-0.767,-0.7509,-0.7095,-0.6416,-0.5846,-0.541,-0.4787,-0.4125,-0.3345,-0.2565,-0.1842,-0.109,0.0,0.0,0.0,0.0,0.0,0.0,0.0,0.0,0.0,0.0,0.0,0.0,0.0,0.0,0.0,0.0,0.0,0.0,0.0,0.0,-0.1006,-0.1924,-0.2504,-0.3605,-0.5284,-0.675,-0.7128,-0.8435,-0.9047,-0.9309,-0.9361,-0.9249,-0.8778,-0.8302,-0.753,-0.5733,-0.4897,-0.4574,-0.4505,-0.4559,-0.4563,-0.4342,-0.3511,-0.251,-0.1603,-0.1007,-0.0499,0.0,0.0,0.0,0.0,0.0,0.0,0.0,0.0,0.0,0.0,0.0,0.0,0.0,0.0,0.0,0.0,0.0,0.0,0.0,0.0,0.0,0.0,0.0,0.0,0.0,0.0,0.0,0.0,0.0,0.0,0.0,0.0,0.0,-1.9372,-1.8046,-1.7356,-1.616,-1.4732,-1.4073,-1.3174,-1.2021,-1.1241,-1.0695,-0.9917,-0.9263,-0.9166,-0.9106,-0.9413,-0.9607,-0.9444,-0.9228,-0.8993,-0.881,-0.8004,-0.7391,-0.7122,-0.6745,-0.6394,-0.6258,-0.5846,-0.5515,-0.5164,-0.4649,-0.379,-0.3151,-0.2399,-0.1563,-0.0895,0.0,0.0,0.0,0.0,0.0,0.0,0.0,0.0,0.0,0.0,0.0,0.0,0.0,0.0,0.0,0.0,0.0,0.0,0.0,0.0,0.0,-0.1424,-0.2613,-0.374,-0.5389,-0.6939,-0.7765,-0.9007,-0.9788,-0.9935,-0.9987,-0.9858,-0.9425,-0.8771,-0.753,-0.5869,-0.4952,-0.4588,-0.4545,-0.4623,-0.4658,-0.4342,-0.3283,-0.2478,-0.1676,-0.1091,-0.0578,0.0,0.0,0.0,0.0,0.0,0.0,0.0,0.0,0.0,0.0,0.0,0.0,0.0,0.0,0.0,0.0,0.0,0.0,0.0,0.0,0.0,0.0,0.0,0.0,0.0,0.0,0.0,0.0,0.0,0.0,0.0,0.0,0.0,-1.9084,-1.8013,-1.697,-1.5816,-1.4698,-1.405,-1.3409,-1.2657,-1.1922,-1.1233,-1.0568,-0.9917,-0.9588,-0.9484,-0.9061,-0.8659,-0.8243,-0.7812,-0.7412,-0.7353,-0.688,-0.6578,-0.6113,-0.5842,-0.5437,-0.5113,-0.5136,-0.5191,-0.4673,-0.3932,-0.3317,-0.2452,-0.173,-0.0979,-0.0448,0.0,0.0,0.0,0.0,0.0,0.0,0.0,0.0,0.0,0.0,0.0,0.0,0.0,0.0,0.0,0.0,0.0,0.0,0.0,0.0,0.0,-0.1369,-0.2696,-0.4094,-0.5638,-0.716,-0.8324,-0.9384,-1.0115,-1.0415,-1.0415,-1.0269,-0.9366,-0.821,-0.6858,-0.648,-0.5254,-0.4671,-0.4638,-0.4709,-0.4735,-0.4614,-0.4069,-0.3077,-0.2155,-0.1439,0.0,0.0,0.0,0.0,0.0,0.0,0.0,0.0,0.0,0.0,0.0,0.0,0.0,0.0,0.0,0.0,0.0,0.0,0.0,0.0,0.0,0.0,0.0,0.0,0.0,0.0,0.0,0.0,0.0,0.0,0.0,0.0,0.0,0.0,-1.8807,-1.8033,-1.7203,-1.6232,-1.5186,-1.4514,-1.392,-1.3242,-1.2267,-1.1441,-1.0762,-1.0115,-0.9588,-0.929,-0.9015,-0.8401,-0.7643,-0.6939,-0.6615,-0.6561,-0.6199,-0.5896,-0.5433,-0.516,-0.4842,-0.4653,-0.4814,-0.4869,-0.4463,-0.3763,-0.2954,-0.2202,-0.1452,-0.0727,0.0,0.0,0.0,0.0,0.0,0.0,0.0,0.0,0.0,0.0,0.0,0.0,0.0,0.0,0.0,0.0,0.0,0.0,0.0,0.0,0.0,0.0,-0.1396,-0.286,-0.4306,-0.5792,-0.7353,-0.9058,-0.9902,-1.061,-1.12,-1.1375,-1.0804,-0.9321,-0.8164,-0.6885,-0.6588,-0.5317,-0.4703,-0.4696,-0.4758,-0.4843,-0.4867,-0.4706,-0.3791,-0.2618,-0.1761,0.0,0.0,0.0,0.0,0.0,0.0,0.0,0.0,0.0,0.0,0.0,0.0,0.0,0.0,0.0,0.0,0.0,0.0,0.0,0.0,0.0,0.0,0.0,0.0,0.0,0.0,0.0,0.0,0.0,0.0,0.0,0.0,0.0,0.0,-1.8593,-1.8066,-1.7401,-1.6532,-1.561,-1.4937,-1.4422,-1.3815,-1.2769,-1.1904,-1.1132,-1.0389,-0.9666,-0.9028,-0.8501,-0.7969,-0.7396,-0.6561,-0.61,-0.5937,-0.5574,-0.5273,-0.5136,-0.4842,-0.4519,-0.4543,-0.4543,-0.4491,-0.4322,-0.3511,-0.2785,-0.2071,-0.1374,-0.0622,0.0,0.0,0.0,0.0,0.0,0.0,0.0,0.0,0.0,0.0,0.0,0.0,0.0,0.0,0.0,0.0,0.0,0.0,0.0,0.0,0.0,-0.0587,-0.1591,-0.2938,-0.4518,-0.5792,-0.7566,-0.974,-1.0458,-1.1166,-1.1783,-1.194,-1.1417,-0.9263,-0.7985,-0.7209,-0.6644,-0.5409,-0.4812,-0.4772,-0.4901,-0.4958,-0.5077,-0.4878,-0.4219,-0.315,-0.2113,0.0,0.0,0.0,0.0,0.0,0.0,0.0,0.0,0.0,0.0,0.0,0.0,0.0,0.0,0.0,0.0,0.0,0.0,0.0,0.0,0.0,0.0,0.0,0.0,0.0,0.0,0.0,0.0,0.0,0.0,0.0,0.0,0.0,0.0,-1.8587,-1.7999,-1.697,-1.6154,-1.5588,-1.4983,-1.4709,-1.4514,-1.3828,-1.3202,-1.2327,-1.1249,-1.0364,-0.9418,-0.7765,-0.702,-0.6475,-0.5769,-0.5199,-0.5144,-0.4924,-0.4814,-0.4653,-0.4598,-0.4491,-0.4491,-0.4491,-0.4491,-0.4181,-0.3121,-0.2348,-0.1911,-0.0891,0.0,0.0,0.0,0.0,0.0,0.0,0.0,0.0,0.0,0.0,0.0,0.0,0.0,0.0,0.0,0.0,0.0,0.0,0.0,0.0,-0.0671,-0.1284,-0.1758,-0.2339,-0.3136,-0.4984,-0.6207,-0.7821,-0.9938,-1.0737,-1.15,-1.2015,-1.1841,-1.0939,-0.9075,-0.808,-0.7452,-0.6772,-0.5618,-0.5093,-0.4961,-0.5019,-0.5159,-0.5257,-0.5175,-0.4509,-0.3423,-0.2309,-0.1261,0.0,0.0,0.0,0.0,0.0,0.0,0.0,0.0,0.0,0.0,0.0,0.0,0.0,0.0,0.0,0.0,0.0,0.0,0.0,0.0,0.0,0.0,0.0,0.0,0.0,0.0,0.0,0.0,0.0,0.0,0.0,0.0,0.0,-1.8598,-1.8046,-1.7246,-1.6608,-1.6051,-1.5466,-1.5208,-1.5096,-1.456,-1.3747,-1.2846,-1.2263,-1.1174,-0.9747,-0.8297,-0.762,-0.7069,-0.6122,-0.5441,-0.5081,-0.5003,-0.4842,-0.457,-0.4491,-0.4491,-0.4543,-0.4491,-0.4491,-0.4015,-0.3047,-0.2051,-0.1495,0.0,0.0,0.0,0.0,0.0,0.0,0.0,0.0,0.0,0.0,0.0,0.0,0.0,0.0,0.0,0.0,0.0,0.0,-0.0308,0.0,0.0,-0.1481,-0.2202,-0.3398,-0.347,-0.4146,-0.5368,-0.6541,-0.8396,-1.0041,-1.0838,-1.12,-1.1792,-1.1493,-1.0635,-0.9289,-0.8052,-0.7343,-0.6905,-0.5763,-0.5256,-0.5049,-0.5123,-0.5233,-0.5315,-0.5272,-0.4815,-0.368,-0.2514,-0.1413,0.0,0.0,0.0,0.0,0.0,0.0,0.0,0.0,0.0,0.0,0.0,0.0,0.0,0.0,0.0,0.0,0.0,0.0,0.0,0.0,0.0,0.0,0.0,0.0,0.0,0.0,0.0,0.0,0.0,0.0,0.0,0.0,0.0,-1.859,-1.806,-1.7504,-1.6993,-1.6466,-1.6017,-1.582,-1.5754,-1.5197,-1.4389,-1.3551,-1.298,-1.1713,-1.0228,-0.9252,-0.8547,-0.7886,-0.7192,-0.633,-0.5783,-0.5406,-0.5085,-0.4759,-0.4598,-0.4787,-0.4732,-0.4842,-0.4733,-0.4089,-0.3086,-0.1924,-0.1323,-0.0512,0.0,0.0,0.0,0.0,0.0,0.0,0.0,0.0,0.0,0.0,0.0,0.0,0.0,0.0,0.0,0.0,0.0,-0.0672,-0.1236,-0.1878,-0.2391,-0.319,-0.42,-0.4567,-0.4897,-0.5813,-0.689,-0.8606,-0.9917,-1.0852,-1.1054,-1.1047,-1.0844,-1.0252,-0.9147,-0.8183,-0.7426,-0.6801,-0.5736,-0.5329,-0.5179,-0.5209,-0.5274,-0.5292,-0.511,-0.455,-0.3345,-0.2249,-0.1388,0.0,0.0,0.0,0.0,0.0,0.0,0.0,0.0,0.0,0.0,0.0,0.0,0.0,0.0,0.0,0.0,0.0,0.0,0.0,0.0,0.0,0.0,0.0,0.0,0.0,0.0,0.0,0.0,0.0,0.0,0.0,0.0,0.0,-1.8593,-1.8044,-1.7518,-1.6972,-1.6513,-1.6479,-1.6436,-1.6303,-1.5776,-1.5443,-1.4903,-1.3658,-1.2205,-1.0914,-1.0163,-0.9463,-0.8659,-0.7876,-0.6977,-0.6099,-0.546,-0.53,-0.5113,-0.5222,-0.5473,-0.5485,-0.5506,-0.525,-0.4508,-0.3457,-0.2552,-0.1946,-0.0865,0.0,0.0,0.0,0.0,-0.0495,-0.0791,-0.0684,-0.0288,0.0,0.0,0.0,0.0,0.0,0.0,0.0,0.0,0.0,-0.0874,-0.1691,-0.2547,-0.3222,-0.4036,-0.4697,-0.5327,-0.5559,-0.6043,-0.6853,-0.8256,-0.9609,-1.0396,-1.0562,-1.0232,-1.0641,-1.0009,-0.8661,-0.7706,-0.7179,-0.6491,-0.5764,-0.5365,-0.5281,-0.532,-0.5341,-0.5176,-0.4743,-0.4115,-0.2945,-0.2058,-0.1367,0.0,0.0,0.0,0.0,0.0,0.0,0.0,0.0,0.0,0.0,0.0,0.0,0.0,0.0,0.0,0.0,0.0,0.0,0.0,0.0,0.0,0.0,0.0,0.0,0.0,0.0,0.0,0.0,0.0,0.0,0.0,0.0,0.0,-1.8106,-1.7557,-1.7042,-1.6689,-1.6513,-1.6513,-1.6513,-1.6466,-1.6259,-1.584,-1.5373,-1.4367,-1.3263,-1.2254,-1.1769,-1.099,-1.0008,-0.9285,-0.8331,-0.7596,-0.7047,-0.6465,-0.6177,-0.6005,-0.6288,-0.6439,-0.6449,-0.6184,-0.5535,-0.4312,-0.3671,-0.2912,-0.1659,0.0,0.0,-0.1532,-0.1573,-0.1443,-0.1372,-0.1059,-0.0843,0.0,0.0,0.0,0.0,0.0,0.0,0.0,0.0,0.0,0.0,-0.2062,-0.2837,-0.3653,-0.4433,-0.4951,-0.5472,-0.5816,-0.5944,-0.6628,-0.7507,-0.8351,-0.9038,-0.9278,-0.9127,-0.9639,-0.9258,-0.8185,-0.7035,-0.6367,-0.6566,-0.5869,-0.5378,-0.5392,-0.5395,-0.5395,-0.5166,-0.4767,-0.3924,-0.289,-0.2305,-0.1707,0.0,0.0,0.0,0.0,0.0,0.0,0.0,0.0,0.0,0.0,0.0,0.0,0.0,0.0,0.0,0.0,0.0,0.0,0.0,0.0,0.0,0.0,0.0,0.0,0.0,0.0,0.0,0.0,0.0,0.0,0.0,0.0,0.0,-1.8106,-1.7714,-1.702,-1.6637,-1.65,-1.6513,-1.6513,-1.6513,-1.65,-1.6092,-1.5372,-1.5028,-1.4423,-1.3643,-1.3348,-1.2778,-1.1769,-1.0981,-0.9969,-0.9075,-0.8199,-0.7486,-0.6961,-0.6836,-0.7078,-0.7347,-0.7428,-0.7169,-0.7024,-0.5736,-0.5073,-0.4249,-0.3057,-0.2638,-0.246,-0.2978,-0.2976,-0.2544,-0.2172,-0.1498,-0.1273,0.0,0.0,0.0,0.0,0.0,0.0,0.0,0.0,0.0,-0.1106,-0.1907,-0.2646,-0.3458,-0.4411,-0.4858,-0.5246,-0.5708,-0.5868,-0.644,-0.6989,-0.7722,-0.7944,-0.8019,-0.8123,-0.8645,-0.8454,-0.7433,-0.6209,-0.5693,-0.6309,-0.5719,-0.5395,-0.5395,-0.5395,-0.5399,-0.5226,-0.4834,-0.3871,-0.2909,-0.2318,0.0,0.0,0.0,0.0,0.0,0.0,0.0,0.0,0.0,0.0,0.0,0.0,0.0,0.0,0.0,0.0,0.0,0.0,0.0,0.0,0.0,0.0,0.0,0.0,0.0,0.0,0.0,0.0,0.0,0.0,0.0,0.0,0.0,0.0,-1.8817,-1.8735,-1.7686,-1.6972,-1.6586,-1.6522,-1.6513,-1.6522,-1.6565,-1.621,-1.5724,-1.565,-1.5444,-1.4869,-1.4778,-1.4148,-1.3436,-1.272,-1.1585,-1.0101,-0.9231,-0.8047,-0.7631,-0.7711,-0.8408,-0.8203,-0.8421,-0.8645,-0.8625,-0.6634,-0.6033,-0.5694,-0.4569,-0.3529,-0.2909,-0.3578,-0.3511,-0.2843,-0.2778,-0.2104,-0.1467,0.0,0.0,0.0,0.0,0.0,0.0,0.0,0.0,0.0,0.0,-0.1405,-0.1695,-0.3011,-0.3848,-0.4153,-0.4724,-0.5068,-0.5206,-0.6371,-0.6777,-0.6703,-0.6607,-0.6777,-0.7305,-0.7675,-0.7668,-0.6558,-0.5914,-0.5493,-0.5512,-0.5489,-0.5476,-0.546,-0.5474,-0.5454,-0.5321,-0.4794,-0.3851,-0.2921,-0.2058,0.0,0.0,0.0,0.0,0.0,0.0,0.0,0.0,0.0,0.0,0.0,0.0,0.0,0.0,0.0,0.0,0.0,0.0,0.0,0.0,0.0,0.0,0.0,0.0,0.0,0.0,0.0,0.0,0.0,0.0,0.0,0.0,0.0,0.0,-1.8482,-1.7793,-1.745,-1.7188,-1.6972,-1.6637,-1.6513,-1.6565,-1.6811,-1.6715,-1.6435,-1.6883,-1.7186,-1.6803,-1.6073,-1.5462,-1.4767,-1.3257,-1.2003,-1.1699,-1.0587,-0.9992,-0.9562,-0.9645,-1.0216,-1.0472,-1.0437,-0.9936,-0.9875,-0.7822,-0.6819,-0.6445,-0.5606,-0.4885,-0.4619,-0.4855,-0.4722,-0.4284,-0.348,-0.2477,-0.2044,0.0,0.0,0.0,0.0,0.0,0.0,0.0,0.0,0.0,0.0,-0.1126,-0.1346,-0.25,-0.3273,-0.3744,-0.4355,-0.4689,-0.5081,-0.5756,-0.5558,-0.522,-0.4986,-0.5136,-0.5137,-0.5898,-0.5935,-0.6007,-0.5802,-0.5549,-0.5579,-0.5655,-0.5657,-0.5671,-0.5681,-0.5677,-0.5451,-0.4678,-0.3822,-0.2938,-0.2051,-0.1133,0.0,0.0,0.0,0.0,0.0,0.0,0.0,0.0,0.0,0.0,0.0,0.0,0.0,0.0,0.0,0.0,0.0,0.0,0.0,0.0,0.0,0.0,0.0,0.0,0.0,0.0,0.0,0.0,0.0,0.0,0.0,0.0,0.0,-1.8588,-1.8107,-1.772,-1.7686,-1.7727,-1.7084,-1.6866,-1.7097,-1.7422,-1.7364,-1.7263,-1.781,-1.8042,-1.7794,-1.7338,-1.6676,-1.5997,-1.479,-1.3318,-1.3137,-1.2033,-1.1285,-1.1156,-1.1399,-1.145,-1.1869,-1.1591,-1.1059,-1.0829,-0.9233,-0.7887,-0.6817,-0.6141,-0.5613,-0.5422,-0.5292,-0.5296,-0.4755,-0.3749,-0.2678,-0.2078,0.0,0.0,0.0,0.0,0.0,0.0,0.0,0.0,0.0,0.0,0.0,0.0,-0.1709,-0.2444,-0.2945,-0.3816,-0.4348,-0.5147,-0.4942,-0.4671,-0.4175,-0.3619,-0.3941,-0.4417,-0.5282,-0.5196,-0.5216,-0.5396,-0.5319,-0.5171,-0.5326,-0.5705,-0.5712,-0.5417,-0.5375,-0.4948,-0.4155,-0.3318,-0.2444,-0.1907,-0.0967,0.0,0.0,0.0,0.0,0.0,0.0,0.0,0.0,0.0,0.0,0.0,0.0,0.0,0.0,0.0,0.0,0.0,0.0,0.0,0.0,0.0,0.0,0.0,0.0,0.0,0.0,0.0,0.0,0.0,0.0,0.0,0.0,0.0,-1.9188,-1.946,-1.8535,-1.84,-1.865,-1.7847,-1.7727,-1.8092,-1.8125,-1.8131,-1.8176,-1.8221,-1.8355,-1.8224,-1.8112,-1.7733,-1.7107,-1.6396,-1.5116,-1.3928,-1.298,-1.2339,-1.1895,-1.1815,-1.2261,-1.2261,-1.2053,-1.1821,-1.1595,-0.9888,-0.8285,-0.7144,-0.6654,-0.617,-0.5815,-0.5491,-0.5458,-0.4924,-0.3716,-0.2845,-0.2312,0.0,0.0,0.0,0.0,0.0,0.0,0.0,0.0,0.0,0.0,0.0,0.0,0.0,-0.1106,-0.1876,-0.3211,-0.4317,-0.509,-0.4719,-0.4506,-0.4384,-0.4637,-0.5106,-0.497,-0.4682,-0.4448,-0.4194,-0.4193,-0.4285,-0.4341,-0.4941,-0.551,-0.518,-0.4773,-0.4483,-0.4125,-0.3378,-0.252,-0.1871,-0.1508,0.0,0.0,0.0,0.0,0.0,0.0,0.0,0.0,0.0,0.0,0.0,0.0,0.0,0.0,0.0,0.0,0.0,0.0,0.0,0.0,0.0,0.0,0.0,0.0,0.0,0.0,0.0,0.0,0.0,0.0,0.0,0.0,0.0,0.0,-1.8765,-1.8574,-1.8631,-1.8765,-1.8893,-1.8968,-1.8893,-1.8703,-1.8684,-1.8822,-1.9225,-1.9244,-1.9132,-1.9221,-1.8855,-1.838,-1.7679,-1.6789,-1.564,-1.4664,-1.3958,-1.3382,-1.3071,-1.3,-1.3195,-1.3173,-1.2983,-1.2348,-1.1533,-1.0117,-0.8877,-0.7767,-0.7111,-0.6625,-0.617,-0.5719,-0.5524,-0.4957,-0.3647,-0.2978,-0.2278,-0.1008,0.0,0.0,0.0,0.0,0.0,0.0,0.0,0.0,0.0,0.0,0.0,-0.0303,-0.0672,-0.231,-0.3413,-0.4384,-0.5123,-0.5126,-0.4968,-0.4807,-0.476,-0.3929,-0.3707,-0.3596,-0.3513,-0.3283,-0.2666,-0.2475,-0.334,-0.4166,-0.452,-0.4265,-0.3962,-0.3778,-0.3332,-0.2471,-0.1656,-0.139,-0.1056,0.0,0.0,0.0,0.0,0.0,0.0,0.0,0.0,0.0,0.0,0.0,0.0,0.0,0.0,0.0,0.0,0.0,0.0,0.0,0.0,0.0,0.0,0.0,0.0,0.0,0.0,0.0,0.0,0.0,0.0,0.0,0.0,0.0,0.0,-1.8631,-1.8746,-1.885,-1.9006,-1.9262,-1.9581,-1.9497,-1.9244,-1.9225,-1.9424,-1.969,-1.9672,-1.9723,-1.9621,-1.9317,-1.8912,-1.8375,-1.7853,-1.6881,-1.5887,-1.4898,-1.4735,-1.4515,-1.4119,-1.3923,-1.3843,-1.3288,-1.245,-1.1586,-1.0598,-0.939,-0.8517,-0.7637,-0.7079,-0.656,-0.5881,-0.5458,-0.4921,-0.4115,-0.3211,-0.2277,-0.1308,-0.0605,0.0,0.0,0.0,0.0,0.0,0.0,0.0,0.0,0.0,0.0,0.0,0.0,-0.1944,-0.2911,-0.3813,-0.4659,-0.5288,-0.547,-0.538,-0.468,-0.3783,-0.3205,-0.2985,-0.2624,-0.2241,-0.1179,-0.0702,-0.2055,-0.3209,-0.3223,-0.3235,-0.3157,-0.312,-0.2382,-0.1563,-0.1135,-0.0901,0.0,0.0,0.0,0.0,0.0,0.0,0.0,0.0,0.0,0.0,0.0,0.0,0.0,0.0,0.0,0.0,0.0,0.0,0.0,0.0,0.0,0.0,0.0,0.0,0.0,0.0,0.0,0.0,0.0,0.0,0.0,0.0,0.0,0.0,0.0,-1.8617,-1.9482,-1.9151,-1.9258,-1.9672,-1.9708,-1.9705,-1.9723,-1.9654,-1.9708,-1.9723,-1.9723,-1.9723,-1.9672,-1.946,-1.9118,-1.8613,-1.8173,-1.7361,-1.7,-1.5911,-1.5444,-1.5157,-1.4986,-1.4364,-1.3753,-1.3003,-1.2158,-1.1617,-1.0762,-0.9977,-0.937,-0.8355,-0.76,-0.6985,-0.5881,-0.5425,-0.519,-0.4586,-0.3816,-0.2878,-0.1909,-0.1006,-0.0336,0.0,0.0,0.0,0.0,0.0,0.0,0.0,0.0,0.0,0.0,0.0,-0.136,-0.2424,-0.3376,-0.4354,-0.5145,-0.5614,-0.5405,-0.4731,-0.3758,-0.3064,-0.2756,-0.2443,-0.1426,-0.0427,-0.0313,-0.1404,-0.2296,-0.2538,-0.2347,-0.219,-0.1956,-0.1409,0.0,0.0,0.0,0.0,0.0,0.0,0.0,0.0,0.0,0.0,0.0,0.0,0.0,0.0,0.0,0.0,0.0,0.0,0.0,0.0,0.0,0.0,0.0,0.0,0.0,0.0,0.0,0.0,0.0,0.0,0.0,0.0,0.0,0.0,0.0,0.0,0.0,0.0,-1.7879,-1.8555,-1.9236,-1.9603,-1.969,-1.9723,-1.9723,-1.9723,-1.9723,-1.9723,-1.9723,-1.9723,-1.9723,-1.9672,-1.9354,-1.8946,-1.8428,-1.8097,-1.6897,-1.6267,-1.5694,-1.5659,-1.5159,-1.4946,-1.4458,-1.3844,-1.2926,-1.1705,-1.1094,-1.0681,-1.0491,-1.0072,-0.8865,-0.7762,-0.7344,-0.6178,-0.5416,-0.5389,-0.5138,-0.4529,-0.3746,-0.2852,-0.1976,-0.1309,-0.0975,-0.0574,0.0,0.0,0.0,0.0,0.0,0.0,0.0,0.0,0.0,-0.1283,-0.223,-0.3203,-0.4082,-0.5042,-0.5722,-0.5289,-0.4529,-0.3606,-0.2991,-0.2804,-0.2108,-0.088,0.0,0.0,-0.0549,-0.1293,-0.1762,-0.1488,-0.1214,-0.0862,0.0,0.0,0.0,0.0,0.0,0.0,0.0,0.0,0.0,0.0,0.0,0.0,0.0,0.0,0.0,0.0,0.0,0.0,0.0,0.0,0.0,0.0,0.0,0.0,0.0,0.0,0.0,0.0,0.0,0.0,0.0,0.0,0.0,0.0,0.0,0.0,0.0,0.0,0.0,-1.7612,-1.8163,-1.8991,-1.9479,-1.969,-1.9723,-1.9723,-1.9723,-1.9723,-1.9723,-1.9723,-1.9723,-1.9723,-1.9704,-1.9371,-1.8893,-1.8402,-1.8061,-1.7554,-1.6713,-1.5767,-1.5769,-1.5477,-1.5038,-1.426,-1.3614,-1.2219,-1.1073,-1.0643,-1.0555,-1.046,-0.9945,-0.8646,-0.7772,-0.7391,-0.6166,-0.5494,-0.5504,-0.5539,-0.5223,-0.4611,-0.3813,-0.2911,-0.2235,-0.1537,-0.1133,-0.0734,0.0,0.0,0.0,0.0,0.0,0.0,0.0,0.0,-0.0943,-0.1921,-0.314,-0.3933,-0.4922,-0.5858,-0.5379,-0.4168,-0.3209,-0.2749,-0.2428,-0.1215,0.0,0.0,0.0,0.0,-0.0706,-0.0784,-0.0588,-0.0549,-0.0392,0.0,0.0,0.0,0.0,0.0,0.0,0.0,0.0,0.0,0.0,0.0,0.0,0.0,0.0,0.0,0.0,0.0,0.0,0.0,0.0,0.0,0.0,0.0,0.0,0.0,0.0,0.0,0.0,0.0,0.0,0.0,0.0,0.0,0.0,0.0,0.0,0.0,0.0,0.0,-1.7604,-1.8145,-1.8765,-1.9262,-1.9672,-1.9723,-1.9723,-1.969,-1.9621,-1.9566,-1.9556,-1.9575,-1.9601,-1.9557,-1.9556,-1.9194,-1.87,-1.8016,-1.7776,-1.7349,-1.651,-1.6025,-1.5694,-1.5419,-1.4177,-1.2945,-1.1671,-1.1038,-1.0586,-1.0364,-0.9881,-0.921,-0.8376,-0.7466,-0.6693,-0.6048,-0.561,-0.5606,-0.5685,-0.5755,-0.5326,-0.4795,-0.3919,-0.3032,-0.2284,-0.1743,-0.1336,0.0,0.0,0.0,0.0,0.0,0.0,0.0,0.0,0.0,-0.2004,-0.2842,-0.3541,-0.5,-0.5635,-0.5505,-0.3973,-0.3007,-0.2578,-0.1605,-0.0392,0.0,0.0,0.0,0.0,0.0,0.0,0.0,0.0,0.0,0.0,0.0,0.0,0.0,0.0,0.0,0.0,0.0,0.0,0.0,0.0,0.0,0.0,0.0,0.0,0.0,0.0,0.0,0.0,0.0,0.0,0.0,0.0,0.0,0.0,0.0,0.0,0.0,0.0,0.0,0.0,0.0,0.0,0.0,0.0,0.0,0.0,0.0,0.0,-1.7598,-1.8187,-1.9114,-1.9603,-1.969,-1.9723,-1.9723,-1.9621,-1.924,-1.9043,-1.9065,-1.905,-1.8976,-1.8839,-1.8983,-1.8831,-1.8527,-1.7873,-1.7289,-1.6837,-1.6172,-1.5812,-1.5303,-1.459,-1.3476,-1.2428,-1.1584,-1.1233,-1.0601,-0.9976,-0.9472,-0.9168,-0.7755,-0.7029,-0.6697,-0.6093,-0.5725,-0.5711,-0.5759,-0.5857,-0.5833,-0.5396,-0.5027,-0.4421,-0.3992,-0.2925,-0.2042,-0.1485,0.0,0.0,0.0,0.0,0.0,0.0,0.0,0.0,0.0,-0.3022,-0.3968,-0.5248,-0.5922,-0.5143,-0.375,-0.274,-0.204,-0.0985,0.0,0.0,0.0,0.0,0.0,0.0,0.0,0.0,0.0,0.0,0.0,0.0,0.0,0.0,0.0,0.0,0.0,0.0,0.0,0.0,0.0,0.0,0.0,0.0,0.0,0.0,0.0,0.0,0.0,0.0,0.0,0.0,0.0,0.0,0.0,0.0,0.0,0.0,0.0,0.0,0.0,0.0,0.0,0.0,0.0,0.0,0.0,0.0,0.0]},{"header":{"parameterUnit":"m.s-1","parameterCategory":1,"la1":31.0,"la2":29.5877,"lo1":-88.7671,"lo2":-86.6584,"dy":0.0162,"dx":0.0185,"nx":115,"ny":88,"refTime":"2023-08-23T06:00:00:Z","depth":0,"parameterNumber":3,"parameterNumberName":"V-component_of_WINDS"},"data":[0.0,0.0,0.0,0.0,0.0,0.0,0.0,0.0,0.0,0.0,0.0,0.0,0.0,0.0,0.0,0.0,0.0,0.0,0.0,0.0,0.0,0.0,0.0,0.0,0.0,0.0,0.0,0.0,0.0,0.0,0.0,0.0,0.0,0.0,0.0,0.0,0.0,0.0,0.0,0.0,0.0,0.0,0.0,0.0,0.0,0.0,0.0,0.0,0.0,0.0,0.0,0.0,0.0,0.0,0.0,0.0,0.0,0.0,0.0,0.0,0.0,0.0,0.0,0.0,0.0,0.0,0.0,0.0,0.0,0.0,0.0,0.0,0.0,0.0,0.0,0.0,0.0,0.0,0.0,0.0,0.0,0.0,0.0,0.0,0.0,0.0,0.0,0.0,0.0,0.0,0.0,0.0,0.0,0.0,0.0,0.0,0.0,0.0,0.0,0.0,0.0,0.0,0.0,0.0,0.0,0.0,0.0,0.0,0.0,0.0,0.0,0.0,0.0,0.0,0.0,0.0,0.0,0.0,0.0,0.0,0.0,0.0,0.0,0.0,0.0,0.0,0.0,0.0,0.0,0.0,0.0,0.0,0.0,0.0,0.0,0.0,0.0,0.0,0.0,0.0,0.0,0.0,0.0,0.0,0.0,0.0,0.0,0.0,0.0,0.0,0.0,0.0,0.0,0.0,0.0,0.0,0.0,0.0,0.0,0.0,0.0,0.0,0.0,0.0,0.0,0.0,0.0,0.0,0.0,0.0,0.0,0.0,0.0,0.0,0.0,0.0,0.0,0.0,0.0,0.0,0.0,0.0,0.0,0.0,0.0,0.0,0.0,0.0,0.0,0.0,0.0,0.0,0.0,0.0,0.0,0.0,0.0,0.0,0.0,0.0,0.0,0.0,0.0,0.0,0.0,0.0,0.0,0.0,0.0,0.0,0.0,0.0,0.0,0.0,0.0,0.0,0.0,0.0,0.0,0.0,0.0,0.0,0.0,0.0,0.0,0.0,0.0,0.0,0.0,0.0,0.0,0.0,0.0,0.0,0.0,0.0,0.0,0.0,0.0,0.0,0.0,0.0,0.0,0.0,0.0,0.0,0.0,0.0,0.0,0.0,0.0,0.0,0.0,0.0,0.0,0.0,0.0,0.0,0.0,0.0,0.0,0.0,0.0,0.0,0.0,0.0,0.0,0.0,0.0,0.0,0.0,0.0,0.0,0.0,0.0,0.0,0.0,0.0,0.0,0.0,0.0,0.0,0.0,0.0,0.0,0.0,0.0,0.0,0.0,0.0,0.0,0.0,0.0,0.0,0.0,0.0,0.0,0.0,0.0,0.0,0.0,0.0,0.0,0.0,0.0,0.0,0.0,0.0,0.0,0.0,0.0,0.0,0.0,0.0,0.0,0.0,0.0,0.0,0.0,0.0,0.0,0.0,0.0,0.0,0.0,0.0,0.0,0.0,0.0,0.0,0.0,0.0,0.0,0.0,0.0,0.0,0.0,0.0,0.0,0.0,0.0,0.0,0.0,0.0,0.0,0.0,0.0,0.0,0.0,0.0,0.0,0.0,0.0,0.0,0.0,0.0,0.0,0.0,0.0,0.0,0.0,0.0,0.0,0.0,0.0,0.0,0.0,0.0,0.0,0.0,0.0,0.0,0.0,0.0,0.0,0.0,0.0,0.0,0.0,0.0,0.0,0.0,0.0,0.0,0.0,0.0,0.0,0.0,0.0,0.0,0.0,0.0,0.0,0.0,0.0,0.0,0.0,0.0,0.0,0.0,0.0,0.0,0.0,0.0,0.0,0.0,0.0,0.0,0.0,0.0,0.0,0.0,0.0,0.0,0.0,0.0,0.0,0.0,0.0,0.0,0.0,0.0,0.0,0.0,0.0,0.0,0.0,0.0,0.0,0.0,0.0,0.0,0.0,0.0,0.0,0.0,0.0,0.0,0.0,0.0,0.0,0.0,0.0,0.0,0.0,0.0,0.0,0.0,0.0,0.0,0.0,0.0,0.0,0.0,0.0,0.0,0.0,0.0,0.0,0.0,0.0,0.0,0.0,0.0,0.0,0.0,0.0,0.0,0.0,0.0,0.0,0.0,0.0,0.0,0.0,0.0,0.0,0.0,0.0,0.0,0.0,0.0,0.0,0.0,0.0,0.0,0.0,0.0,0.0,0.0,0.0,0.0,0.0,0.0,0.0,0.0,0.0,0.0,0.0,0.0,0.0,0.0,0.0,0.0,0.0,0.0,0.0,0.0,0.0,0.0,0.0,0.0,0.0,0.0,0.0,0.0,0.0,0.0,0.0,0.0,0.0,0.0,0.0,0.0,0.0,0.0,0.0,0.0,0.0,0.0,0.0,0.0,0.0,0.0,0.0,0.0,0.0,0.0,0.0,0.0,0.0,0.0,0.0,0.0,0.0,0.0,0.0,0.0,0.0,0.0,0.0,0.0,0.0,0.0,0.0,0.0,0.0,0.0,0.0,0.0,0.0,0.0,0.0,0.0,0.0,0.0,0.0,0.0,0.0,0.0,0.0,0.0,0.0,0.0,0.0,0.0,0.0,0.0,0.0,0.0,0.0,0.0,0.0,0.0,0.0,0.0,0.0,0.0,0.0,0.0,0.0,0.0,0.0,0.0,0.0,0.0,0.0,0.0,0.0,0.0,0.0,0.0,0.0,0.0,0.0,0.0,0.0,0.0,0.0,0.0,0.0,0.0,0.0,0.0,0.0,0.0,0.0,0.0,0.0,0.0,0.0,0.0,0.0,0.0,0.0,0.0,0.0,0.0,0.0,0.0,0.0,0.0,0.0,0.0,0.0,0.0,0.0,0.0,0.0,0.0,0.0,0.0,0.0,0.0,0.0,0.0,0.0,0.0,0.0,0.0,0.0,0.0,0.0,0.0,0.0,0.0,0.0,0.0,0.0,0.0,0.0,0.0,0.0,0.0,0.0,0.0,0.0,0.0,0.0,0.0,0.0,0.0,0.0,0.0,0.0,0.0,0.0,0.0,0.0,0.0,0.0,0.0,0.0,0.0,0.0,0.0,0.0,0.0,0.0,0.0,0.0,0.0,0.0,0.0,0.0,0.0,0.0,0.0,0.0,0.0,0.0,0.0,0.0,0.0,0.0,0.0,0.0,0.0,0.0,0.0,0.0,0.0,0.0,0.0,0.0,0.0,0.0,0.0,0.0,0.0,0.0,0.0,0.0,0.0,0.0,0.0,0.0,0.0,0.0,0.0,0.0,0.0,0.0,0.0,0.0,0.0,0.0,0.0,0.0,0.0,0.0,0.0,0.0,0.0,0.0,0.0,0.0,0.0,0.0,0.0,0.0,0.0,0.0,0.0,0.0,0.0,0.0,0.0,0.0,0.0,0.0,0.0,0.0,0.0,0.0,0.0,0.0,0.0,0.0,0.0,0.0,0.0,0.0,0.0,0.0,0.0,0.0,0.0,0.0,0.0,0.0,0.0,0.0,0.0,0.0,0.0,0.0,0.0,0.0,0.0,0.0,0.0,0.0,0.0,0.0,0.0,0.0,0.0,0.0,0.0,0.0,0.0,0.0,0.0,0.0,0.0,0.0,0.0,0.0,0.0,0.0,0.0,0.0,0.0,0.0,0.0,0.0,0.0,0.0,0.0,0.0,0.0,0.0,0.0,0.0,0.0,0.0,0.0,0.0,0.0,0.0,0.0,0.0,0.0,0.0,0.0,0.0,0.0,0.0,0.0,0.0,0.0,0.0,0.0,0.0,0.0,0.0,0.0,0.0,0.0,0.0,0.0,0.0,0.0,0.0,0.0,0.0,0.0,0.0,0.0,0.0,0.0,0.0,0.0,0.0,0.0,0.0,0.0,0.0,0.0,0.0,0.0,0.0,0.0,0.0,0.0,0.0,0.0,0.0,0.0,0.0,0.0,0.0,0.0,0.0,0.0,0.0,0.0,0.0,0.0,0.0,0.0,0.0,0.0,0.0,0.0,0.0,0.0,0.0,0.0,0.0,0.0,0.0,0.0,0.0,0.0,0.0,0.0,0.0,0.0,0.0,0.0,0.0,0.0,0.0,0.0,0.0,0.0,0.0,0.0,0.0,0.0,0.0,0.0,0.0,0.0,0.0,0.0,0.0,0.0,0.0,0.0,0.0,0.0,0.0,0.0,0.0,0.0,0.0,0.0,0.0,0.0,0.0,0.0,0.0,0.0,0.0,0.0,0.0,0.0,0.0,0.0,0.0,0.0,0.0,0.0,0.0,0.0,0.0,0.0,0.0,0.0,0.0,0.0,0.0,0.0,0.9703,0.0,0.0,0.0,0.0,0.0,0.0,0.0,0.0,0.0,0.0,0.0,0.0,0.0,0.0,0.0,0.0,0.0,0.0,0.0,0.0,0.0,0.0,0.0,0.0,0.0,0.0,0.0,0.0,0.0,0.0,0.0,0.0,0.0,0.0,0.0,0.0,0.0,0.0,0.0,0.0,0.0,0.0,0.0,0.0,0.0,0.0,0.0,0.0,0.0,0.0,0.0,0.0,0.0,0.0,0.0,0.0,0.0,0.0,0.0,0.0,0.0,0.0,0.0,0.0,0.0,0.0,0.0,0.0,0.0,0.0,0.0,0.0,0.0,0.0,0.0,0.0,0.0,0.0,0.0,0.0,0.0,0.0,0.0,0.0,0.0,0.0,0.0,0.0,0.0,0.0,0.0,0.0,0.0,0.0,0.0,0.0,0.0,0.0,0.0,0.0,0.0,0.0,0.0,0.0,0.0,0.0,0.0,0.0,0.0,0.0,0.9698,0.9698,0.9698,0.9698,0.9698,0.0,0.0,0.0,0.0,0.0,0.0,0.0,0.0,0.0,0.0,0.0,0.0,0.0,0.0,0.0,0.0,0.0,0.0,0.0,0.0,0.0,0.0,0.0,0.0,0.0,0.0,0.0,0.0,0.0,0.0,0.0,0.0,0.0,0.0,0.0,0.0,0.0,0.0,0.0,0.0,0.0,0.0,0.0,0.0,0.0,0.0,0.0,0.0,0.0,0.0,0.0,0.0,0.0,0.0,0.0,0.0,0.0,0.0,0.0,0.0,0.0,0.0,0.0,0.0,0.0,0.0,0.0,0.0,0.0,0.0,0.0,0.0,0.0,0.0,0.0,0.0,0.0,0.0,0.0,0.0,0.0,0.0,0.0,0.0,0.0,0.0,0.0,0.0,0.0,0.0,0.0,0.0,0.0,0.0,0.0,0.0,0.0,0.0,0.0,0.0,0.0,0.0,0.0,0.0,0.0,0.0,0.0,0.0,0.0,0.0,0.0,0.0,0.9974,0.9974,0.997,0.0,0.0,0.0,0.0,0.0,0.0,0.0,0.0,0.0,0.0,0.0,0.0,0.0,0.0,0.0,0.0,0.0,0.0,0.0,0.0,0.0,0.0,0.0,0.0,0.0,0.0,0.0,0.0,0.0,0.0,0.0,0.0,0.0,0.0,0.0,0.0,0.0,0.0,0.0,0.0,0.0,0.0,0.0,0.0,0.0,0.0,0.0,0.0,0.0,0.0,0.0,0.0,0.0,0.0,0.0,0.0,0.0,0.0,0.0,0.0,0.0,0.0,0.0,0.0,0.0,0.0,0.0,0.0,0.0,0.0,0.0,0.0,0.0,0.0,0.0,0.0,0.0,0.0,0.0,0.0,0.0,0.0,0.0,0.0,0.0,0.0,0.0,0.0,0.0,0.0,0.0,0.0,0.0,0.0,0.0,0.0,0.0,0.0,0.0,0.0,0.0,0.0,0.0,0.0,0.0,0.0,0.0,0.0,0.0,0.0,1.0062,1.0769,1.0783,0.0,1.0787,0.0,0.0,0.0,0.0,0.0,0.0,0.0,0.0,0.0,0.0,0.0,0.0,0.0,0.0,0.0,0.0,0.0,0.0,0.0,0.0,0.0,0.0,0.0,0.0,0.0,0.0,0.0,0.0,0.0,0.0,0.0,0.0,0.0,0.0,0.0,0.0,0.0,0.0,0.0,0.0,0.0,0.0,0.0,0.0,0.0,0.0,0.0,0.0,0.0,0.0,0.0,0.0,0.0,0.0,0.0,0.0,0.0,0.0,0.0,0.0,0.0,0.0,0.0,0.0,0.0,0.0,0.0,0.0,0.0,0.0,0.0,0.0,0.0,0.0,0.0,0.0,0.0,0.0,0.0,0.0,0.0,0.0,0.0,0.0,0.0,0.0,0.0,0.0,0.0,0.0,0.0,0.0,0.0,0.0,0.0,0.0,0.0,0.0,0.0,0.0,0.0,0.0,0.0,0.0,0.0,0.0,0.0,0.0,0.0,0.0,1.008,1.0875,1.0893,1.0893,0.0,0.0,0.0,0.0,0.0,0.0,0.0,0.0,0.0,0.0,0.0,0.0,0.0,0.0,0.0,0.0,0.0,0.0,0.0,0.0,0.0,0.0,0.0,0.0,0.0,0.0,0.0,0.0,0.0,0.0,0.0,0.0,0.0,0.0,0.0,0.0,0.0,0.0,0.0,0.0,0.0,0.0,0.0,0.0,0.0,0.0,0.0,0.0,0.0,0.0,0.0,0.0,0.0,0.0,0.0,0.0,0.0,0.0,0.0,0.0,0.0,0.0,0.0,0.0,0.0,0.0,0.0,0.0,0.0,0.0,0.0,0.0,0.0,0.0,0.0,0.0,0.0,0.0,0.0,0.0,0.0,0.0,0.0,0.0,0.0,0.0,0.0,0.0,0.0,0.0,0.0,0.0,0.0,0.0,0.0,0.0,0.0,0.0,0.0,0.0,0.0,0.0,0.0,0.0,0.0,0.0,0.0,0.0,0.0,0.0,0.9404,1.008,1.0834,1.0893,1.071,1.0274,0.0,0.0,0.0,0.0,0.0,0.0,0.0,0.0,0.0,0.0,0.0,0.0,0.0,0.0,0.0,0.0,0.0,0.0,0.0,0.0,0.0,0.0,0.0,0.0,0.0,0.0,0.0,0.0,0.0,0.0,0.0,0.0,0.0,0.0,0.0,0.0,0.0,0.0,0.0,0.0,0.0,0.0,0.0,0.0,0.0,0.0,0.0,0.0,0.0,0.0,0.0,0.0,0.0,0.0,0.0,0.0,0.0,0.0,0.0,0.0,0.0,0.0,0.0,0.0,0.0,0.0,0.0,0.0,0.0,0.0,0.0,0.0,0.0,0.0,0.0,0.0,0.0,0.0,0.0,0.0,0.0,0.0,0.0,0.0,0.0,0.0,0.0,0.0,0.0,0.0,0.0,0.0,0.0,0.0,0.0,0.0,0.0,0.0,0.0,0.0,0.0,0.0,0.0,0.0,0.0,0.0,0.0,0.0,0.9533,0.9647,1.008,1.0857,1.0893,1.0178,0.0,0.0,0.0,0.0,0.0,0.0,0.0,0.0,0.0,0.0,0.0,0.0,0.0,0.0,0.0,0.0,0.0,0.0,0.0,0.0,0.0,0.0,0.0,0.0,0.0,0.0,0.0,0.0,0.0,0.0,0.0,0.0,0.0,0.0,0.0,0.0,0.0,0.0,0.0,0.0,0.0,0.0,0.0,0.0,0.0,0.0,0.0,0.0,0.0,0.0,0.0,0.0,0.0,0.0,0.0,0.0,0.0,0.0,0.0,0.0,0.0,0.0,0.0,0.0,0.0,0.0,0.0,0.0,0.0,0.0,0.0,0.0,0.0,0.0,0.0,0.0,0.0,0.0,0.0,0.0,0.0,0.0,0.0,0.0,0.0,0.0,0.0,0.0,0.0,0.0,0.0,0.0,0.0,0.0,0.0,0.0,0.0,0.0,0.0,0.0,0.0,0.0,0.0,0.0,0.0,0.0,0.0,0.0,0.0,0.7308,0.8366,0.9558,1.0797,0.9921,0.9338,0.0,0.0,0.0,0.0,0.0,0.0,0.0,0.0,0.0,0.0,0.0,0.0,0.0,0.0,0.0,0.0,0.0,0.0,0.0,0.0,0.0,0.0,0.0,0.0,0.0,0.0,0.0,0.0,0.0,0.0,0.0,0.0,0.0,0.0,0.0,0.0,0.0,0.0,0.0,0.0,0.0,0.0,0.0,0.0,0.0,0.0,0.0,0.0,0.0,0.0,0.0,0.0,0.0,0.0,0.0,0.0,0.0,0.0,0.0,0.0,0.0,0.0,0.0,0.0,0.0,0.0,0.0,0.0,0.0,0.0,0.0,0.0,0.0,0.0,0.0,0.0,0.0,0.0,0.0,0.0,0.0,0.0,0.0,0.0,0.0,0.0,0.0,0.0,0.0,0.0,0.0,0.0,0.0,0.0,0.0,0.0,0.0,0.0,0.0,0.0,0.0,0.0,0.0,0.0,0.0,0.0,0.0,0.0,0.0,0.6788,0.0,0.9412,1.0402,0.9202,0.8499,0.0,0.0,0.0,0.0,0.0,0.0,0.0,0.0,0.0,0.0,0.0,0.0,0.0,0.0,0.0,0.0,0.0,0.0,0.0,0.0,0.0,0.0,0.0,0.0,0.0,0.0,0.0,0.0,0.0,0.0,0.0,0.0,0.0,0.0,0.0,0.0,0.0,0.0,0.0,0.0,0.0,0.0,0.0,0.0,0.0,0.0,0.0,0.0,0.0,0.0,0.0,0.0,0.0,0.0,0.0,0.0,0.0,0.0,0.0,0.0,0.0,0.0,0.0,0.0,0.0,0.0,0.0,0.0,0.0,0.0,0.0,0.0,0.0,0.0,0.0,0.0,0.0,0.0,0.0,0.0,0.0,0.0,0.0,0.0,0.0,0.0,0.0,0.0,0.0,0.0,0.0,0.0,0.0,0.0,0.0,0.0,0.0,0.0,0.0,0.0,0.0,0.0,0.0,0.0,0.0,0.0,0.0,0.0,0.6042,0.8347,0.9217,0.9647,0.9684,0.8913,0.7752,0.0,0.0,0.0,0.0,0.0,0.0,0.0,0.0,0.0,0.0,0.0,0.0,0.0,0.0,0.0,0.0,0.0,0.0,0.0,0.0,0.0,0.0,0.0,0.0,0.0,0.0,0.0,0.0,0.0,0.0,0.0,0.0,0.0,0.0,0.0,0.0,0.0,0.0,0.0,0.0,0.0,0.0,0.0,0.0,0.0,0.0,0.0,0.0,0.0,0.0,0.0,0.0,0.0,0.0,0.0,0.0,0.0,0.0,0.0,0.0,0.0,0.0,0.0,0.0,0.0,0.0,0.0,0.0,0.0,0.0,0.0,0.0,0.0,0.0,0.0,0.0,0.0,0.0,0.0,0.0,0.0,0.0,0.0,0.0,0.0,0.0,0.0,0.0,0.0,0.0,0.0,0.0,0.0,0.0,0.0,0.0,0.0,0.0,0.0,0.0,0.0,0.0,0.0,0.0,0.0,0.0,0.0,0.0,0.0,0.7659,0.8464,0.9125,0.9625,0.8437,0.8003,0.0,0.0,0.0,0.0,0.0,0.0,0.0,0.0,0.0,0.0,0.0,0.0,0.0,0.0,0.0,0.0,0.0,0.0,0.0,0.0,0.0,0.0,0.0,0.0,0.0,0.0,0.0,0.0,0.0,0.0,0.0,0.0,0.0,0.0,0.0,0.0,0.0,0.0,0.0,0.0,0.0,0.0,0.0,0.0,0.0,0.0,0.0,0.0,0.0,0.0,0.0,0.0,0.0,0.0,0.0,0.0,0.0,0.0,0.0,0.0,0.0,0.0,0.0,0.0,0.0,0.0,0.0,0.0,0.0,0.0,0.0,0.0,0.0,0.0,0.0,0.0,0.0,0.0,0.0,0.0,0.0,0.0,0.0,0.0,0.0,0.0,0.0,0.0,0.0,0.0,0.0,0.0,0.0,0.0,0.0,0.0,0.0,0.0,0.0,0.0,0.0,0.0,0.0,0.0,0.0,0.0,0.0,0.0,0.0,0.9033,0.9565,1.008,1.0576,0.9102,0.8736,0.9622,0.0,0.0,0.0,0.0,0.0,0.0,0.0,0.0,0.0,0.0,0.0,0.0,0.0,0.0,0.0,0.0,0.0,0.0,0.0,0.0,0.0,0.0,0.0,0.0,0.0,0.0,0.0,0.0,0.0,0.0,0.0,0.0,0.0,0.0,0.0,0.0,0.0,0.0,0.0,0.0,0.0,0.0,0.0,0.0,0.0,0.0,0.0,0.0,0.0,0.0,0.0,0.0,0.0,0.0,0.0,0.0,0.0,0.0,0.0,0.0,0.0,0.0,0.0,0.0,0.0,0.0,0.0,0.0,0.0,0.0,0.0,0.0,0.0,0.0,0.0,0.0,0.0,0.0,0.0,0.0,0.0,0.0,0.0,0.0,0.0,0.0,0.0,0.0,0.0,0.0,0.0,0.0,0.0,0.0,0.0,0.0,0.0,0.0,0.0,0.0,0.0,0.0,0.0,0.0,0.0,0.0,0.0,0.0,1.1947,1.2214,1.23,1.221,1.0737,0.9901,0.0,0.0,0.0,0.0,0.0,0.0,0.0,0.0,0.0,0.0,0.0,0.0,0.0,0.0,0.0,0.0,0.0,0.0,0.0,0.0,0.0,0.0,0.0,0.0,0.0,0.0,0.0,0.0,0.0,0.0,0.0,0.0,0.0,0.0,0.0,0.0,0.0,0.0,0.0,0.0,0.0,0.0,0.0,0.0,0.0,0.0,0.0,0.0,0.0,0.0,0.0,0.0,0.0,0.0,0.0,0.0,0.0,0.0,0.0,0.0,0.0,0.0,0.0,0.0,0.0,0.0,0.0,0.0,0.0,0.0,0.0,0.0,0.0,0.0,0.0,0.0,0.0,0.0,0.0,0.0,0.0,0.0,0.0,0.0,0.0,0.0,0.0,0.0,0.0,0.0,0.0,0.0,0.0,0.0,0.0,0.0,0.0,0.0,0.0,0.0,0.0,0.0,0.0,0.0,0.0,0.0,0.0,0.0,0.0,1.2651,1.4409,1.4882,1.3882,1.2378,1.1558,0.0,0.0,0.0,0.0,0.0,0.0,0.0,0.0,0.0,0.0,0.0,0.0,0.0,0.0,0.0,0.0,0.0,0.0,0.0,0.0,0.0,0.0,0.0,0.0,0.0,0.0,0.0,0.0,0.0,0.0,0.0,0.0,0.0,0.0,0.0,0.0,0.0,0.0,0.0,0.0,0.0,0.0,0.0,0.0,0.0,0.0,0.0,0.0,0.0,0.0,0.0,0.0,0.0,0.0,0.0,0.0,0.0,0.0,0.0,0.0,0.0,0.0,0.0,0.0,0.0,0.0,0.0,0.0,0.0,0.0,0.0,0.0,0.0,0.0,0.0,0.0,0.0,0.0,0.0,0.0,0.0,0.0,0.0,0.0,0.0,0.0,0.0,0.0,0.0,0.0,0.0,0.0,0.0,0.0,0.0,0.0,0.0,0.0,0.0,0.0,0.0,0.0,0.0,0.0,0.0,0.0,0.0,0.0,1.2627,1.3866,1.6027,1.6816,1.6034,1.4515,1.3392,0.0,0.0,0.0,0.0,0.0,0.0,0.0,0.0,0.0,0.0,0.0,0.0,0.0,0.0,0.0,0.0,0.0,0.0,0.0,0.0,0.0,0.0,0.0,0.0,0.0,0.0,0.0,0.0,0.0,0.0,0.0,0.0,0.0,0.0,0.0,0.0,0.0,0.0,0.0,0.0,0.0,0.0,0.0,0.0,0.0,0.0,0.0,0.0,0.0,0.0,0.0,0.0,0.0,0.0,0.0,0.0,0.0,0.0,0.0,0.0,0.0,0.0,0.0,0.0,0.0,0.0,0.0,0.0,0.0,0.0,0.0,0.0,0.0,0.0,0.0,0.0,0.0,0.0,0.0,0.0,0.0,0.0,0.0,0.0,0.0,0.0,0.0,0.0,0.0,0.0,0.0,0.0,0.0,0.0,0.0,0.0,0.0,0.0,0.0,0.0,0.0,0.0,0.0,0.0,0.0,0.0,0.0,0.0,1.371,1.5207,1.7177,1.8196,1.817,1.6657,1.504,0.0,0.0,0.0,0.0,0.0,0.0,0.0,0.0,0.0,0.0,0.0,0.0,0.0,0.0,0.0,0.0,0.0,0.0,0.0,0.0,0.0,0.0,0.0,0.0,0.0,0.0,0.0,0.0,0.0,0.0,0.0,0.0,0.0,0.0,0.0,0.0,0.0,0.0,0.0,0.0,0.0,0.0,0.0,0.0,0.0,0.0,0.0,0.0,0.0,0.0,0.0,0.0,0.0,0.0,0.0,0.0,0.0,0.0,0.0,0.0,0.0,0.0,0.0,0.0,0.0,0.0,0.0,0.0,0.0,0.0,0.0,0.0,0.0,0.0,0.0,0.0,0.0,0.0,0.0,0.0,0.0,0.0,0.0,0.0,0.0,0.0,0.0,0.0,0.0,0.0,0.0,0.0,0.0,0.0,0.0,0.0,0.0,0.0,0.0,0.0,0.0,0.0,0.0,0.0,0.0,0.0,0.0,0.0,1.4144,1.5429,1.7656,1.8879,1.9032,1.6893,1.5007,0.0,0.0,0.0,0.0,0.0,0.0,0.0,0.0,0.0,0.0,0.0,0.0,0.0,0.0,0.0,0.0,0.0,0.0,0.0,0.0,0.0,0.0,0.0,0.0,0.0,0.0,0.0,0.0,0.0,0.0,0.0,0.0,0.0,0.0,0.0,0.0,0.0,0.0,0.0,0.0,0.0,0.0,0.0,0.0,0.0,0.0,0.0,0.0,1.1079,0.0,0.0,0.0,0.0,0.0,0.0,0.0,0.0,0.0,0.0,0.0,0.0,0.0,0.0,0.0,0.0,0.0,0.0,0.0,0.0,0.0,0.0,0.0,0.0,0.0,0.0,0.0,0.0,0.0,0.0,0.0,0.0,0.0,0.0,0.0,0.0,0.0,0.0,0.0,0.0,0.0,0.0,0.0,0.0,0.0,0.0,0.0,0.0,0.0,0.0,0.0,0.0,0.0,0.0,0.0,0.0,0.0,0.0,0.0,1.4658,1.6022,1.8063,1.9198,1.9224,1.7319,1.558,0.0,0.0,0.0,0.0,0.0,0.0,0.0,0.0,0.0,0.0,0.0,0.0,0.0,0.0,0.0,0.0,0.0,0.0,0.0,0.0,0.0,0.0,0.0,0.0,0.0,0.0,0.0,0.0,0.0,0.0,0.0,0.0,0.0,0.0,0.0,0.0,0.0,0.0,0.0,0.0,0.0,0.0,0.0,0.0,0.0,0.0,0.0,0.0,0.0,0.0,0.0,0.0,0.0,0.0,0.0,0.0,0.0,0.0,0.0,0.0,0.0,0.0,0.0,0.0,0.0,0.0,0.0,0.0,0.0,0.0,0.0,0.0,0.0,0.0,0.0,0.0,0.0,0.0,0.0,0.0,0.0,0.0,0.0,0.0,0.0,0.0,0.0,0.0,0.0,0.0,0.0,0.0,0.0,0.0,0.0,0.0,0.0,0.0,0.0,0.0,0.0,0.0,0.0,0.0,0.0,0.0,0.0,1.313,1.5068,1.6621,1.8378,1.9279,1.9279,1.7762,1.6226,1.4756,0.0,0.0,0.0,0.0,0.0,0.0,0.0,0.0,0.0,0.0,0.0,0.0,0.0,0.0,0.0,0.0,0.0,0.0,0.0,0.0,0.0,0.0,0.0,0.0,0.0,0.0,0.0,0.0,0.0,0.0,0.0,0.0,0.0,0.0,0.0,0.0,0.0,0.0,1.0753,1.2873,0.0,0.0,0.0,0.0,0.0,0.0,0.0,0.0,1.1712,0.0,0.0,0.0,0.0,0.0,0.0,0.0,0.0,0.0,0.0,0.0,0.0,0.0,0.0,0.0,0.0,0.0,0.0,0.0,0.0,0.0,0.0,0.0,0.0,0.0,0.0,0.0,0.0,0.0,0.0,0.0,0.0,0.0,0.0,0.0,0.0,0.0,0.0,0.0,0.0,0.0,0.0,0.0,0.0,0.0,0.0,0.0,0.0,0.0,0.0,0.0,0.0,0.0,0.0,0.0,0.0,1.2381,1.3659,1.5139,1.6806,1.8449,1.9279,1.9268,1.7853,1.6332,1.4756,0.0,0.0,0.0,0.0,0.0,0.0,0.0,0.0,0.0,0.0,0.0,0.0,0.0,0.0,0.0,0.0,0.0,0.0,0.0,0.0,0.0,0.0,0.0,0.0,0.0,0.0,0.0,0.0,0.0,0.0,0.0,0.0,0.0,0.0,0.0,0.0,0.0,0.0,0.0,1.5028,1.5951,0.0,0.0,0.0,0.0,0.0,0.0,0.0,0.0,1.1883,0.0,0.0,0.0,0.0,0.0,0.0,0.0,0.0,0.0,0.0,0.0,0.0,0.0,0.0,0.0,0.0,0.0,0.0,0.0,0.0,0.0,0.0,0.0,0.0,0.0,0.0,0.0,0.0,0.0,0.0,0.0,0.0,0.0,0.0,0.0,0.0,0.0,0.0,0.0,0.0,0.0,0.0,0.0,0.0,0.0,0.0,0.0,0.0,0.0,0.0,0.0,0.0,0.0,0.0,0.0,1.2262,1.4114,1.5635,1.689,1.8482,1.9279,1.9242,1.74,1.5859,0.0,0.0,0.0,0.0,0.0,0.0,0.0,0.0,0.0,0.0,0.0,0.0,0.0,0.0,0.0,0.0,0.0,0.0,0.0,0.0,0.0,0.0,0.0,0.0,0.0,0.0,0.0,0.0,0.0,0.0,0.0,0.0,0.0,0.0,0.0,0.0,0.0,0.0,0.0,0.0,1.5788,1.6719,1.722,0.0,0.0,0.0,0.0,0.0,0.0,1.3517,1.2827,0.0,0.0,0.0,0.0,0.0,0.0,0.0,0.0,0.0,0.0,0.0,0.0,0.0,0.0,0.0,0.0,0.0,0.0,0.0,0.0,0.0,0.0,0.0,0.0,0.0,0.0,0.0,0.0,0.0,0.0,0.0,0.0,0.0,0.0,0.0,0.0,0.0,0.0,0.0,0.0,0.0,0.0,0.0,0.0,0.0,0.0,0.0,0.0,0.0,0.0,0.0,0.0,0.0,0.0,0.0,1.189,1.4227,1.5924,1.689,1.8317,1.9058,1.9022,1.7047,1.5504,0.0,0.0,0.0,0.0,0.0,0.0,0.0,0.0,0.0,0.0,0.0,0.0,0.0,0.0,0.0,0.0,0.0,0.0,0.0,0.0,0.0,0.0,0.0,0.0,0.0,0.0,0.0,0.0,0.0,0.0,0.0,0.0,0.0,0.0,0.0,0.0,0.0,0.0,0.0,0.0,0.0,1.7672,1.8689,1.7945,0.0,0.0,0.0,0.0,1.4923,1.492,0.0,0.0,0.0,0.0,0.0,0.0,0.0,0.0,0.0,0.0,0.0,0.0,0.0,0.0,0.0,0.0,0.0,0.0,0.0,0.0,0.0,0.0,0.0,0.0,0.0,0.0,0.0,0.0,0.0,0.0,0.0,0.0,0.0,0.0,0.0,0.0,0.0,0.0,0.0,0.0,0.0,0.0,0.0,0.0,0.0,0.0,0.0,0.0,0.0,0.0,0.0,0.0,0.0,0.0,0.0,0.0,1.1872,1.3691,1.5386,1.6853,1.7777,1.8243,1.8225,1.7379,1.5897,0.0,0.0,0.0,0.0,0.0,0.0,0.0,0.0,0.0,0.0,0.0,0.0,0.0,0.0,0.0,0.0,0.0,0.0,0.0,0.0,0.0,0.0,0.0,0.0,0.0,0.0,0.0,0.0,0.0,0.0,0.0,0.0,0.0,0.0,0.0,0.0,0.0,0.0,0.0,0.0,0.0,1.952,1.8147,1.911,1.935,0.0,0.0,1.8414,1.8414,1.8414,0.0,0.0,0.0,0.0,0.0,0.0,0.0,0.0,0.0,0.0,0.0,0.0,0.0,0.0,0.0,0.0,0.0,0.0,0.0,0.0,0.0,0.0,0.0,0.0,0.0,0.0,0.0,0.0,0.0,0.0,0.0,0.0,0.0,0.0,0.0,0.0,0.0,0.0,0.0,0.0,0.0,0.0,0.0,0.0,0.0,0.0,0.0,0.0,0.0,0.0,0.0,0.0,0.0,0.0,0.0,0.9593,1.1872,1.3618,1.5062,1.6181,1.7075,1.7545,1.7526,1.6452,1.5156,0.0,0.0,0.0,0.0,0.0,0.0,0.0,0.0,0.0,0.0,0.0,0.0,0.0,0.0,0.0,0.0,0.0,0.0,0.0,0.0,0.0,0.0,0.0,0.0,0.0,0.0,0.0,0.0,0.0,0.0,0.0,0.0,0.0,0.0,0.0,0.0,0.0,0.0,0.0,0.0,0.0,0.0,1.9988,2.0232,0.0,0.0,0.0,1.9735,1.9735,0.0,0.0,0.0,0.0,0.0,0.0,0.0,0.0,0.0,0.0,0.0,0.0,0.0,0.0,0.0,0.0,0.0,0.0,0.0,0.0,0.0,0.0,0.0,0.0,0.0,0.0,0.0,0.0,0.0,0.0,0.0,0.0,0.0,0.0,0.0,0.0,0.0,0.0,0.0,0.0,0.0,0.0,0.0,0.0,0.0,0.0,0.0,0.0,0.0,0.0,0.0,0.0,0.0,0.0,0.0,0.0,0.0,1.1921,1.3434,1.4683,1.5686,1.6404,1.6791,1.6778,1.5767,0.0,0.0,0.0,0.0,0.0,0.0,0.0,0.0,0.0,0.0,0.0,0.0,0.0,0.0,0.0,0.0,0.0,0.0,0.0,0.0,0.0,0.0,0.0,0.0,0.0,0.0,0.0,0.6365,0.0,0.0,0.0,0.0,0.0,0.0,0.0,0.0,0.0,0.0,0.0,0.0,0.0,0.0,1.9998,2.1227,2.14,2.1496,0.0,0.0,2.1177,2.0942,2.11,2.0235,0.0,0.0,0.0,0.0,0.0,0.0,0.0,0.0,0.0,0.0,0.0,0.0,0.0,0.0,0.0,0.0,0.0,0.0,0.0,0.0,0.0,0.0,0.0,0.0,0.0,0.0,0.0,0.0,0.0,0.0,0.0,0.0,0.0,0.0,0.0,0.0,0.0,0.0,0.0,0.0,0.0,0.0,0.0,0.0,0.0,0.0,0.0,0.0,0.0,0.0,0.0,0.0,0.0,0.0,0.9617,1.2007,1.2926,1.4125,1.5649,1.5892,1.5992,1.5997,1.6045,1.5,0.0,0.0,0.0,0.0,0.0,0.0,0.0,0.0,0.0,0.0,0.0,0.0,0.0,0.0,0.0,0.0,0.0,0.0,0.0,0.0,0.0,0.0,0.0,0.0,0.0,0.0,0.0,0.0,0.0,0.0,0.0,0.0,0.0,0.0,0.0,0.0,0.0,0.0,0.0,0.0,0.0,2.0526,2.0586,2.2562,2.374,0.0,2.3388,2.3567,2.2759,2.3297,2.2436,1.8295,0.0,0.0,0.0,0.0,0.0,0.0,0.0,0.0,0.0,0.0,0.0,0.0,0.0,0.0,0.0,0.0,0.0,0.0,0.0,0.0,0.0,0.0,0.0,0.0,0.0,0.0,0.0,0.0,0.0,0.0,0.0,0.0,0.0,0.0,0.0,0.0,0.0,0.0,0.0,0.0,0.0,0.0,0.0,0.0,0.0,0.0,0.0,0.0,0.0,0.0,0.0,0.0,0.0,0.9132,1.204,1.2393,1.333,1.4878,1.5163,1.5268,1.5273,1.5495,1.4657,0.0,0.0,0.0,0.0,0.0,0.0,0.0,0.0,0.0,0.0,0.0,0.0,0.0,0.0,0.0,0.0,0.0,0.0,0.0,0.0,0.0,0.0,0.0,0.0,0.0,0.0,0.0,0.0,0.9004,0.9355,1.0215,0.0,0.0,0.0,0.0,0.0,0.0,0.0,0.0,0.0,0.0,2.1756,2.2715,2.372,0.0,0.0,2.4277,2.4211,2.4322,2.3312,2.1771,1.9641,1.7746,0.0,0.0,0.0,0.0,0.0,0.0,0.0,0.0,0.0,0.0,0.0,0.0,0.0,0.0,0.0,0.0,0.0,0.0,0.0,0.0,0.0,0.0,0.0,0.0,0.0,0.0,0.0,0.0,0.0,0.0,0.0,0.0,0.0,0.0,0.0,0.0,0.0,0.0,0.0,0.0,0.0,0.0,0.0,0.0,0.0,0.0,0.0,0.0,0.0,0.0,0.0,0.0,0.8829,1.2058,1.2076,1.2904,1.453,1.4776,1.4921,1.4921,1.5101,1.4407,0.0,0.0,0.0,0.0,0.0,0.0,0.0,0.0,0.0,0.0,0.0,0.0,0.0,0.0,0.0,0.0,0.0,0.0,0.0,0.0,0.0,0.0,0.0,0.0,0.0,0.0,0.0,0.0,0.9395,0.9629,1.0234,0.0,0.0,0.0,0.0,0.0,0.0,0.0,0.0,0.0,0.0,2.2792,2.4131,2.4574,2.4922,2.5402,2.4745,2.4377,2.488,2.3253,2.1594,2.0512,0.0,0.0,0.0,0.0,0.0,0.0,0.0,0.0,0.0,0.0,0.0,0.0,0.0,0.0,0.0,0.0,0.0,0.0,0.0,0.0,0.0,0.0,0.0,0.0,0.0,0.0,0.0,0.7187,0.0,0.0,0.5974,0.0,0.0,0.0,0.0,0.0,0.0,0.0,0.0,0.0,0.0,0.0,0.0,0.0,0.0,0.0,0.0,0.0,0.0,0.0,0.0,0.0,0.0,0.8844,1.2021,1.2118,1.2964,1.4627,1.4822,1.4921,1.4984,1.5111,1.4429,1.2743,0.0,0.0,0.0,0.0,0.0,0.0,0.0,0.0,0.0,0.0,0.0,0.0,0.0,0.0,0.0,0.0,0.0,0.0,0.0,0.0,0.0,0.0,0.0,0.0,0.0,0.0,1.0234,1.0273,1.0273,0.0,0.0,0.0,0.0,0.0,0.0,0.0,0.0,0.0,1.9082,2.1543,2.3477,2.4316,2.509,2.5563,2.5577,2.482,2.4214,2.4287,2.3514,2.2393,0.0,0.0,0.0,0.0,0.0,0.0,0.0,0.0,0.0,0.0,0.0,0.0,0.0,0.0,0.0,0.0,0.0,0.0,0.0,0.0,0.0,0.0,0.0,0.0,0.0,0.0,0.0,0.7749,0.7878,0.0,0.0,0.0,0.0,0.0,0.0,0.0,0.0,0.0,0.0,0.0,1.2499,1.2725,0.0,0.0,0.0,0.0,0.0,0.0,0.0,0.0,0.0,0.0,0.0,0.0,0.9995,1.2077,1.2738,1.357,1.467,1.4869,1.4977,1.501,1.5133,1.442,1.2743,0.0,0.0,0.0,0.0,0.0,0.0,0.0,0.0,0.0,0.0,0.0,0.0,0.0,0.0,0.0,0.0,0.0,0.0,0.0,0.0,0.0,0.0,0.0,0.0,0.0,1.023,0.0,0.0,0.0,0.0,0.0,0.0,0.0,0.0,0.0,0.0,1.8125,1.9297,2.1582,2.3105,2.4297,2.5137,2.5487,2.5658,0.0,0.0,0.0,0.0,0.0,0.0,0.0,0.0,0.0,0.0,0.0,0.0,0.0,0.0,2.205,1.8632,1.7519,1.7227,1.75,0.0,0.0,0.0,0.0,0.0,0.0,0.0,0.0,0.0,0.0,0.0,0.0,0.0,0.0,0.9224,0.9319,0.9049,0.0,0.0,0.0,0.0,0.0,0.0,0.0,0.0,1.2101,1.3182,1.4204,1.4568,1.4972,0.0,1.4904,1.3515,0.0,0.0,0.0,0.0,0.0,0.0,0.0,0.0,1.0718,1.2526,1.3142,1.3849,1.4719,1.4886,1.4988,1.5056,1.4877,1.4238,1.3177,1.1829,1.0839,0.0,0.0,0.0,0.0,0.0,0.0,0.0,0.0,0.0,0.0,0.0,0.0,0.0,0.0,0.0,0.0,0.0,0.0,0.0,0.0,0.0,0.0,0.0,1.0701,0.0,0.0,0.0,0.0,0.0,0.0,0.0,0.0,0.0,1.9258,2.0156,2.1387,2.3359,2.4336,2.5059,2.5625,0.0,0.0,0.0,0.0,0.0,0.0,0.0,2.2748,2.3093,2.2219,2.1442,2.1465,2.2891,2.3887,2.3281,0.0,0.0,2.1289,2.0195,2.0,2.0566,2.0644,2.0801,2.1406,2.2207,2.291,0.0,0.0,0.0,0.0,1.0415,0.0,0.0,0.0,1.1399,1.1438,0.0,1.0639,0.0,0.0,0.0,0.0,1.0576,1.2196,0.0,0.0,1.4971,1.5927,1.6055,1.695,1.7435,1.7501,1.7897,1.73,1.5666,1.2065,0.0,0.0,0.0,0.0,0.0,0.0,1.1043,1.3282,1.3416,1.3931,1.4952,1.4992,1.5034,1.5164,1.4385,1.3978,1.3967,1.3216,1.2059,1.0382,1.0331,0.0,0.0,0.0,0.0,0.0,0.0,0.0,0.0,0.0,0.0,0.0,0.0,0.0,0.0,0.0,0.0,0.0,0.0,0.0,0.0,1.1561,0.0,0.0,0.0,0.0,0.0,0.0,0.0,0.0,0.0,1.9687,2.0586,2.209,2.3457,2.4336,0.0,0.0,0.0,0.0,2.5703,2.5703,2.5,2.4453,2.4473,2.4414,2.4141,2.3437,0.0,0.0,2.3457,2.457,2.5117,2.3516,2.4648,2.5723,2.5586,2.4238,2.3789,2.5215,2.4297,2.3926,2.5352,2.6133,2.6992,1.0098,0.0,0.0,0.0,0.0,1.0911,1.1336,1.2131,1.1687,1.165,1.1909,1.1488,0.0,0.0,0.0,0.0,0.0,0.0,1.3962,1.5069,1.5794,1.6715,1.7821,1.8127,1.8553,1.9084,1.8429,1.7896,1.7358,1.5494,1.3405,1.1198,0.0,0.0,0.0,0.0,1.2984,1.4188,1.492,1.5711,1.6588,1.6238,1.5763,1.5209,1.4994,1.4601,1.4024,1.3828,1.3229,1.2187,1.1543,0.0,0.0,0.0,0.0,0.0,0.0,0.0,0.0,0.0,0.0,0.0,0.0,0.0,0.0,0.0,0.0,0.0,0.0,0.0,1.1503,1.1601,1.209,0.0,0.0,0.0,0.0,0.0,0.0,0.0,0.0,0.0,2.2285,2.334,2.4355,0.0,0.0,2.5703,2.5703,2.5703,2.5703,2.5703,2.5488,0.0,2.5332,2.4805,2.4531,2.4902,2.5391,2.5527,2.5039,2.5371,2.5547,2.5039,2.5879,2.6426,2.584,2.5835,2.6085,2.6718,2.6793,2.6866,2.7422,2.7773,2.7988,1.2436,1.2257,1.1572,1.1837,1.2666,1.2425,1.2872,1.3704,1.3301,1.3267,1.3488,1.3322,1.3034,1.269,1.2623,0.0,0.0,0.0,1.5439,1.6663,1.6942,1.7762,1.8961,1.9056,1.9324,1.9747,1.9102,1.8744,1.8689,1.8009,1.6394,1.3955,0.0,1.3724,1.2961,1.3947,1.4871,1.5617,1.628,1.6867,1.7411,1.6812,1.6253,1.5734,1.5411,1.5029,1.455,1.4551,1.4204,1.3398,1.2578,1.1543,0.0,0.0,0.0,0.0,0.0,0.0,0.0,0.0,0.0,0.0,0.0,0.6699,0.6172,0.0,0.0,0.0,1.0312,1.2031,1.3027,1.3418,0.0,0.0,0.0,0.0,0.0,0.0,0.0,1.8906,2.1289,2.3027,2.3418,2.4316,2.5117,2.5625,2.5703,2.5703,2.5703,0.0,2.5703,2.5703,2.5703,2.5703,2.5684,2.5254,2.5098,2.5605,2.5703,2.5703,2.5703,2.5703,2.582,2.6172,2.6619,2.693,2.6738,2.7345,2.8033,2.853,2.8393,2.8323,2.871,2.8809,2.8906,1.4928,1.4778,1.2627,1.2905,1.468,1.435,1.4681,1.5523,1.5466,1.5479,1.5536,1.5499,1.5139,1.4562,1.4848,0.0,1.538,1.629,1.7182,1.8014,1.8429,1.9032,1.9802,1.9938,1.9992,2.0017,1.998,1.9882,1.9708,1.9755,1.8874,1.7117,1.6312,1.5876,1.5823,1.6035,1.6546,1.7288,1.7432,1.7576,1.771,1.7062,1.6638,1.6487,1.5715,1.5301,1.5292,1.5296,1.4934,1.4121,1.332,1.2129,1.0508,0.0,0.0,0.0,0.0,0.0,0.0,0.0,0.0,0.0,0.0,0.0,0.0,0.0,0.0,0.0,1.25,0.0,1.541,1.623,0.0,0.0,0.0,1.7285,1.83,1.9824,2.082,2.0859,0.0,0.0,2.418,2.5039,2.5703,2.5703,2.5683,2.5683,2.5683,2.5703,2.5683,2.5684,2.5703,2.5703,2.5703,2.5644,2.5625,2.5684,2.5703,2.5703,2.5723,2.582,2.6133,2.6797,2.7043,2.7362,2.82,2.8822,2.9672,3.0367,2.9431,2.8712,2.9512,2.9707,2.9902,1.5311,1.532,1.4751,1.4761,1.5095,1.4413,1.444,1.4933,1.4436,1.4475,1.4902,1.471,1.4756,1.5051,1.5461,1.6018,1.6667,1.7354,1.8437,1.978,2.0196,2.0809,2.1572,2.1631,2.1632,2.1625,2.1515,2.1138,2.0569,2.1039,2.041,1.8831,1.9127,1.816,1.5995,1.6573,1.7388,1.8254,1.8408,1.8544,1.8651,1.85,1.7795,1.6545,1.6295,1.5917,1.5331,1.5296,1.4914,1.4121,1.334,1.2422,1.1348,1.0469,0.0,0.0,0.0,0.0,0.0,0.0,0.0,0.0,0.0,0.9395,0.873,0.0,1.0391,0.0,1.3574,1.6816,1.6406,1.6562,0.0,0.0,1.9102,1.953,2.1646,2.2249,2.2657,2.3058,2.4372,2.5262,2.5293,2.545,2.5582,2.5628,2.5631,2.5603,2.5558,2.5598,2.5631,2.5633,2.5661,2.5703,2.5703,2.5703,2.5703,2.5703,2.5703,2.5703,2.5703,2.6269,2.6777,2.7051,2.8125,2.8795,2.8734,2.9564,3.034,3.0624,3.0347,3.0197,3.0527,3.0586,3.0644,1.5918,1.5916,1.5691,1.5662,1.5739,1.5652,1.598,1.6541,1.6169,1.6215,1.6537,1.6572,1.6816,1.7266,1.7706,1.8214,1.8771,1.9093,1.9803,2.0787,2.1033,2.1461,2.201,2.2028,2.201,2.2028,2.1946,2.1676,2.1287,2.1624,2.1335,2.0417,2.0474,1.9712,1.8245,1.8299,1.8649,1.9223,1.9395,1.9495,1.9561,1.9203,1.8376,1.7083,1.6679,1.6113,1.5331,1.5296,1.4914,1.4121,1.334,1.2676,1.2187,1.1348,1.0879,0.0,0.0,0.0,0.0,0.0,0.0,0.0,0.0,0.0,0.0,0.0,1.2598,1.1816,1.6934,1.9805,1.8555,1.9121,2.0156,2.1558,2.1616,2.2075,2.3447,2.3931,2.4294,2.4576,2.5141,2.5529,2.5605,2.5539,2.5493,2.5522,2.5517,2.5515,2.5515,2.5539,2.5563,2.5599,2.5631,2.566,2.5683,2.5703,2.5703,2.5703,2.5703,2.5703,2.5723,2.6426,2.7129,2.7578,2.867,2.9618,2.9731,3.0205,3.0716,3.0765,3.0789,3.0816,3.0898,3.0918,3.0918,1.6401,1.645,1.5986,1.6046,1.6481,1.7182,1.7841,1.8436,1.8451,1.8511,1.8659,1.9048,1.9376,1.9688,2.0089,2.0396,2.063,2.0725,2.0962,2.1327,2.1375,2.1593,2.199,2.199,2.2008,2.2035,2.2062,2.1998,2.1959,2.2069,2.2014,2.1784,2.1125,2.0874,2.096,2.0294,1.9988,2.0031,2.0205,2.0288,2.0288,1.9546,1.87,1.7738,1.7007,1.6229,1.535,1.5296,1.4914,1.4121,1.3437,1.3008,1.2891,1.2187,1.1758,0.0,1.1758,0.0,0.0,0.0,0.0,0.0,0.0,0.0,0.0,1.4082,1.5273,1.6894,2.078,2.2557,2.1074,2.2284,2.3196,2.3252,2.3854,2.4287,2.437,2.5029,2.5477,2.5473,2.5473,2.5487,2.5502,2.5485,2.5456,2.5431,2.5402,2.5417,2.5465,2.5471,2.55,2.559,2.5614,2.5651,2.5684,2.5703,2.5703,2.5703,2.5859,2.5879,2.5918,2.6738,2.7598,2.834,2.9175,2.9948,3.0741,3.0752,3.0769,3.0837,3.0878,3.0898,3.0898,3.0918,3.0918,1.591,1.6488,1.6387,1.6641,1.712,1.727,1.7068,1.662,1.6589,1.7044,1.7761,1.8114,1.855,1.8991,1.9418,1.9628,1.9703,2.023,2.086,2.1552,2.1759,2.224,2.2905,2.2952,2.3092,2.3332,2.3343,2.3153,2.2804,2.3437,2.3079,2.1849,2.2272,2.2014,2.1054,0.0,0.0,0.0,2.0257,2.0288,2.0288,2.0154,1.9311,1.7776,1.7545,0.0,1.5387,1.5296,1.4934,1.4141,1.3945,0.0,0.0,0.0,0.0,0.0,0.0,0.0,0.0,0.0,0.0,0.0,1.4629,1.457,1.4941,1.6348,1.7695,1.8769,2.1399,2.2936,2.2655,2.2845,2.3307,2.3924,2.4136,2.4482,2.5088,2.5314,2.5402,2.5354,2.533,2.5386,2.5469,2.541,2.5354,2.5383,2.5346,2.5336,2.5344,2.5391,2.545,2.5498,2.5601,2.5682,2.5703,2.5723,2.5801,2.5762,2.6328,2.6699,2.6836,2.8047,2.9062,2.9336,3.0078,3.0621,3.073,3.0794,3.0837,3.0767,3.0817,3.0918,3.0918,3.0918,3.0918,1.5765,1.65,1.6513,1.6659,0.0,1.69,1.6669,1.6343,1.6853,1.7366,1.7826,1.8491,1.8953,1.9245,2.0113,2.0482,2.0527,2.1083,2.164,2.2148,2.2284,2.2652,2.3189,2.3189,2.3369,2.3692,2.3721,2.3676,2.362,2.4006,2.3777,2.2987,2.3095,2.284,2.2235,2.1569,2.0934,2.0308,2.0288,2.0288,2.0288,2.0288,1.9696,1.8411,1.7914,0.0,0.0,0.0,0.0,0.0,0.0,0.0,0.0,1.3887,0.0,1.4727,1.4785,1.4961,1.5352,1.5019,1.5332,1.6582,1.707,1.7344,1.7324,1.7754,1.871,2.0423,2.2778,2.4073,2.3708,2.4001,2.4379,2.4738,2.4787,2.4946,2.5266,2.5346,2.5344,2.5303,2.5308,2.5327,2.5378,2.5345,2.5313,2.5344,2.5312,2.5308,2.5293,2.5326,2.5372,2.5517,2.5591,2.5677,2.5762,2.625,2.6484,2.6484,2.707,2.7578,2.7637,2.8711,2.9609,2.9668,3.0312,3.0859,3.0817,3.0858,3.0879,3.0836,3.0858,3.0918,3.0918,3.0918,3.0918,1.5718,1.65,1.6513,1.6513,1.6513,1.6513,1.6513,1.6552,1.7442,0.0,0.0,1.8939,1.939,1.9558,2.0895,2.1491,2.1521,2.2046,2.2412,2.2621,2.2538,2.2695,2.3038,2.2863,2.3064,2.3511,2.3515,2.3706,2.4103,2.417,2.4199,2.4163,2.3742,2.3532,2.3446,2.2181,2.1173,2.0519,2.0369,2.0288,2.0288,2.0288,1.9888,1.903,1.8318,1.7595,1.6834,1.6146,1.5459,1.4824,1.4805,1.4785,1.4824,1.5469,1.6191,1.6875,1.6934,1.7266,1.793,1.7324,1.7305,1.8164,1.9023,1.953,1.9511,1.8867,1.943,2.1823,2.4109,2.5163,2.4471,2.5027,2.5447,2.5391,2.5376,2.5354,2.5303,2.5308,2.5293,2.5308,2.5308,2.5308,2.5313,2.5313,2.5308,2.5308,2.5293,2.5308,2.5293,2.5317,2.5383,2.5501,2.5582,2.5688,2.6016,2.6836,2.7402,2.7285,2.7969,2.8516,2.8652,2.9238,2.9766,2.9902,3.0449,3.082,3.0918,3.0898,3.0918,3.0918,3.0918,3.0918,3.0918,3.0918,3.0918,1.5467,1.6513,1.6513,1.6513,1.6513,1.6513,1.6513,1.6522,1.6659,1.6974,1.7439,1.8043,1.8579,1.9057,2.0457,2.1103,2.1134,2.193,2.2324,2.2349,2.1955,2.1996,2.2374,2.1655,2.1838,2.278,2.279,2.3094,2.3735,2.4074,2.4199,2.4228,2.428,2.4133,2.3668,2.2254,2.1446,2.1308,2.0654,2.0288,2.0288,2.0288,1.9888,1.9049,1.8876,1.847,1.7736,1.7586,1.7506,1.7461,1.7441,1.7441,1.7461,1.7539,1.7695,1.7812,1.7812,1.7871,1.7988,1.7871,1.8184,1.9062,1.9877,2.0317,2.0318,2.0271,2.097,2.2705,2.4379,2.5303,2.5243,2.529,2.533,2.5327,2.5317,2.5308,2.5308,2.5308,2.5308,2.5308,2.5308,2.5308,2.5308,2.5308,2.5308,2.5308,2.5308,2.5308,2.5303,2.5357,2.5383,2.5434,2.5585,2.597,2.6575,2.7537,2.8144,2.8125,2.8848,2.9414,2.9434,3.0059,3.0566,3.0703,3.0801,3.0898,3.0918,3.0918,3.0918,3.0918,3.0918,3.0918,3.0918,3.0918,3.0918,1.57,1.6479,1.6513,1.6513,1.6513,1.6513,1.6513,1.6513,1.6513,1.6615,1.6905,1.7434,1.7968,1.856,1.9948,2.0733,2.1055,2.1901,2.2313,2.2282,2.2077,2.2106,2.2268,2.1884,2.2147,2.2935,2.2925,2.3265,2.3927,2.4113,2.4266,2.4375,2.4651,2.4721,2.4495,2.3011,2.222,2.2177,2.0946,2.0288,2.0288,2.0288,2.0115,1.9719,1.928,1.8875,1.8568,1.8129,1.7934,1.8008,1.8008,1.8008,1.8008,1.8457,1.8691,1.8711,1.8711,1.8906,1.9394,1.9414,1.957,1.9956,2.0726,2.1171,2.1102,2.0716,2.1375,2.337,2.4647,2.5313,2.5344,2.5322,2.5308,2.5308,2.5308,2.5308,2.5308,2.5308,2.5308,2.5308,2.5308,2.5308,2.5308,2.5308,2.5308,2.5308,2.5308,2.5308,2.5308,2.5336,2.5383,2.5418,2.5479,2.5911,2.6843,2.8554,2.9336,2.9101,2.9726,3.0215,3.0312,3.0703,3.0859,3.0918,3.0918,3.0918,3.0918,3.0918,3.0918,3.0918,3.0918,3.0918,3.0918,3.0918,3.0918,1.5964,1.6513,1.6513,1.6513,1.6522,1.6637,1.6616,1.65,1.6513,1.6513,1.6586,1.7076,1.7596,1.8211,1.9486,2.0404,2.1055,2.1868,2.2279,2.2296,2.2262,2.2262,2.2285,2.2128,2.2343,2.2945,2.3045,2.3377,2.3935,2.4113,2.4339,2.4575,2.486,2.513,2.5293,2.3863,2.3049,2.2775,2.1385,2.0515,2.0312,2.0288,2.0296,2.0246,1.9656,1.9331,1.9381,1.8807,1.8509,1.8574,1.8594,1.8594,1.8613,1.9219,1.959,1.959,1.959,1.9883,2.0508,2.0605,2.0662,2.0801,2.1394,2.1882,2.2071,2.1407,2.1776,2.3779,2.4801,2.5308,2.5293,2.5308,2.5308,2.5308,2.5308,2.5308,2.5308,2.5308,2.5308,2.5308,2.5308,2.5308,2.5308,2.5308,2.5308,2.5308,2.5308,2.5308,2.5308,2.5308,2.5385,2.5679,2.5735,2.6178,2.7191,2.9195,3.0293,2.9961,3.041,3.0742,3.084,3.0879,3.0918,3.0918,3.0918,3.0918,3.0918,3.0918,3.0918,3.0918,3.0918,3.0918,3.0918,3.0918,3.0918,1.5952,1.6457,1.6513,1.6513,1.6565,1.7013,1.693,1.6522,1.6513,1.6513,1.6565,1.7076,1.7599,1.8179,1.9181,2.0148,2.1039,2.1768,2.2192,2.2276,2.2178,2.2178,2.224,2.1533,2.1563,2.2357,2.2613,2.2957,2.3403,2.3947,2.4392,2.4756,2.4987,2.5206,2.5275,2.4569,2.3784,2.2982,2.2055,2.1161,2.0342,2.0288,2.0292,2.0295,2.0221,2.0233,2.0303,2.0289,2.0282,2.0352,2.0312,2.0332,2.0332,2.043,2.0469,2.0449,2.0469,2.0547,2.0586,2.0605,2.0896,2.1578,2.1696,2.2362,2.3595,2.3064,2.2981,2.4047,2.4856,2.5269,2.5308,2.5308,2.5308,2.5308,2.5308,2.5308,2.5308,2.5308,2.5308,2.5308,2.5308,2.5308,2.5308,2.5308,2.5308,2.5308,2.5308,2.5308,2.5308,2.5308,2.5616,2.6351,2.68,2.7252,2.8054,2.9478,3.0527,3.0703,3.082,3.0918,3.0918,3.0918,3.0918,3.0918,3.0918,3.0918,3.0918,3.0918,3.0918,3.0918,3.0918,3.0918,3.0918,3.0918,3.0918,1.6293,1.6513,1.6513,1.6513,1.6586,1.7076,1.6993,1.6522,1.6513,1.6513,1.6522,1.6731,1.7312,1.8137,1.9075,2.0051,2.1039,2.1834,2.2337,2.2523,2.2468,2.2502,2.2487,2.2199,2.2197,2.2541,2.2833,2.3147,2.3563,2.4201,2.4682,2.4917,2.5154,2.5314,2.5343,2.4666,2.388,2.302,2.2148,2.1249,2.0477,2.0349,2.0363,2.0369,2.0352,2.041,2.0483,2.0508,2.0537,2.0586,2.0605,2.0605,2.0605,2.0605,2.0605,2.0605,2.0605,2.0585,2.054,2.054,2.0874,2.1638,2.2128,2.2911,2.3987,2.4205,2.4462,2.4774,2.5115,2.5308,2.5308,2.5308,2.5308,2.5308,2.5308,2.5308,2.5308,2.5308,2.5308,2.5308,2.5308,2.5308,2.5308,2.5308,2.5308,2.5308,2.5308,2.5308,2.5308,2.5308,2.5673,2.6477,2.7213,2.801,2.8797,2.985,3.0639,3.0859,3.0918,3.0918,3.0918,3.0918,3.0918,3.0918,3.0918,3.0918,3.0918,3.0918,3.0918,3.0918,3.0918,3.0918,3.0918,3.0918,3.0918,1.6358,1.6531,1.6795,1.693,1.6972,1.7504,1.7353,1.6765,1.671,1.6637,1.65,1.6513,1.7092,1.8082,1.8772,1.9743,2.0975,2.1748,2.2289,2.2669,2.2797,2.2848,2.2857,2.2823,2.2796,2.2776,2.3124,2.3541,2.3945,2.4532,2.491,2.504,2.5262,2.5424,2.5376,2.4866,2.4222,2.3392,2.2537,2.168,2.0916,2.0584,2.0461,2.0432,2.0429,2.0449,2.0535,2.0536,2.0561,2.0605,2.0605,2.0605,2.0605,2.0605,2.0605,2.0605,2.0585,2.0659,2.0838,2.0849,2.1259,2.2162,2.272,2.3342,2.4282,2.4962,2.5269,2.5269,2.5308,2.5308,2.5308,2.5308,2.5308,2.5308,2.5308,2.5308,2.5308,2.5308,2.5308,2.5308,2.5308,2.5308,2.5308,2.5308,2.5308,2.5308,2.5308,2.5308,2.5308,2.5346,2.5683,2.6766,2.7596,2.8323,2.9312,3.0154,3.0661,3.0859,3.0918,3.0918,3.0918,3.0918,3.0918,3.0918,3.0918,3.0918,3.0918,3.0918,3.0918,3.0918,3.0918,3.0918,3.0918,3.0918,3.1035,1.5986,1.6637,1.7605,1.7987,1.8072,1.8554,1.8224,1.7299,1.7271,1.6993,1.6595,1.6543,1.7109,1.8112,1.8243,1.9214,2.0894,2.1395,2.2009,2.2721,2.3021,2.3165,2.3183,2.3177,2.3009,2.2805,2.3354,2.3924,2.4432,2.4792,2.4998,2.5015,2.5258,2.5428,2.5481,2.5478,2.5104,2.4236,2.3496,2.2695,2.1855,2.1055,2.0679,2.0645,2.0506,2.0536,2.0586,2.0605,2.0605,2.0605,2.0605,2.0605,2.0605,2.0605,2.0605,2.0586,2.0559,2.0897,2.155,2.1655,2.226,2.3527,2.329,2.357,2.4937,2.5231,2.5288,2.5308,2.5308,2.5308,2.5308,2.5308,2.5308,2.5308,2.5308,2.5308,2.5308,2.5308,2.5308,2.5308,2.5308,2.5308,2.5308,2.5308,2.5308,2.5308,2.5308,2.5308,2.5332,2.5313,2.6106,2.731,2.802,2.8345,2.9285,3.0141,3.0686,3.0859,3.0918,3.0918,3.0918,3.0918,3.0918,3.0918,3.0918,3.0918,3.0918,3.0918,3.0918,3.0918,3.0918,3.0918,3.0918,3.0918,3.1152,1.6157,1.7076,1.7787,1.8288,1.8574,1.8807,1.8641,1.8232,1.794,1.7727,1.7463,1.7167,1.7585,1.8608,1.8574,1.945,2.0943,2.1398,2.2096,2.2942,2.3141,2.3323,2.3504,2.352,2.3354,2.3141,2.3485,2.4034,2.4674,2.4898,2.5057,2.5194,2.5327,2.5431,2.551,2.5563,2.5204,2.4453,2.4082,2.3555,2.2793,2.2383,2.2187,2.2088,2.1111,2.0585,2.0605,2.0605,2.0605,2.0605,2.0605,2.0605,2.0605,2.0605,2.0585,2.0598,2.1037,2.144,2.1692,2.2181,2.2924,2.3905,2.3854,2.4069,2.5029,2.5308,2.5308,2.5308,2.5308,2.5308,2.5308,2.5308,2.5308,2.5308,2.5308,2.5308,2.5308,2.5308,2.5308,2.5308,2.5308,2.5308,2.5308,2.5308,2.5308,2.5308,2.5308,2.5293,2.5423,2.5768,2.6625,2.7721,2.8565,2.9251,3.008,3.043,3.0742,3.0859,3.0918,3.0918,3.0918,3.0918,3.0918,3.0918,3.0918,3.0918,3.0918,3.0918,3.0918,3.0918,3.0918,3.0937,3.0918,3.125,3.168,1.6553,1.7551,1.8118,1.8707,1.9287,1.9513,1.9462,1.924,1.8904,1.8612,1.8299,1.7926,1.823,1.8841,1.9004,1.9753,2.0959,2.143,2.2183,2.3141,2.3189,2.3426,2.3808,2.3863,2.3694,2.3461,2.3714,2.4226,2.4818,2.5024,2.5163,2.5288,2.5352,2.542,2.5503,2.5529,2.5273,2.4844,2.4551,2.4102,2.3594,2.3281,2.3144,2.2969,2.201,2.1405,2.1387,2.0898,2.0762,2.0937,2.0762,2.0605,2.0605,2.0605,2.0701,2.0938,2.1448,2.1992,2.2394,2.297,2.3604,2.4269,2.4158,2.4331,2.5055,2.4937,2.4937,2.5173,2.5308,2.5308,2.5308,2.5308,2.5308,2.5308,2.5308,2.5308,2.5308,2.5308,2.5308,2.5308,2.5308,2.5308,2.5308,2.5308,2.5308,2.5308,2.5298,2.533,2.5449,2.6138,2.7058,2.7934,2.8864,2.9701,3.0391,3.0723,3.0801,3.0879,3.0918,3.0918,3.0918,3.0918,3.0918,3.0918,3.0918,3.0918,3.0918,3.0918,3.0918,3.0918,3.0957,3.0996,3.1309,3.1797,3.2363,1.7105,1.8052,1.8598,1.9342,2.0213,2.0633,2.0619,2.0239,2.0189,1.9708,1.9038,1.8852,1.896,1.9089,1.9516,2.0148,2.0991,2.1491,2.221,2.3141,2.3224,2.3577,2.4133,2.4134,2.4019,2.3759,2.4136,2.4546,2.498,2.5163,2.5279,2.5288,2.5308,2.5399,2.551,2.5507,2.5549,2.543,2.4883,2.4473,2.4336,2.3769,2.3457,2.3359,2.3136,2.3057,2.3066,2.1602,2.1133,2.1621,2.1094,2.0644,2.0723,2.0723,2.0994,2.1672,2.1811,2.2549,2.3765,2.4028,2.4356,2.4719,2.4286,2.4272,2.4755,2.4347,2.4279,2.5052,2.5264,2.5274,2.5284,2.5308,2.5308,2.5308,2.5308,2.5308,2.5308,2.5308,2.5308,2.5308,2.5308,2.5308,2.5293,2.5313,2.5322,2.5335,2.5375,2.549,2.5675,2.6429,2.7214,2.8127,2.914,3.0128,3.0566,3.0918,3.0918,3.0918,3.0918,3.0918,3.0918,3.0918,3.0918,3.0918,3.0918,3.0918,3.0918,3.0918,3.0918,3.0918,3.0996,3.125,3.1738,3.2305,3.3203,1.7126,1.8112,1.8617,1.9576,2.0732,2.0943,2.1039,2.1164,2.1115,2.0799,2.0355,2.0179,2.021,2.032,2.0423,2.0782,2.143,2.1884,2.2497,2.3129,2.3444,2.3746,2.4113,2.4199,2.4228,2.4292,2.461,2.4841,2.4997,2.5208,2.5308,2.5317,2.5352,2.542,2.5489,2.5551,2.5608,2.5644,2.5449,2.5293,2.5293,2.5059,2.4883,2.4795,2.4311,2.4235,2.4676,2.321,2.2221,2.1973,2.1641,2.1484,2.1504,2.1484,2.1855,2.2562,2.3158,2.3517,2.4045,2.46,2.4901,2.4945,2.4737,2.4696,2.4846,2.4632,2.4627,2.5044,2.5046,2.5082,2.5259,2.5308,2.5308,2.5308,2.5308,2.5308,2.5308,2.5308,2.5308,2.5308,2.5308,2.5336,2.5398,2.5395,2.5383,2.5437,2.5479,2.5654,2.6312,2.7139,2.8088,2.8983,2.9834,3.0391,3.0723,3.0918,3.0918,3.0918,3.0918,3.0918,3.0918,3.0918,3.0918,3.0918,3.0918,3.0918,3.0918,3.1016,3.1074,3.123,3.1484,3.1816,3.2207,3.2969,3.3887,1.7126,1.8112,1.8617,1.9665,2.0959,2.115,2.1461,2.1823,2.1803,2.1595,2.1243,2.1083,2.1006,2.1007,2.1053,2.1288,2.1642,2.2169,2.2721,2.3171,2.341,2.3764,2.4152,2.4284,2.4442,2.4685,2.4885,2.504,2.5111,2.5224,2.5308,2.5308,2.5367,2.5428,2.551,2.5563,2.5634,2.5684,2.5684,2.5703,2.5703,2.5703,2.5683,2.556,2.5112,2.5132,2.5517,2.4552,2.3659,2.293,2.2559,2.2344,2.2383,2.2383,2.269,2.3392,2.3895,2.4282,2.4578,2.4952,2.5118,2.4968,2.4852,2.4788,2.4704,2.4756,2.4792,2.4949,2.4961,2.5028,2.5253,2.5308,2.5308,2.5308,2.5308,2.5308,2.5308,2.5308,2.5308,2.5298,2.5336,2.5387,2.5447,2.5456,2.544,2.5506,2.5825,2.611,2.6961,2.7945,2.8828,2.959,3.0212,3.0605,3.084,3.0918,3.0918,3.0918,3.0918,3.0918,3.0918,3.0918,3.0918,3.0918,3.0918,3.0918,3.0937,3.1367,3.1582,3.1797,3.207,3.2734,3.3281,3.3789,3.459,1.7139,1.8112,1.8598,1.965,2.0975,2.1384,2.1809,2.2237,2.2346,2.2113,2.1744,2.174,2.1579,2.132,2.155,2.1687,2.1774,2.2286,2.2815,2.3093,2.3259,2.3566,2.4152,2.4375,2.4604,2.4858,2.4974,2.5094,2.5208,2.5274,2.5308,2.5303,2.5383,2.5451,2.5515,2.5564,2.5636,2.5684,2.5703,2.5703,2.5703,2.5703,2.5683,2.5683,2.5579,2.5558,2.5622,2.544,2.5069,2.4375,2.3437,2.3047,2.3184,2.3184,2.3552,2.4294,2.4331,2.4694,2.5139,2.51,2.4981,2.4828,2.467,2.4495,2.4495,2.4512,2.4625,2.4905,2.4962,2.5059,2.5243,2.5308,2.5308,2.5308,2.5308,2.5308,2.5308,2.5308,2.5308,2.5308,2.5378,2.5434,2.5493,2.5505,2.5561,2.5816,2.637,2.6793,2.7561,2.8535,2.9394,3.0039,3.0586,3.0723,3.0918,3.0918,3.0918,3.0918,3.0918,3.0918,3.0918,3.0937,3.1152,3.1113,3.1152,3.1094,3.1328,3.1934,3.2246,3.2383,3.2949,3.375,3.4277,3.4648,3.5059,1.7139,1.8145,1.8598,1.965,2.0959,2.143,2.1869,2.2335,2.2755,2.2686,2.2512,2.266,2.266,2.2578,2.224,2.2212,2.2354,2.2375,2.2708,2.3129,2.3189,2.3577,2.4124,2.441,2.4551,2.467,2.4898,2.5022,2.5075,2.5243,2.5308,2.5298,2.5424,2.5488,2.5522,2.5606,2.5682,2.5703,2.5703,2.5703,2.5703,2.5703,2.5664,2.5633,2.564,2.5659,2.5636,2.5641,2.5272,2.4434,2.3613,2.3379,2.3789,2.3984,2.4414,2.5054,2.5189,2.5168,2.5282,2.5147,2.4937,2.4811,2.461,2.4454,2.4294,2.4284,2.4459,2.4737,2.4843,2.4962,2.5208,2.5308,2.5308,2.5308,2.5308,2.5308,2.5308,2.5308,2.5308,2.5303,2.5363,2.5463,2.559,2.5701,2.5871,2.6395,2.6934,2.75,2.8398,2.9062,2.9883,3.0391,3.084,3.0879,3.0918,3.0918,3.0918,3.0918,3.0918,3.0918,3.0937,3.0957,3.1348,3.168,3.1875,3.1875,3.2422,3.3027,3.3066,3.3105,3.3809,3.457,3.4785,3.5117,3.5488,1.712,1.8131,1.8617,1.965,2.0975,2.143,2.1938,2.246,2.2832,2.2984,2.296,2.3105,2.3189,2.3129,2.2695,2.255,2.2647,2.2409,2.2647,2.3195,2.3511,2.3891,2.4284,2.4461,2.4534,2.4654,2.4891,2.4973,2.504,2.5208,2.5284,2.5317,2.5434,2.5508,2.552,2.5625,2.5703,2.5703,2.5703,2.5703,2.5703,2.5703,2.5684,2.5658,2.5663,2.5682,2.5639,2.5683,2.543,2.4961,2.4531,2.4394,2.4668,2.4863,2.5195,2.5684,2.5569,2.5473,2.5376,2.5128,2.4891,2.4768,2.4561,2.4358,2.4237,2.4199,2.4348,2.4615,2.4738,2.4916,2.5118,2.5253,2.5303,2.5308,2.5308,2.5308,2.5308,2.5321,2.5336,2.5339,2.5397,2.5535,2.5723,2.5957,2.6426,2.6992,2.7773,2.8496,2.9316,2.9805,3.0215,3.0664,3.0918,3.0918,3.0918,3.0918,3.0918,3.0918,3.0918,3.0918,3.1113,3.1172,3.1641,3.2109,3.2441,3.2851,3.3359,3.3789,3.3945,3.4199,3.4824,3.5176,3.5391,3.543,3.584,1.7063,1.8131,1.8541,1.9614,2.0927,2.1384,2.1919,2.2569,2.2789,2.296,2.3141,2.3242,2.3311,2.3242,2.2923,2.2742,2.2746,2.2581,2.2807,2.3311,2.3798,2.4247,2.4435,2.4418,2.4545,2.4716,2.4891,2.498,2.5053,2.5189,2.5279,2.5333,2.5447,2.5493,2.5545,2.5625,2.5684,2.5703,2.5703,2.5703,2.5703,2.5703,2.5703,2.5684,2.5684,2.5703,2.5684,2.5703,2.5644,2.5684,2.5703,2.5547,2.5625,2.5664,2.5664,2.5644,2.5559,2.5486,2.5414,2.5075,2.4818,2.4746,2.4426,2.4199,2.4199,2.4199,2.4275,2.452,2.467,2.4816,2.5004,2.5198,2.5279,2.5308,2.5308,2.5308,2.5313,2.5363,2.5379,2.5395,2.5547,2.5762,2.6055,2.6543,2.7207,2.791,2.8594,2.9199,2.9844,3.0293,3.0566,3.0801,3.0918,3.0918,3.0918,3.0918,3.0918,3.0918,3.0918,3.0996,3.1406,3.1621,3.2051,3.25,3.3086,3.3613,3.4062,3.4414,3.4687,3.4961,3.5371,3.5703,3.5957,3.582,3.6016,1.6718,1.8112,1.821,1.9324,2.0846,2.1118,2.1612,2.2409,2.289,2.3117,2.3265,2.3477,2.3588,2.3584,2.3247,2.3093,2.3093,2.3044,2.3242,2.3588,2.3986,2.4284,2.4426,2.4384,2.441,2.4591,2.4756,2.4897,2.503,2.5189,2.5326,2.5383,2.5456,2.5535,2.5593,2.5644,2.5703,2.5703,2.5703,2.5703,2.5703,2.5703,2.5703,2.5703,2.5703,2.5703,2.5703,2.5703,2.5703,2.5703,2.5703,2.5703,2.5703,2.5703,2.5664,2.5593,2.5539,2.5468,2.5379,2.5048,2.4797,2.4746,2.4391,2.4199,2.4199,2.417,2.4266,2.4444,2.4534,2.4697,2.4974,2.5173,2.5274,2.5308,2.5365,2.5346,2.5313,2.5363,2.5441,2.5642,2.6141,2.6706,2.6973,2.7559,2.8203,2.8867,2.9394,2.9883,3.0312,3.0742,3.084,3.0918,3.0918,3.0918,3.0918,3.0918,3.0918,3.0918,3.0918,3.1191,3.1601,3.2129,3.2559,3.3184,3.3906,3.4355,3.4746,3.5195,3.5508,3.5703,3.5801,3.5918,3.6016,3.6016,3.6016,1.6854,1.8086,1.8319,1.9417,2.0878,2.1197,2.1746,2.247,2.2989,2.33,2.3488,2.3785,2.3927,2.3907,2.3588,2.3426,2.3426,2.3426,2.3522,2.3777,2.4115,2.4401,2.4495,2.4512,2.4561,2.4643,2.4809,2.4949,2.5047,2.5214,2.533,2.5406,2.5477,2.5539,2.5602,2.5664,2.5703,2.5703,2.5703,2.5703,2.5703,2.5703,2.5703,2.5703,2.5703,2.5703,2.5703,2.5703,2.5703,2.5703,2.5703,2.5703,2.5703,2.5703,2.5644,2.5605,2.5513,2.5424,2.5252,2.4994,2.476,2.4654,2.4238,2.4037,2.3937,2.3917,2.3939,2.4116,2.4284,2.4534,2.4955,2.5192,2.5293,2.5385,2.5692,2.5712,2.5433,2.5383,2.5482,2.5751,2.6367,2.6909,2.748,2.832,2.8867,2.9375,3.0,3.0469,3.0508,3.0859,3.0879,3.0918,3.0918,3.0918,3.0918,3.0918,3.0918,3.0918,3.0918,3.1367,3.1875,3.248,3.3086,3.3769,3.4453,3.498,3.5391,3.584,3.6016,3.5957,3.5937,3.5996,3.6016,3.6016,3.6016,1.7101,1.8165,1.8693,1.9735,2.0943,2.1414,2.1979,2.2608,2.2984,2.3265,2.3649,2.3976,2.4034,2.4036,2.3896,2.3777,2.3821,2.3885,2.3974,2.4042,2.4363,2.4556,2.4636,2.4741,2.4835,2.4869,2.4949,2.5004,2.5099,2.5239,2.5363,2.5431,2.5493,2.5558,2.5629,2.5664,2.5703,2.5703,2.5703,2.5703,2.5703,2.5703,2.5703,2.5703,2.5703,2.5703,2.5703,2.5703,2.5703,2.5703,2.5703,2.5703,2.5703,2.5703,2.5703,2.5684,2.5566,2.5393,2.5212,2.4952,2.4708,2.4441,2.4011,2.3703,2.3621,2.3599,2.3653,2.385,2.4098,2.4534,2.4924,2.5182,2.537,2.5615,2.6217,2.625,2.5948,2.5808,2.6035,2.6001,2.7029,2.7904,2.8359,2.9023,2.9434,2.9883,3.0508,3.0918,3.0918,3.0918,3.0918,3.0918,3.0918,3.0918,3.0918,3.0996,3.0996,3.1328,3.125,3.1855,3.2383,3.2832,3.3476,3.4258,3.4902,3.5391,3.5703,3.5898,3.6016,3.6016,3.6016,3.6016,3.6016,3.6016,3.6016,1.7071,1.8171,1.9096,2.0062,2.0991,2.143,2.1882,2.2371,2.266,2.2967,2.3323,2.3649,2.3806,2.3847,2.4074,2.4201,2.4284,2.4405,2.453,2.4527,2.4704,2.4766,2.4865,2.493,2.5041,2.513,2.5105,2.5094,2.5215,2.5361,2.5409,2.5468,2.5547,2.5626,2.566,2.5703,2.5703,2.5703,2.5703,2.5703,2.5703,2.5703,2.5703,2.5703,2.5703,2.5703,2.5703,2.5703,2.5703,2.5703,2.5703,2.5703,2.5703,2.5703,2.5703,2.5664,2.5588,2.5385,2.5138,2.4917,2.4564,2.4173,2.3824,2.3544,2.3392,2.3392,2.3477,2.3852,2.4274,2.4731,2.4832,2.5121,2.5672,2.6135,2.6538,2.6851,2.7209,2.7434,2.7268,2.7004,2.8049,2.8945,2.9199,2.957,3.0078,3.0351,3.0644,3.0918,3.0918,3.0918,3.0918,3.0918,3.0918,3.0918,3.0918,3.1035,3.1191,3.1894,3.2187,3.2812,3.3223,3.334,3.3867,3.4726,3.5254,3.5605,3.584,3.5996,3.6016,3.6016,3.6016,3.6016,3.6016,3.6016,3.6016,1.7347,1.8151,1.8939,1.9778,2.0616,2.1118,2.1538,2.1984,2.2476,2.2885,2.3212,2.3544,2.3806,2.3966,2.4112,2.4312,2.452,2.4708,2.4797,2.4811,2.4864,2.4917,2.5022,2.508,2.5203,2.5259,2.5208,2.5198,2.5313,2.5367,2.5434,2.5491,2.5564,2.5634,2.5664,2.5703,2.5742,2.5742,2.5762,2.5742,2.5723,2.5723,2.5723,2.5703,2.5703,2.5703,2.5703,2.5703,2.5703,2.5703,2.5703,2.5703,2.5703,2.5684,2.5703,2.5664,2.5567,2.5347,2.5062,2.4841,2.4527,2.3908,2.3613,2.3282,2.3026,2.294,2.3236,2.3891,2.431,2.4723,2.4804,2.5147,2.5686,2.6462,2.6986,2.7467,2.7958,2.8699,2.8558,2.816,2.8794,2.9375,2.957,3.0039,3.0684,3.0918,3.0918,3.0976,3.1016,3.1152,3.1269,3.1211,3.1289,3.1445,3.1484,3.1601,3.1875,3.25,3.2969,3.3594,3.4043,3.416,3.4609,3.5332,3.5684,3.5742,3.5898,3.6016,3.6016,3.6016,3.6016,3.6016,3.6016,3.6016,3.6035,1.7491,1.8145,1.8784,1.9528,2.0297,2.0797,2.1181,2.1582,2.2172,2.2626,2.3015,2.3403,2.3774,2.4066,2.4257,2.4436,2.4575,2.4811,2.4929,2.4968,2.5011,2.5077,2.5105,2.5203,2.5303,2.5279,2.5279,2.5308,2.5317,2.5383,2.5434,2.56,2.5686,2.591,2.6016,2.6367,2.6152,2.623,2.623,2.6172,2.5996,2.5957,2.584,2.5703,2.5703,2.5703,2.5703,2.5703,2.5703,2.5703,2.5703,2.5703,2.5703,2.5684,2.5664,2.5638,2.5556,2.5299,2.4985,2.4841,2.4462,2.366,2.3351,2.3021,2.2755,2.2695,2.2963,2.3976,2.476,2.5037,2.5234,2.5587,2.6282,2.7063,2.7794,2.8299,2.8794,2.9343,2.9781,2.9657,2.9749,2.9844,3.0078,3.0254,3.084,3.1133,3.1152,3.1465,3.1543,3.1816,3.1894,3.1758,3.1797,3.2031,3.2207,3.2422,3.2832,3.3476,3.3769,3.418,3.4629,3.4961,3.543,3.5742,3.5586,3.5644,3.584,3.6016,3.6016,3.6016,3.6016,3.6016,3.6016,3.6074,3.6152,1.7182,1.8157,1.9096,1.9816,2.0314,2.0764,2.1007,2.1118,2.155,2.1917,2.2354,2.2937,2.3414,2.3832,2.4441,2.4685,2.4814,2.4987,2.5132,2.5143,2.5187,2.5208,2.5259,2.5269,2.5308,2.5308,2.5308,2.5308,2.5321,2.5415,2.5556,2.571,2.6352,2.6836,2.6894,2.7324,2.7988,2.793,2.7891,2.7519,2.6894,2.6758,2.6387,2.5898,2.5703,2.5703,2.5703,2.5703,2.5703,2.5703,2.5703,2.5703,2.5684,2.5636,2.5573,2.5545,2.5459,2.5314,2.4916,2.4781,2.4341,2.3556,2.3224,2.2878,2.2656,2.2747,2.3194,2.411,2.5242,2.5882,2.6068,2.686,2.7819,2.8319,2.8646,2.9256,2.9813,2.9729,3.0173,3.0335,3.0185,3.0403,3.0644,3.0762,3.0937,3.1191,3.1465,3.1797,3.2109,3.2402,3.2578,3.2461,3.248,3.2695,3.3047,3.3242,3.373,3.4394,3.4609,3.4785,3.5137,3.5508,3.5703,3.5879,3.5703,3.5644,3.5879,3.6016,3.6016,3.6016,3.6016,3.6016,3.6016,3.6133,3.6406,1.7572,1.7889,1.8821,1.9489,2.0,2.0431,2.06,2.0682,2.1086,2.1579,2.2082,2.2411,2.2974,2.3678,2.4183,2.4445,2.4651,2.4903,2.5061,2.5116,2.5152,2.5203,2.5274,2.5308,2.5308,2.5279,2.5308,2.5308,2.5348,2.5502,2.5699,2.6325,2.6777,2.7285,2.7695,2.8086,2.8223,2.8242,2.8203,2.7832,2.7246,2.6973,2.6621,2.5762,2.5742,2.5723,2.5703,2.5703,2.5703,2.5684,2.5682,2.5644,2.5625,2.5582,2.5491,2.5379,2.529,2.5109,2.4856,2.4736,2.4128,2.3512,2.3177,2.3026,2.2773,2.2925,2.3678,2.501,2.6131,2.6704,2.6821,2.7408,2.8186,2.8819,2.9242,2.9679,3.014,3.0287,3.0402,3.0521,3.0659,3.0827,3.0976,3.1055,3.1269,3.168,3.2051,3.2461,3.2734,3.2988,3.3125,3.3184,3.3281,3.3437,3.3828,3.416,3.457,3.5117,3.5351,3.5527,3.5703,3.5976,3.6016,3.6016,3.5898,3.5918,3.6035,3.6016,3.6016,3.6016,3.6016,3.6211,3.6445,3.6836,3.7285,1.8031,1.8179,1.8688,1.9207,1.9711,2.0002,2.0158,2.021,2.0632,2.1133,2.1634,2.1981,2.2681,2.3453,2.3792,2.4054,2.4361,2.4575,2.4811,2.4924,2.5028,2.5135,2.5219,2.5269,2.5214,2.5224,2.5203,2.5383,2.5633,2.5832,2.6277,2.6921,2.7593,2.8027,2.8516,2.8965,2.918,2.918,2.9101,2.8633,2.7969,2.7773,2.709,2.6426,2.6016,2.5918,2.5723,2.5703,2.5703,2.5684,2.5655,2.5732,2.6046,2.6023,2.6213,2.6149,2.6068,2.5491,2.5178,2.4844,2.4136,2.3649,2.3472,2.3572,2.3489,2.3454,2.408,2.5831,2.7296,2.7714,2.7793,2.8192,2.8927,2.9371,2.9544,2.991,3.0204,3.0334,3.0443,3.054,3.0718,3.1024,3.1172,3.1269,3.1601,3.2109,3.2598,3.3144,3.3535,3.3887,3.4101,3.4277,3.4375,3.4492,3.4726,3.5117,3.5547,3.5684,3.5918,3.6016,3.6016,3.6016,3.6016,3.6016,3.6035,3.6289,3.6465,3.623,3.6016,3.6094,3.623,3.666,3.7012,3.748,3.8105,1.8391,1.952,1.9075,1.9225,1.9723,1.9726,1.9762,1.9821,2.0193,2.04,2.0749,2.1543,2.2421,2.3076,2.3374,2.3645,2.4035,2.4241,2.4535,2.4808,2.5016,2.5071,2.513,2.5107,2.5074,2.5131,2.5226,2.566,2.6237,2.6711,2.6812,2.6981,2.8327,2.9141,2.9629,2.9941,3.0234,3.025,3.0224,2.9855,2.9354,2.9023,2.8418,2.7226,2.6836,2.6543,2.5781,2.582,2.5859,2.5879,2.5825,2.6235,2.6754,2.672,2.7005,2.7334,2.678,2.6294,2.6046,2.5137,2.4321,2.4008,2.4125,2.4585,2.4703,2.3761,2.4541,2.6656,2.8265,2.8927,2.9129,2.9481,2.9854,2.9948,2.9981,3.0096,3.0323,3.0374,3.0485,3.0581,3.0888,3.1318,3.2012,3.2266,3.248,3.2988,3.3848,3.4394,3.4863,3.5215,3.541,3.5566,3.5625,3.5703,3.5742,3.5918,3.584,3.584,3.5957,3.6016,3.6016,3.6016,3.6016,3.6113,3.6191,3.6562,3.6894,3.6836,3.6699,3.6387,3.6543,3.7285,3.8066,3.8711,3.918,1.879,1.9671,1.9475,1.9497,1.9723,1.9723,1.9723,1.9711,1.9856,2.0093,2.0355,2.1101,2.1857,2.2394,2.2608,2.2976,2.3505,2.38,2.4109,2.4371,2.4576,2.4776,2.4889,2.5012,2.5103,2.5468,2.5627,2.6134,2.7057,2.7615,2.8121,2.8602,2.9211,2.9726,3.0234,3.0508,3.0663,3.0747,3.0653,3.0333,2.9715,2.9531,2.9023,2.7969,2.7793,2.7344,2.668,2.6523,2.6504,2.6465,2.6387,2.6952,2.7569,2.7512,2.7793,2.8261,2.7508,2.7217,2.681,2.5743,2.4746,2.5051,2.5434,2.5929,2.6045,2.5526,2.6144,2.7743,2.9163,2.9796,2.9773,3.0018,3.0308,3.0385,3.0404,3.0404,3.0463,3.0528,3.0845,3.1077,3.1478,3.1907,3.2695,3.3457,3.3652,3.3926,3.4844,3.5586,3.584,3.6016,3.6016,3.6016,3.6016,3.6016,3.6016,3.6016,3.6035,3.6094,3.6133,3.6328,3.6445,3.6035,3.6055,3.6152,3.6523,3.7051,3.7402,3.7519,3.748,3.7363,3.7695,3.8262,3.9062,3.9824,4.0156,1.8545,1.908,1.9365,1.9566,1.9708,1.9723,1.9723,1.9723,1.9708,1.9917,2.0307,2.0684,2.1133,2.1622,2.1782,2.2076,2.2608,2.3023,2.3415,2.3797,2.4154,2.4487,2.4682,2.4859,2.5095,2.5729,2.6011,2.6408,2.7657,2.8511,2.8953,2.9303,2.9706,3.0158,3.0408,3.0578,3.0558,3.0617,3.0587,3.0491,2.9914,2.9941,2.9609,2.8848,2.8691,2.8223,2.7637,2.7383,2.7383,2.7363,2.7399,2.7708,2.8118,2.8423,2.8449,2.8455,2.8307,2.8058,2.7606,2.6695,2.5748,2.6068,2.6817,2.7182,2.7314,2.7419,2.8091,2.8742,2.9849,3.0349,3.0168,3.0305,3.0404,3.0404,3.0404,3.0423,3.0612,3.0735,3.1245,3.1663,3.2143,3.2695,3.3574,3.4375,3.4687,3.4844,3.5254,3.5781,3.5898,3.6016,3.6016,3.6016,3.6016,3.6016,3.6016,3.6445,3.6836,3.6816,3.6894,3.709,3.707,3.6699,3.6719,3.7207,3.7559,3.7773,3.8144,3.8594,3.8594,3.8476,3.8848,3.9199,3.9883,4.0566,4.0762,1.7509,1.774,1.8597,1.9225,1.9636,1.969,1.9723,1.969,1.9654,1.9796,2.0035,2.0167,2.0448,2.0846,2.091,2.1224,2.1659,2.2087,2.2615,2.3231,2.3737,2.4226,2.4483,2.4642,2.4949,2.5531,2.6015,2.6804,2.8101,2.8736,2.9327,2.9813,3.0124,3.0382,3.0565,3.0514,3.0521,3.0571,3.0597,3.0572,3.0551,3.0605,3.0176,2.9785,2.957,2.9141,2.8496,2.8281,2.8262,2.8262,2.8203,2.8598,2.9287,2.926,2.9476,3.0027,2.9408,2.9113,2.8969,2.7875,2.7437,2.7395,2.8061,2.8502,2.8634,2.9022,2.9387,2.9735,3.0427,3.0565,3.0482,3.0546,3.0667,3.0769,3.0846,3.0929,3.117,3.1374,3.1937,3.2565,3.3061,3.3613,3.4512,3.5254,3.5625,3.584,3.5937,3.6016,3.6016,3.6055,3.6055,3.623,3.6269,3.6504,3.6699,3.7285,3.7598,3.7578,3.7598,3.7754,3.7969,3.7891,3.8027,3.834,3.8516,3.8672,3.9238,3.9824,3.9687,3.9551,3.9707,4.0078,4.0762,4.1133,4.1172,1.7693,1.8305,1.8712,1.9006,1.9225,1.9566,1.9723,1.9654,1.9339,1.906,1.8865,1.8833,1.9087,1.9501,1.9982,2.0287,2.0751,2.1792,2.2397,2.2534,2.3164,2.3469,2.3816,2.433,2.4815,2.5597,2.6243,2.7207,2.8576,2.9064,2.9536,2.9999,3.0247,3.0411,3.0452,3.0436,3.0456,3.0482,3.0545,3.0623,3.0674,3.0781,3.0742,3.0391,3.0391,2.998,2.9238,2.918,2.916,2.916,2.9101,2.9471,3.0067,3.0092,3.0194,3.0494,3.0037,3.0027,2.9963,2.9442,2.9103,2.9046,2.9206,2.9696,2.9894,2.9992,3.0184,3.0548,3.1303,3.1468,3.1442,3.1865,3.2083,3.216,3.2218,3.2199,3.2356,3.2517,3.2904,3.3583,3.4138,3.461,3.5332,3.5547,3.5879,3.6016,3.6016,3.6016,3.6016,3.6094,3.6172,3.6484,3.668,3.7012,3.7422,3.8144,3.8398,3.832,3.8281,3.832,3.8516,3.8906,3.8809,3.8848,3.9199,3.957,3.9961,4.0312,4.0566,4.0644,4.0566,4.0566,4.0937,4.1172,4.1191,1.7525,1.7911,1.843,1.8516,1.8477,1.9099,1.9317,1.9114,1.8765,1.8418,1.8191,1.8124,1.8279,1.8629,1.8921,1.9353,1.9843,2.0687,2.1732,2.1864,2.2513,2.3137,2.3654,2.41,2.4981,2.582,2.6736,2.7719,2.8584,2.9282,2.9693,2.9977,3.0182,3.0285,3.0359,3.0402,3.0421,3.0451,3.0532,3.0606,3.0672,3.0762,3.0898,3.0859,3.0801,3.0586,3.0215,3.0039,3.0019,3.0019,3.0098,3.0215,3.0605,3.0695,3.0625,3.0581,3.0524,3.0453,3.0348,3.0342,2.9911,2.9708,3.0292,3.0449,3.0463,3.0344,3.0637,3.1168,3.2247,3.2438,3.2422,3.2931,3.2987,3.3025,3.3035,3.3003,3.3109,3.3237,3.3685,3.4405,3.4928,3.5455,3.582,3.5879,3.5996,3.6016,3.6016,3.6035,3.6113,3.6309,3.6523,3.6894,3.7324,3.7754,3.8379,3.918,3.9297,3.9101,3.9141,3.9238,3.957,4.0,3.9687,3.9473,3.998,4.0351,4.0469,4.0723,4.0879,4.0996,4.1035,4.1074,4.1191,4.1191,4.1191,1.7013,1.6731,1.7666,1.7807,1.7544,1.8361,1.8477,1.8092,1.8086,1.8052,1.7979,1.7906,1.7881,1.7987,1.8072,1.8444,1.8999,1.954,2.0522,2.1346,2.1981,2.2903,2.3728,2.4291,2.5138,2.622,2.7152,2.7764,2.843,2.9129,2.9625,2.9901,3.0013,3.0157,3.0267,3.0367,3.0373,3.0444,3.0536,3.0591,3.0655,3.0781,3.0898,3.0918,3.0879,3.0859,3.0684,3.0703,3.0742,3.0781,3.082,3.0859,3.0859,3.0762,3.0722,3.0665,3.0554,3.0477,3.0417,3.0437,3.0608,3.0467,3.0568,3.0513,3.0516,3.064,3.0912,3.1854,3.2957,3.3103,3.3253,3.3307,3.3376,3.3409,3.343,3.349,3.3595,3.3914,3.442,3.4969,3.5437,3.582,3.5918,3.6016,3.6016,3.6016,3.6055,3.625,3.6406,3.6836,3.7109,3.7519,3.7988,3.8574,3.9277,4.0059,4.0195,3.998,4.0351,4.0527,4.0859,4.0859,4.0547,4.0469,4.0898,4.1094,4.0937,4.0976,4.1113,4.1211,4.1328,4.1289,4.1328,4.123,4.123,1.7422,1.7626,1.7565,1.7422,1.7312,1.7229,1.7312,1.7517,1.7537,1.736,1.6972,1.6951,1.7076,1.7005,1.7353,1.7827,1.8468,1.9229,2.02,2.0991,2.1699,2.2605,2.346,2.4322,2.5213,2.6277,2.7219,2.7897,2.8455,2.9071,2.9494,2.9765,2.9908,3.004,3.0157,3.0305,3.0361,3.0439,3.0525,3.0578,3.0658,3.0784,3.0859,3.0898,3.0918,3.0918,3.0918,3.0918,3.0918,3.0918,3.0918,3.0918,3.0879,3.0858,3.0813,3.0636,3.0552,3.0467,3.0411,3.0431,3.0714,3.1234,3.1379,3.1435,3.1324,3.1259,3.1445,3.2608,3.388,3.4325,3.4291,3.424,3.4333,3.4424,3.4441,3.4501,3.4605,3.4795,3.5274,3.5383,3.5844,3.5898,3.5996,3.6016,3.6016,3.6016,3.6113,3.6328,3.6738,3.7187,3.7773,3.8203,3.8809,3.9434,4.0078,4.082,4.0879,4.0937,4.1133,4.1191,4.1113,4.1074,4.1172,4.1191,4.1191,4.1191,4.1172,4.1211,4.123,4.1465,4.1582,4.1504,4.1445,4.1562,4.1699,1.7565,1.7442,1.7387,1.7188,1.693,1.665,1.6689,1.6951,1.6972,1.6774,1.6522,1.6543,1.6513,1.6573,1.6866,1.7291,1.7861,1.8896,1.9897,2.0798,2.1778,2.2964,2.3862,2.464,2.5644,2.6593,2.7397,2.8044,2.8496,2.892,2.9334,2.9579,2.9799,2.9916,3.0054,3.0254,3.0373,3.0425,3.0485,3.0554,3.0638,3.0734,3.0814,3.0879,3.0898,3.0918,3.0918,3.0918,3.0937,3.0918,3.0918,3.0918,3.0898,3.0898,3.084,3.0681,3.0584,3.078,3.094,3.0978,3.1422,3.1933,3.228,3.2574,3.2538,3.248,3.2884,3.3636,3.4863,3.5755,3.5507,3.5343,3.5498,3.5635,3.5642,3.5664,3.5741,3.5806,3.5861,3.5887,3.5957,3.5976,3.6016,3.6016,3.6016,3.6016,3.6172,3.6445,3.6992,3.7656,3.8379,3.9023,3.9707,4.0371,4.0937,4.1191,4.1152,4.1094,4.1152,4.1191,4.1191,4.1191,4.1191,4.1191,4.1191,4.1191,4.1191,4.123,4.1289,4.1621,4.207,4.2266,4.2402,4.2578,4.2734,1.7551,1.6676,1.7055,1.6964,1.6543,1.65,1.6534,1.6513,1.6565,1.65,1.6513,1.6513,1.6513,1.6543,1.6731,1.7063,1.7896,1.8942,2.0104,2.0714,2.2358,2.3669,2.4614,2.5378,2.6048,2.6991,2.7727,2.8129,2.8484,2.888,2.9181,2.9382,2.9626,2.9788,2.9958,3.0254,3.0379,3.04,3.0457,3.0524,3.0587,3.0663,3.0745,3.0838,3.0879,3.0898,3.0937,3.0957,3.0996,3.1016,3.1172,3.1269,3.1328,3.1348,3.123,3.1142,3.1234,3.146,3.1734,3.1813,3.2249,3.274,3.314,3.3638,3.3748,3.3167,3.3368,3.4384,3.5603,3.5917,3.5734,3.5629,3.573,3.5802,3.5812,3.5825,3.5871,3.5937,3.5957,3.5976,3.5996,3.6016,3.6094,3.6113,3.6523,3.6289,3.6582,3.6934,3.7519,3.8301,3.8867,3.9687,4.0273,4.0801,4.0976,4.1191,4.1191,4.1191,4.1191,4.1191,4.1191,4.1191,4.1191,4.1191,4.1191,4.1191,4.1211,4.1387,4.1699,4.2109,4.2558,4.3047,4.334,4.3652,4.375,1.8193,1.7303,1.687,1.6595,1.6522,1.6513,1.6513,1.6513,1.6513,1.6513,1.6513,1.6513,1.6513,1.6543,1.6973,1.7399,1.803,1.9577,2.0773,2.1784,2.3103,2.4344,2.5229,2.5628,2.6353,2.7098,2.772,2.8258,2.8713,2.8952,2.9021,2.9149,2.9456,2.9746,2.9872,3.0195,3.0519,3.0564,3.0706,3.0762,3.0788,3.0668,3.0659,3.0753,3.0824,3.0971,3.1172,3.1601,3.1758,3.1934,3.2539,3.2773,3.2812,3.2773,3.2734,3.2651,3.2404,3.2518,3.2656,3.2759,3.3083,3.363,3.4115,3.4676,3.4617,3.3751,3.386,3.5087,3.5801,3.5918,3.5972,3.5914,3.5875,3.5887,3.5897,3.5927,3.5957,3.5976,3.6016,3.6016,3.6016,3.6152,3.625,3.6504,3.6855,3.7305,3.7832,3.8281,3.875,3.9355,3.9394,4.0059,4.0625,4.1055,4.1172,4.1191,4.1191,4.1191,4.1191,4.1191,4.1211,4.1191,4.1191,4.1191,4.1191,4.1348,4.1601,4.1894,4.2246,4.2773,4.3359,4.3965,4.4551,4.4922,4.4902,1.8559,1.7966,1.7175,1.671,1.6522,1.6513,1.6513,1.6513,1.6513,1.6513,1.6513,1.6513,1.6513,1.6717,1.7366,1.7657,1.8362,2.0504,2.1295,2.228,2.3877,2.4992,2.5631,2.5981,2.6749,2.7455,2.8103,2.8658,2.8945,2.8998,2.9033,2.9192,2.9542,2.9784,2.9921,3.0476,3.0962,3.1019,3.1212,3.1424,3.1322,3.1056,3.0938,3.0994,3.129,3.1464,3.2023,3.25,3.2617,3.2773,3.3125,3.3242,3.3242,3.3242,3.3301,3.3248,3.3187,3.3368,3.354,3.3685,3.3872,3.4446,3.4889,3.5343,3.5421,3.472,3.4803,3.5859,3.5898,3.5996,3.5996,3.595,3.5948,3.5952,3.5953,3.5955,3.5976,3.5996,3.6016,3.6016,3.6328,3.6973,3.7148,3.7519,3.7812,3.7891,3.8516,3.8984,3.959,4.0078,4.0176,4.0371,4.0898,4.1152,4.1191,4.1191,4.1191,4.1191,4.1191,4.123,4.125,4.1211,4.1191,4.1426,4.1621,4.1797,4.2051,4.2519,4.3203,4.3867,4.4414,4.4961,4.5508,4.5879,4.5723,1.8755,1.8424,1.7537,1.693,1.6543,1.6513,1.6513,1.6522,1.6573,1.6637,1.674,1.6867,1.6778,1.7038,1.7802,1.7821,1.8864,2.147,2.2247,2.3023,2.4885,2.5707,2.6184,2.6573,2.7234,2.7841,2.844,2.8755,2.8987,2.9067,2.9214,2.9433,2.9701,2.9943,3.0345,3.1117,3.1814,3.1795,3.2038,3.2641,3.2259,3.1611,3.1633,3.1848,3.2165,3.2571,3.3078,3.3476,3.3516,3.373,3.3848,3.4043,3.4082,3.4141,3.4043,3.4043,3.3984,3.4198,3.4408,3.4483,3.484,3.5256,3.556,3.5713,3.5747,3.5862,3.5955,3.6152,3.6191,3.6094,3.6094,3.6074,3.6074,3.6152,3.6133,3.6328,3.6367,3.6328,3.6289,3.6309,3.6992,3.7734,3.8144,3.8516,3.8652,3.873,3.9023,3.9434,3.9883,4.0293,4.0586,4.0723,4.1035,4.1191,4.1191,4.1191,4.1191,4.1191,4.1211,4.125,4.1426,4.1855,4.2051,4.1933,4.2129,4.2461,4.2871,4.334,4.4082,4.4746,4.5215,4.5586,4.582,4.6133,4.6191,1.8626,1.8108,1.7097,1.6595,1.6522,1.6513,1.6513,1.6573,1.6985,1.7146,1.7355,1.8117,1.8166,1.7225,1.8412,1.8955,1.9737,2.2419,2.3579,2.4214,2.5569,2.625,2.6708,2.7082,2.7631,2.8161,2.8582,2.87,2.9127,2.9285,2.937,2.9527,3.0675,3.075,3.0364,3.1347,3.2468,3.2391,3.266,3.3218,3.3083,3.2682,3.2662,3.275,3.2805,3.3015,3.3395,3.401,3.4297,3.4629,3.498,3.5215,3.5234,3.5176,3.5137,3.5,3.4922,3.4987,3.5167,3.5118,3.5387,3.5469,3.5682,3.5813,3.5919,3.6119,3.6387,3.6914,3.6855,3.6445,3.6367,3.6348,3.6348,3.6543,3.6621,3.7305,3.7676,3.748,3.7305,3.7656,3.8184,3.873,3.9141,3.9414,3.959,3.9766,4.0137,4.0508,4.0566,4.0781,4.0937,4.1055,4.1191,4.1191,4.1191,4.1191,4.1191,4.1191,4.1367,4.168,4.2187,4.2949,4.3066,4.2773,4.3008,4.3398,4.3808,4.416,4.4609,4.5215,4.5762,4.6152,4.6269,4.6289,4.6289]}]]